[[{"header":{"parameterUnit":"m.s-1","parameterCategory":1,"la1":31.0,"la2":29.5877,"lo1":-88.7671,"lo2":-86.6584,"dy":0.0162,"dx":0.0185,"nx":115,"ny":88,"refTime":"2023-09-14T06:00:00:Z","depth":0,"parameterNumber":2,"parameterNumberName":"U-component_of_WINDS"},"data":[0.0,0.0,0.0,0.0,0.0,0.0,0.0,0.0,0.0,0.0,0.0,0.0,0.0,0.0,0.0,0.0,0.0,0.0,0.0,0.0,0.0,0.0,0.0,0.0,0.0,0.0,0.0,0.0,0.0,0.0,0.0,0.0,0.0,0.0,0.0,0.0,0.0,0.0,0.0,0.0,0.0,0.0,0.0,0.0,0.0,0.0,0.0,0.0,0.0,0.0,0.0,0.0,0.0,0.0,0.0,0.0,0.0,0.0,0.0,0.0,0.0,0.0,0.0,0.0,0.0,0.0,0.0,0.0,0.0,0.0,0.0,0.0,0.0,0.0,0.0,0.0,0.0,0.0,0.0,0.0,0.0,0.0,0.0,0.0,0.0,0.0,0.0,0.0,0.0,0.0,0.0,0.0,0.0,0.0,0.0,0.0,0.0,0.0,0.0,0.0,0.0,0.0,0.0,0.0,0.0,0.0,0.0,0.0,0.0,0.0,0.0,0.0,0.0,0.0,0.0,0.0,0.0,0.0,0.0,0.0,0.0,0.0,0.0,0.0,0.0,0.0,0.0,0.0,0.0,0.0,0.0,0.0,0.0,0.0,0.0,0.0,0.0,0.0,0.0,0.0,0.0,0.0,0.0,0.0,0.0,0.0,0.0,0.0,0.0,0.0,0.0,0.0,0.0,0.0,0.0,0.0,0.0,0.0,0.0,0.0,0.0,0.0,0.0,0.0,0.0,0.0,0.0,0.0,0.0,0.0,0.0,0.0,0.0,0.0,0.0,0.0,0.0,0.0,0.0,0.0,0.0,0.0,0.0,0.0,0.0,0.0,0.0,0.0,0.0,0.0,0.0,0.0,0.0,0.0,0.0,0.0,0.0,0.0,0.0,0.0,0.0,0.0,0.0,0.0,0.0,0.0,0.0,0.0,0.0,0.0,0.0,0.0,0.0,0.0,0.0,0.0,0.0,0.0,0.0,0.0,0.0,0.0,0.0,0.0,0.0,0.0,0.0,0.0,0.0,0.0,0.0,0.0,0.0,0.0,0.0,0.0,0.0,0.0,0.0,0.0,0.0,0.0,0.0,0.0,0.0,0.0,0.0,0.0,0.0,0.0,0.0,0.0,0.0,0.0,0.0,0.0,0.0,0.0,0.0,0.0,0.0,0.0,0.0,0.0,0.0,0.0,0.0,0.0,0.0,0.0,0.0,0.0,0.0,0.0,0.0,0.0,0.0,0.0,0.0,0.0,0.0,0.0,0.0,0.0,0.0,0.0,0.0,0.0,0.0,0.0,0.0,0.0,0.0,0.0,0.0,0.0,0.0,0.0,0.0,0.0,0.0,0.0,0.0,0.0,0.0,0.0,0.0,0.0,0.0,0.0,0.0,0.0,0.0,0.0,0.0,0.0,0.0,0.0,0.0,0.0,0.0,0.0,0.0,0.0,0.0,0.0,0.0,0.0,0.0,0.0,0.0,0.0,0.0,0.0,0.0,0.0,0.0,0.0,0.0,0.0,0.0,0.0,0.0,0.0,0.0,0.0,0.0,0.0,0.0,0.0,0.0,0.0,0.0,0.0,0.0,0.0,0.0,0.0,0.0,0.0,0.0,0.0,0.0,0.0,0.0,0.0,0.0,0.0,0.0,0.0,0.0,0.0,0.0,0.0,0.0,0.0,0.0,0.0,0.0,0.0,0.0,0.0,0.0,0.0,0.0,0.0,0.0,0.0,0.0,0.0,0.0,0.0,0.0,0.0,0.0,0.0,0.0,0.0,0.0,0.0,0.0,0.0,0.0,0.0,0.0,0.0,0.0,0.0,0.0,0.0,0.0,0.0,0.0,0.0,0.0,0.0,0.0,0.0,0.0,0.0,0.0,0.0,0.0,0.0,0.0,0.0,0.0,0.0,0.0,0.0,0.0,0.0,0.0,0.0,0.0,0.0,0.0,0.0,0.0,0.0,0.0,0.0,0.0,0.0,0.0,0.0,0.0,0.0,0.0,0.0,0.0,0.0,0.0,0.0,0.0,0.0,0.0,0.0,0.0,0.0,0.0,0.0,0.0,0.0,0.0,0.0,0.0,0.0,0.0,0.0,0.0,0.0,0.0,0.0,0.0,0.0,0.0,0.0,0.0,0.0,0.0,0.0,0.0,0.0,0.0,0.0,0.0,0.0,0.0,0.0,0.0,0.0,0.0,0.0,0.0,0.0,0.0,0.0,0.0,0.0,0.0,0.0,0.0,0.0,0.0,0.0,0.0,0.0,0.0,0.0,0.0,0.0,0.0,0.0,0.0,0.0,0.0,0.0,0.0,0.0,0.0,0.0,0.0,0.0,0.0,0.0,0.0,0.0,0.0,0.0,0.0,0.0,0.0,0.0,0.0,0.0,0.0,0.0,0.0,0.0,0.0,0.0,0.0,0.0,0.0,0.0,0.0,0.0,0.0,0.0,0.0,0.0,0.0,0.0,0.0,0.0,0.0,0.0,0.0,0.0,0.0,0.0,0.0,0.0,0.0,0.0,0.0,0.0,0.0,0.0,0.0,0.0,0.0,0.0,0.0,0.0,0.0,0.0,0.0,0.0,0.0,0.0,0.0,0.0,0.0,0.0,0.0,0.0,0.0,0.0,0.0,0.0,0.0,0.0,0.0,0.0,0.0,0.0,0.0,0.0,0.0,0.0,0.0,0.0,0.0,0.0,0.0,0.0,0.0,0.0,0.0,0.0,0.0,0.0,0.0,0.0,0.0,0.0,0.0,0.0,0.0,0.0,0.0,0.0,0.0,0.0,0.0,0.0,0.0,0.0,0.0,0.0,0.0,0.0,0.0,0.0,0.0,0.0,0.0,0.0,0.0,0.0,0.0,0.0,0.0,0.0,0.0,0.0,0.0,0.0,0.0,0.0,0.0,0.0,0.0,0.0,0.0,0.0,0.0,0.0,0.0,0.0,0.0,0.0,0.0,0.0,0.0,0.0,0.0,0.0,0.0,0.0,0.0,0.0,0.0,0.0,0.0,0.0,0.0,0.0,0.0,0.0,0.0,0.0,0.0,0.0,0.0,0.0,0.0,0.0,0.0,0.0,0.0,0.0,0.0,0.0,0.0,0.0,0.0,0.0,0.0,0.0,0.0,0.0,0.0,0.0,0.0,0.0,0.0,0.0,0.0,0.0,0.0,0.0,0.0,0.0,0.0,0.0,0.0,0.0,0.0,0.0,0.0,0.0,0.0,0.0,0.0,0.0,0.0,0.0,0.0,0.0,0.0,0.0,0.0,0.0,0.0,0.0,0.0,0.0,0.0,0.0,0.0,0.0,0.0,0.0,0.0,0.0,0.0,0.0,0.0,0.0,0.0,0.0,0.0,0.0,0.0,0.0,0.0,0.0,0.0,0.0,0.0,0.0,0.0,0.0,0.0,0.0,0.0,0.0,0.0,0.0,0.0,0.0,0.0,0.0,0.0,0.0,0.0,0.0,0.0,0.0,0.0,0.0,0.0,0.0,0.0,0.0,0.0,0.0,0.0,0.0,0.0,0.0,0.0,0.0,0.0,0.0,0.0,0.0,0.0,0.0,0.0,0.0,0.0,0.0,0.0,0.0,0.0,0.0,0.0,0.0,0.0,0.0,0.0,0.0,0.0,0.0,0.0,0.0,0.0,0.0,0.0,0.0,0.0,0.0,0.0,0.0,0.0,0.0,0.0,0.0,0.0,0.0,0.0,0.0,0.0,0.0,0.0,0.0,0.0,0.0,0.0,0.0,0.0,0.0,0.0,0.0,0.0,0.0,0.0,0.0,0.0,0.0,0.0,0.0,0.0,0.0,0.0,0.0,0.0,0.0,0.0,0.0,0.0,0.0,0.0,0.0,0.0,0.0,0.0,0.0,0.0,0.0,0.0,0.0,0.0,0.0,0.0,0.0,0.0,0.0,0.0,0.0,0.0,0.0,0.0,0.0,0.0,0.0,0.0,0.0,0.0,0.0,0.0,0.0,0.0,0.0,0.0,0.0,0.0,0.0,0.0,0.0,0.0,0.0,0.0,0.0,0.0,0.0,0.0,0.0,0.0,0.0,0.0,0.0,0.0,0.0,0.0,0.0,0.0,0.0,0.0,0.0,0.0,0.0,0.0,0.0,0.0,0.0,0.0,0.0,0.0,0.0,0.0,0.0,0.0,0.0,0.0,0.0,0.0,0.0,0.0,0.0,0.0,0.0,0.0,0.0,0.0,0.0,0.0,0.0,0.0,0.0,0.0,0.0,0.0,0.0,0.0,0.0,0.0,0.0,0.0,0.0,0.0,0.0,2.0601,0.0,0.0,0.0,0.0,0.0,0.0,0.0,0.0,0.0,0.0,0.0,0.0,0.0,0.0,0.0,0.0,0.0,0.0,0.0,0.0,0.0,0.0,0.0,0.0,0.0,0.0,0.0,0.0,0.0,0.0,0.0,0.0,0.0,0.0,0.0,0.0,0.0,0.0,0.0,0.0,0.0,0.0,0.0,0.0,0.0,0.0,0.0,0.0,0.0,0.0,0.0,0.0,0.0,0.0,0.0,0.0,0.0,0.0,0.0,0.0,0.0,0.0,0.0,0.0,0.0,0.0,0.0,0.0,0.0,0.0,0.0,0.0,0.0,0.0,0.0,0.0,0.0,0.0,0.0,0.0,0.0,0.0,0.0,0.0,0.0,0.0,0.0,0.0,0.0,0.0,0.0,0.0,0.0,0.0,0.0,0.0,0.0,0.0,0.0,0.0,0.0,0.0,0.0,0.0,0.0,0.0,0.0,0.0,0.0,0.0,2.0597,2.0547,2.054,2.0538,2.0538,0.0,0.0,0.0,0.0,0.0,0.0,0.0,0.0,0.0,0.0,0.0,0.0,0.0,0.0,0.0,0.0,0.0,0.0,0.0,0.0,0.0,0.0,0.0,0.0,0.0,0.0,0.0,0.0,0.0,0.0,0.0,0.0,0.0,0.0,0.0,0.0,0.0,0.0,0.0,0.0,0.0,0.0,0.0,0.0,0.0,0.0,0.0,0.0,0.0,0.0,0.0,0.0,0.0,0.0,0.0,0.0,0.0,0.0,0.0,0.0,0.0,0.0,0.0,0.0,0.0,0.0,0.0,0.0,0.0,0.0,0.0,0.0,0.0,0.0,0.0,0.0,0.0,0.0,0.0,0.0,0.0,0.0,0.0,0.0,0.0,0.0,0.0,0.0,0.0,0.0,0.0,0.0,0.0,0.0,0.0,0.0,0.0,0.0,0.0,0.0,0.0,0.0,0.0,0.0,0.0,0.0,0.0,0.0,0.0,0.0,0.0,0.0,2.0514,2.0514,2.0499,0.0,0.0,0.0,0.0,0.0,0.0,0.0,0.0,0.0,0.0,0.0,0.0,0.0,0.0,0.0,0.0,0.0,0.0,0.0,0.0,0.0,0.0,0.0,0.0,0.0,0.0,0.0,0.0,0.0,0.0,0.0,0.0,0.0,0.0,0.0,0.0,0.0,0.0,0.0,0.0,0.0,0.0,0.0,0.0,0.0,0.0,0.0,0.0,0.0,0.0,0.0,0.0,0.0,0.0,0.0,0.0,0.0,0.0,0.0,0.0,0.0,0.0,0.0,0.0,0.0,0.0,0.0,0.0,0.0,0.0,0.0,0.0,0.0,0.0,0.0,0.0,0.0,0.0,0.0,0.0,0.0,0.0,0.0,0.0,0.0,0.0,0.0,0.0,0.0,0.0,0.0,0.0,0.0,0.0,0.0,0.0,0.0,0.0,0.0,0.0,0.0,0.0,0.0,0.0,0.0,0.0,0.0,0.0,0.0,0.0,2.0506,2.0506,2.0503,0.0,2.0516,0.0,0.0,0.0,0.0,0.0,0.0,0.0,0.0,0.0,0.0,0.0,0.0,0.0,0.0,0.0,0.0,0.0,0.0,0.0,0.0,0.0,0.0,0.0,0.0,0.0,0.0,0.0,0.0,0.0,0.0,0.0,0.0,0.0,0.0,0.0,0.0,0.0,0.0,0.0,0.0,0.0,0.0,0.0,0.0,0.0,0.0,0.0,0.0,0.0,0.0,0.0,0.0,0.0,0.0,0.0,0.0,0.0,0.0,0.0,0.0,0.0,0.0,0.0,0.0,0.0,0.0,0.0,0.0,0.0,0.0,0.0,0.0,0.0,0.0,0.0,0.0,0.0,0.0,0.0,0.0,0.0,0.0,0.0,0.0,0.0,0.0,0.0,0.0,0.0,0.0,0.0,0.0,0.0,0.0,0.0,0.0,0.0,0.0,0.0,0.0,0.0,0.0,0.0,0.0,0.0,0.0,0.0,0.0,0.0,0.0,2.0503,2.0503,2.05,2.0506,0.0,0.0,0.0,0.0,0.0,0.0,0.0,0.0,0.0,0.0,0.0,0.0,0.0,0.0,0.0,0.0,0.0,0.0,0.0,0.0,0.0,0.0,0.0,0.0,0.0,0.0,0.0,0.0,0.0,0.0,0.0,0.0,0.0,0.0,0.0,0.0,0.0,0.0,0.0,0.0,0.0,0.0,0.0,0.0,0.0,0.0,0.0,0.0,0.0,0.0,0.0,0.0,0.0,0.0,0.0,0.0,0.0,0.0,0.0,0.0,0.0,0.0,0.0,0.0,0.0,0.0,0.0,0.0,0.0,0.0,0.0,0.0,0.0,0.0,0.0,0.0,0.0,0.0,0.0,0.0,0.0,0.0,0.0,0.0,0.0,0.0,0.0,0.0,0.0,0.0,0.0,0.0,0.0,0.0,0.0,0.0,0.0,0.0,0.0,0.0,0.0,0.0,0.0,0.0,0.0,0.0,0.0,0.0,0.0,0.0,2.0516,2.0513,2.051,2.051,2.0497,2.0511,0.0,0.0,0.0,0.0,0.0,0.0,0.0,0.0,0.0,0.0,0.0,0.0,0.0,0.0,0.0,0.0,0.0,0.0,0.0,0.0,0.0,0.0,0.0,0.0,0.0,0.0,0.0,0.0,0.0,0.0,0.0,0.0,0.0,0.0,0.0,0.0,0.0,0.0,0.0,0.0,0.0,0.0,0.0,0.0,0.0,0.0,0.0,0.0,0.0,0.0,0.0,0.0,0.0,0.0,0.0,0.0,0.0,0.0,0.0,0.0,0.0,0.0,0.0,0.0,0.0,0.0,0.0,0.0,0.0,0.0,0.0,0.0,0.0,0.0,0.0,0.0,0.0,0.0,0.0,0.0,0.0,0.0,0.0,0.0,0.0,0.0,0.0,0.0,0.0,0.0,0.0,0.0,0.0,0.0,0.0,0.0,0.0,0.0,0.0,0.0,0.0,0.0,0.0,0.0,0.0,0.0,0.0,0.0,2.0511,2.0508,2.0508,2.0508,2.0508,2.0499,0.0,0.0,0.0,0.0,0.0,0.0,0.0,0.0,0.0,0.0,0.0,0.0,0.0,0.0,0.0,0.0,0.0,0.0,0.0,0.0,0.0,0.0,0.0,0.0,0.0,0.0,0.0,0.0,0.0,0.0,0.0,0.0,0.0,0.0,0.0,0.0,0.0,0.0,0.0,0.0,0.0,0.0,0.0,0.0,0.0,0.0,0.0,0.0,0.0,0.0,0.0,0.0,0.0,0.0,0.0,0.0,0.0,0.0,0.0,0.0,0.0,0.0,0.0,0.0,0.0,0.0,0.0,0.0,0.0,0.0,0.0,0.0,0.0,0.0,0.0,0.0,0.0,0.0,0.0,0.0,0.0,0.0,0.0,0.0,0.0,0.0,0.0,0.0,0.0,0.0,0.0,0.0,0.0,0.0,0.0,0.0,0.0,0.0,0.0,0.0,0.0,0.0,0.0,0.0,0.0,0.0,0.0,0.0,0.0,2.0439,2.0449,2.043,2.0434,2.0434,2.0448,0.0,0.0,0.0,0.0,0.0,0.0,0.0,0.0,0.0,0.0,0.0,0.0,0.0,0.0,0.0,0.0,0.0,0.0,0.0,0.0,0.0,0.0,0.0,0.0,0.0,0.0,0.0,0.0,0.0,0.0,0.0,0.0,0.0,0.0,0.0,0.0,0.0,0.0,0.0,0.0,0.0,0.0,0.0,0.0,0.0,0.0,0.0,0.0,0.0,0.0,0.0,0.0,0.0,0.0,0.0,0.0,0.0,0.0,0.0,0.0,0.0,0.0,0.0,0.0,0.0,0.0,0.0,0.0,0.0,0.0,0.0,0.0,0.0,0.0,0.0,0.0,0.0,0.0,0.0,0.0,0.0,0.0,0.0,0.0,0.0,0.0,0.0,0.0,0.0,0.0,0.0,0.0,0.0,0.0,0.0,0.0,0.0,0.0,0.0,0.0,0.0,0.0,0.0,0.0,0.0,0.0,0.0,0.0,0.0,2.0371,0.0,2.0334,2.0326,2.0371,2.0388,0.0,0.0,0.0,0.0,0.0,0.0,0.0,0.0,0.0,0.0,0.0,0.0,0.0,0.0,0.0,0.0,0.0,0.0,0.0,0.0,0.0,0.0,0.0,0.0,0.0,0.0,0.0,0.0,0.0,0.0,0.0,0.0,0.0,0.0,0.0,0.0,0.0,0.0,0.0,0.0,0.0,0.0,0.0,0.0,0.0,0.0,0.0,0.0,0.0,0.0,0.0,0.0,0.0,0.0,0.0,0.0,0.0,0.0,0.0,0.0,0.0,0.0,0.0,0.0,0.0,0.0,0.0,0.0,0.0,0.0,0.0,0.0,0.0,0.0,0.0,0.0,0.0,0.0,0.0,0.0,0.0,0.0,0.0,0.0,0.0,0.0,0.0,0.0,0.0,0.0,0.0,0.0,0.0,0.0,0.0,0.0,0.0,0.0,0.0,0.0,0.0,0.0,0.0,0.0,0.0,0.0,0.0,0.0,2.0327,2.0323,2.0292,2.0323,2.0227,2.0327,2.0325,0.0,0.0,0.0,0.0,0.0,0.0,0.0,0.0,0.0,0.0,0.0,0.0,0.0,0.0,0.0,0.0,0.0,0.0,0.0,0.0,0.0,0.0,0.0,0.0,0.0,0.0,0.0,0.0,0.0,0.0,0.0,0.0,0.0,0.0,0.0,0.0,0.0,0.0,0.0,0.0,0.0,0.0,0.0,0.0,0.0,0.0,0.0,0.0,0.0,0.0,0.0,0.0,0.0,0.0,0.0,0.0,0.0,0.0,0.0,0.0,0.0,0.0,0.0,0.0,0.0,0.0,0.0,0.0,0.0,0.0,0.0,0.0,0.0,0.0,0.0,0.0,0.0,0.0,0.0,0.0,0.0,0.0,0.0,0.0,0.0,0.0,0.0,0.0,0.0,0.0,0.0,0.0,0.0,0.0,0.0,0.0,0.0,0.0,0.0,0.0,0.0,0.0,0.0,0.0,0.0,0.0,0.0,0.0,0.0,2.0918,2.1441,2.1746,2.1776,2.1263,2.1014,0.0,0.0,0.0,0.0,0.0,0.0,0.0,0.0,0.0,0.0,0.0,0.0,0.0,0.0,0.0,0.0,0.0,0.0,0.0,0.0,0.0,0.0,0.0,0.0,0.0,0.0,0.0,0.0,0.0,0.0,0.0,0.0,0.0,0.0,0.0,0.0,0.0,0.0,0.0,0.0,0.0,0.0,0.0,0.0,0.0,0.0,0.0,0.0,0.0,0.0,0.0,0.0,0.0,0.0,0.0,0.0,0.0,0.0,0.0,0.0,0.0,0.0,0.0,0.0,0.0,0.0,0.0,0.0,0.0,0.0,0.0,0.0,0.0,0.0,0.0,0.0,0.0,0.0,0.0,0.0,0.0,0.0,0.0,0.0,0.0,0.0,0.0,0.0,0.0,0.0,0.0,0.0,0.0,0.0,0.0,0.0,0.0,0.0,0.0,0.0,0.0,0.0,0.0,0.0,0.0,0.0,0.0,0.0,0.0,2.1864,2.212,2.2273,2.2305,2.1878,2.1517,2.1301,0.0,0.0,0.0,0.0,0.0,0.0,0.0,0.0,0.0,0.0,0.0,0.0,0.0,0.0,0.0,0.0,0.0,0.0,0.0,0.0,0.0,0.0,0.0,0.0,0.0,0.0,0.0,0.0,0.0,0.0,0.0,0.0,0.0,0.0,0.0,0.0,0.0,0.0,0.0,0.0,0.0,0.0,0.0,0.0,0.0,0.0,0.0,0.0,0.0,0.0,0.0,0.0,0.0,0.0,0.0,0.0,0.0,0.0,0.0,0.0,0.0,0.0,0.0,0.0,0.0,0.0,0.0,0.0,0.0,0.0,0.0,0.0,0.0,0.0,0.0,0.0,0.0,0.0,0.0,0.0,0.0,0.0,0.0,0.0,0.0,0.0,0.0,0.0,0.0,0.0,0.0,0.0,0.0,0.0,0.0,0.0,0.0,0.0,0.0,0.0,0.0,0.0,0.0,0.0,0.0,0.0,0.0,0.0,2.3015,2.2456,2.2163,2.2157,2.2208,2.1924,0.0,0.0,0.0,0.0,0.0,0.0,0.0,0.0,0.0,0.0,0.0,0.0,0.0,0.0,0.0,0.0,0.0,0.0,0.0,0.0,0.0,0.0,0.0,0.0,0.0,0.0,0.0,0.0,0.0,0.0,0.0,0.0,0.0,0.0,0.0,0.0,0.0,0.0,0.0,0.0,0.0,0.0,0.0,0.0,0.0,0.0,0.0,0.0,0.0,0.0,0.0,0.0,0.0,0.0,0.0,0.0,0.0,0.0,0.0,0.0,0.0,0.0,0.0,0.0,0.0,0.0,0.0,0.0,0.0,0.0,0.0,0.0,0.0,0.0,0.0,0.0,0.0,0.0,0.0,0.0,0.0,0.0,0.0,0.0,0.0,0.0,0.0,0.0,0.0,0.0,0.0,0.0,0.0,0.0,0.0,0.0,0.0,0.0,0.0,0.0,0.0,0.0,0.0,0.0,0.0,0.0,0.0,0.0,0.0,2.4384,2.4136,2.3881,2.3621,2.3167,2.2918,0.0,0.0,0.0,0.0,0.0,0.0,0.0,0.0,0.0,0.0,0.0,0.0,0.0,0.0,0.0,0.0,0.0,0.0,0.0,0.0,0.0,0.0,0.0,0.0,0.0,0.0,0.0,0.0,0.0,0.0,0.0,0.0,0.0,0.0,0.0,0.0,0.0,0.0,0.0,0.0,0.0,0.0,0.0,0.0,0.0,0.0,0.0,0.0,0.0,0.0,0.0,0.0,0.0,0.0,0.0,0.0,0.0,0.0,0.0,0.0,0.0,0.0,0.0,0.0,0.0,0.0,0.0,0.0,0.0,0.0,0.0,0.0,0.0,0.0,0.0,0.0,0.0,0.0,0.0,0.0,0.0,0.0,0.0,0.0,0.0,0.0,0.0,0.0,0.0,0.0,0.0,0.0,0.0,0.0,0.0,0.0,0.0,0.0,0.0,0.0,0.0,0.0,0.0,0.0,0.0,0.0,0.0,0.0,2.3581,2.4676,2.4617,2.4503,2.4324,2.4113,2.3784,0.0,0.0,0.0,0.0,0.0,0.0,0.0,0.0,0.0,0.0,0.0,0.0,0.0,0.0,0.0,0.0,0.0,0.0,0.0,0.0,0.0,0.0,0.0,0.0,0.0,0.0,0.0,0.0,0.0,0.0,0.0,0.0,0.0,0.0,0.0,0.0,0.0,0.0,0.0,0.0,0.0,0.0,0.0,0.0,0.0,0.0,0.0,0.0,0.0,0.0,0.0,0.0,0.0,0.0,0.0,0.0,0.0,0.0,0.0,0.0,0.0,0.0,0.0,0.0,0.0,0.0,0.0,0.0,0.0,0.0,0.0,0.0,0.0,0.0,0.0,0.0,0.0,0.0,0.0,0.0,0.0,0.0,0.0,0.0,0.0,0.0,0.0,0.0,0.0,0.0,0.0,0.0,0.0,0.0,0.0,0.0,0.0,0.0,0.0,0.0,0.0,0.0,0.0,0.0,0.0,0.0,0.0,0.0,2.3815,2.4374,2.4531,2.4635,2.4718,2.4928,2.4494,0.0,0.0,0.0,0.0,0.0,0.0,0.0,0.0,0.0,0.0,0.0,0.0,0.0,0.0,0.0,0.0,0.0,0.0,0.0,0.0,0.0,0.0,0.0,0.0,0.0,0.0,0.0,0.0,0.0,0.0,0.0,0.0,0.0,0.0,0.0,0.0,0.0,0.0,0.0,0.0,0.0,0.0,0.0,0.0,0.0,0.0,0.0,0.0,0.0,0.0,0.0,0.0,0.0,0.0,0.0,0.0,0.0,0.0,0.0,0.0,0.0,0.0,0.0,0.0,0.0,0.0,0.0,0.0,0.0,0.0,0.0,0.0,0.0,0.0,0.0,0.0,0.0,0.0,0.0,0.0,0.0,0.0,0.0,0.0,0.0,0.0,0.0,0.0,0.0,0.0,0.0,0.0,0.0,0.0,0.0,0.0,0.0,0.0,0.0,0.0,0.0,0.0,0.0,0.0,0.0,0.0,0.0,0.0,2.4287,2.491,2.5518,2.5871,2.5978,2.5265,2.452,0.0,0.0,0.0,0.0,0.0,0.0,0.0,0.0,0.0,0.0,0.0,0.0,0.0,0.0,0.0,0.0,0.0,0.0,0.0,0.0,0.0,0.0,0.0,0.0,0.0,0.0,0.0,0.0,0.0,0.0,0.0,0.0,0.0,0.0,0.0,0.0,0.0,0.0,0.0,0.0,0.0,0.0,0.0,0.0,0.0,0.0,0.0,0.0,2.4282,0.0,0.0,0.0,0.0,0.0,0.0,0.0,0.0,0.0,0.0,0.0,0.0,0.0,0.0,0.0,0.0,0.0,0.0,0.0,0.0,0.0,0.0,0.0,0.0,0.0,0.0,0.0,0.0,0.0,0.0,0.0,0.0,0.0,0.0,0.0,0.0,0.0,0.0,0.0,0.0,0.0,0.0,0.0,0.0,0.0,0.0,0.0,0.0,0.0,0.0,0.0,0.0,0.0,0.0,0.0,0.0,0.0,0.0,0.0,2.4149,2.4807,2.5531,2.6,2.6083,2.5312,2.4783,0.0,0.0,0.0,0.0,0.0,0.0,0.0,0.0,0.0,0.0,0.0,0.0,0.0,0.0,0.0,0.0,0.0,0.0,0.0,0.0,0.0,0.0,0.0,0.0,0.0,0.0,0.0,0.0,0.0,0.0,0.0,0.0,0.0,0.0,0.0,0.0,0.0,0.0,0.0,0.0,0.0,0.0,0.0,0.0,0.0,0.0,0.0,0.0,0.0,0.0,0.0,0.0,0.0,0.0,0.0,0.0,0.0,0.0,0.0,0.0,0.0,0.0,0.0,0.0,0.0,0.0,0.0,0.0,0.0,0.0,0.0,0.0,0.0,0.0,0.0,0.0,0.0,0.0,0.0,0.0,0.0,0.0,0.0,0.0,0.0,0.0,0.0,0.0,0.0,0.0,0.0,0.0,0.0,0.0,0.0,0.0,0.0,0.0,0.0,0.0,0.0,0.0,0.0,0.0,0.0,0.0,0.0,2.2925,2.3939,2.4413,2.5274,2.5727,2.5751,2.5214,2.4927,2.4865,0.0,0.0,0.0,0.0,0.0,0.0,0.0,0.0,0.0,0.0,0.0,0.0,0.0,0.0,0.0,0.0,0.0,0.0,0.0,0.0,0.0,0.0,0.0,0.0,0.0,0.0,0.0,0.0,0.0,0.0,0.0,0.0,0.0,0.0,0.0,0.0,0.0,0.0,2.5369,2.5447,0.0,0.0,0.0,0.0,0.0,0.0,0.0,0.0,2.1908,0.0,0.0,0.0,0.0,0.0,0.0,0.0,0.0,0.0,0.0,0.0,0.0,0.0,0.0,0.0,0.0,0.0,0.0,0.0,0.0,0.0,0.0,0.0,0.0,0.0,0.0,0.0,0.0,0.0,0.0,0.0,0.0,0.0,0.0,0.0,0.0,0.0,0.0,0.0,0.0,0.0,0.0,0.0,0.0,0.0,0.0,0.0,0.0,0.0,0.0,0.0,0.0,0.0,0.0,0.0,0.0,2.1267,2.3207,2.4139,2.4115,2.5463,2.5966,2.5561,2.5036,2.4631,2.441,0.0,0.0,0.0,0.0,0.0,0.0,0.0,0.0,0.0,0.0,0.0,0.0,0.0,0.0,0.0,0.0,0.0,0.0,0.0,0.0,0.0,0.0,0.0,0.0,0.0,0.0,0.0,0.0,0.0,0.0,0.0,0.0,0.0,0.0,0.0,0.0,0.0,0.0,0.0,2.4954,2.4803,0.0,0.0,0.0,0.0,0.0,0.0,0.0,0.0,2.2728,0.0,0.0,0.0,0.0,0.0,0.0,0.0,0.0,0.0,0.0,0.0,0.0,0.0,0.0,0.0,0.0,0.0,0.0,0.0,0.0,0.0,0.0,0.0,0.0,0.0,0.0,0.0,0.0,0.0,0.0,0.0,0.0,0.0,0.0,0.0,0.0,0.0,0.0,0.0,0.0,0.0,0.0,0.0,0.0,0.0,0.0,0.0,0.0,0.0,0.0,0.0,0.0,0.0,0.0,0.0,2.1708,2.3287,2.4182,2.4344,2.5415,2.5719,2.5145,2.4642,2.4254,0.0,0.0,0.0,0.0,0.0,0.0,0.0,0.0,0.0,0.0,0.0,0.0,0.0,0.0,0.0,0.0,0.0,0.0,0.0,0.0,0.0,0.0,0.0,0.0,0.0,0.0,0.0,0.0,0.0,0.0,0.0,0.0,0.0,0.0,0.0,0.0,0.0,0.0,0.0,0.0,2.4408,2.4214,2.2967,0.0,0.0,0.0,0.0,0.0,0.0,2.1473,2.1444,0.0,0.0,0.0,0.0,0.0,0.0,0.0,0.0,0.0,0.0,0.0,0.0,0.0,0.0,0.0,0.0,0.0,0.0,0.0,0.0,0.0,0.0,0.0,0.0,0.0,0.0,0.0,0.0,0.0,0.0,0.0,0.0,0.0,0.0,0.0,0.0,0.0,0.0,0.0,0.0,0.0,0.0,0.0,0.0,0.0,0.0,0.0,0.0,0.0,0.0,0.0,0.0,0.0,0.0,0.0,2.2049,2.3287,2.4097,2.4502,2.5179,2.5264,2.4658,2.4198,2.3857,0.0,0.0,0.0,0.0,0.0,0.0,0.0,0.0,0.0,0.0,0.0,0.0,0.0,0.0,0.0,0.0,0.0,0.0,0.0,0.0,0.0,0.0,0.0,0.0,0.0,0.0,0.0,0.0,0.0,0.0,0.0,0.0,0.0,0.0,0.0,0.0,0.0,0.0,0.0,0.0,0.0,2.36,2.2566,2.1941,0.0,0.0,0.0,0.0,2.0502,2.0627,0.0,0.0,0.0,0.0,0.0,0.0,0.0,0.0,0.0,0.0,0.0,0.0,0.0,0.0,0.0,0.0,0.0,0.0,0.0,0.0,0.0,0.0,0.0,0.0,0.0,0.0,0.0,0.0,0.0,0.0,0.0,0.0,0.0,0.0,0.0,0.0,0.0,0.0,0.0,0.0,0.0,0.0,0.0,0.0,0.0,0.0,0.0,0.0,0.0,0.0,0.0,0.0,0.0,0.0,0.0,0.0,2.184,2.2965,2.3767,2.4164,2.4773,2.4773,2.4095,2.3697,2.3391,0.0,0.0,0.0,0.0,0.0,0.0,0.0,0.0,0.0,0.0,0.0,0.0,0.0,0.0,0.0,0.0,0.0,0.0,0.0,0.0,0.0,0.0,0.0,0.0,0.0,0.0,0.0,0.0,0.0,0.0,0.0,0.0,0.0,0.0,0.0,0.0,0.0,0.0,0.0,0.0,0.0,2.3248,2.1681,2.1445,2.1154,0.0,0.0,2.1227,2.0512,2.1065,0.0,0.0,0.0,0.0,0.0,0.0,0.0,0.0,0.0,0.0,0.0,0.0,0.0,0.0,0.0,0.0,0.0,0.0,0.0,0.0,0.0,0.0,0.0,0.0,0.0,0.0,0.0,0.0,0.0,0.0,0.0,0.0,0.0,0.0,0.0,0.0,0.0,0.0,0.0,0.0,0.0,0.0,0.0,0.0,0.0,0.0,0.0,0.0,0.0,0.0,0.0,0.0,0.0,0.0,0.0,2.1429,2.2847,2.3883,2.4595,2.4916,2.5108,2.4854,2.4248,2.3454,2.2905,0.0,0.0,0.0,0.0,0.0,0.0,0.0,0.0,0.0,0.0,0.0,0.0,0.0,0.0,0.0,0.0,0.0,0.0,0.0,0.0,0.0,0.0,0.0,0.0,0.0,0.0,0.0,0.0,0.0,0.0,0.0,0.0,0.0,0.0,0.0,0.0,0.0,0.0,0.0,0.0,0.0,0.0,2.1343,2.0877,0.0,0.0,0.0,2.0746,2.0386,0.0,0.0,0.0,0.0,0.0,0.0,0.0,0.0,0.0,0.0,0.0,0.0,0.0,0.0,0.0,0.0,0.0,0.0,0.0,0.0,0.0,0.0,0.0,0.0,0.0,0.0,0.0,0.0,0.0,0.0,0.0,0.0,0.0,0.0,0.0,0.0,0.0,0.0,0.0,0.0,0.0,0.0,0.0,0.0,0.0,0.0,0.0,0.0,0.0,0.0,0.0,0.0,0.0,0.0,0.0,0.0,0.0,2.3587,2.4479,2.513,2.54,2.5369,2.5068,2.4438,2.3576,0.0,0.0,0.0,0.0,0.0,0.0,0.0,0.0,0.0,0.0,0.0,0.0,0.0,0.0,0.0,0.0,0.0,0.0,0.0,0.0,0.0,0.0,0.0,0.0,0.0,0.0,0.0,1.939,0.0,0.0,0.0,0.0,0.0,0.0,0.0,0.0,0.0,0.0,0.0,0.0,0.0,0.0,2.1292,2.0909,2.0513,2.0199,0.0,0.0,2.0246,2.0265,2.0327,1.9805,0.0,0.0,0.0,0.0,0.0,0.0,0.0,0.0,0.0,0.0,0.0,0.0,0.0,0.0,0.0,0.0,0.0,0.0,0.0,0.0,0.0,0.0,0.0,0.0,0.0,0.0,0.0,0.0,0.0,0.0,0.0,0.0,0.0,0.0,0.0,0.0,0.0,0.0,0.0,0.0,0.0,0.0,0.0,0.0,0.0,0.0,0.0,0.0,0.0,0.0,0.0,0.0,0.0,0.0,0.0,2.3383,2.4153,2.4683,2.4954,2.5318,2.5196,2.4627,2.428,2.3685,0.0,0.0,0.0,0.0,0.0,0.0,0.0,0.0,0.0,0.0,0.0,0.0,0.0,0.0,0.0,0.0,0.0,0.0,0.0,0.0,0.0,0.0,0.0,0.0,0.0,0.0,0.0,0.0,0.0,0.0,0.0,0.0,0.0,0.0,0.0,0.0,0.0,0.0,0.0,0.0,0.0,2.1567,2.0101,2.0477,2.0715,0.0,0.0,2.0136,2.0188,2.0257,1.973,1.8069,0.0,0.0,0.0,0.0,0.0,0.0,0.0,0.0,0.0,0.0,0.0,0.0,0.0,0.0,0.0,0.0,0.0,0.0,0.0,0.0,0.0,0.0,0.0,0.0,0.0,0.0,0.0,0.0,0.0,0.0,0.0,0.0,0.0,0.0,0.0,0.0,0.0,0.0,0.0,0.0,0.0,0.0,0.0,0.0,0.0,0.0,0.0,0.0,0.0,0.0,0.0,0.0,0.0,2.2867,2.3759,2.4891,2.556,2.5747,2.5712,2.5644,2.5457,2.4298,2.3694,0.0,0.0,0.0,0.0,0.0,0.0,0.0,0.0,0.0,0.0,0.0,0.0,0.0,0.0,0.0,0.0,0.0,0.0,0.0,0.0,0.0,0.0,0.0,0.0,0.0,0.0,0.0,0.0,1.8882,1.8347,1.7702,0.0,0.0,0.0,0.0,0.0,0.0,0.0,0.0,0.0,0.0,2.133,2.1176,2.1081,0.0,0.0,2.0318,2.0059,2.0135,1.9758,1.9043,1.792,1.7342,0.0,0.0,0.0,0.0,0.0,0.0,0.0,0.0,0.0,0.0,0.0,0.0,0.0,0.0,0.0,0.0,0.0,0.0,0.0,0.0,0.0,0.0,0.0,0.0,0.0,0.0,0.0,0.0,0.0,0.0,0.0,0.0,0.0,0.0,0.0,0.0,0.0,0.0,0.0,0.0,0.0,0.0,0.0,0.0,0.0,0.0,0.0,0.0,0.0,0.0,0.0,0.0,2.3236,2.3875,2.5244,2.6008,2.6129,2.6017,2.5893,2.5763,2.4677,2.4104,0.0,0.0,0.0,0.0,0.0,0.0,0.0,0.0,0.0,0.0,0.0,0.0,0.0,0.0,0.0,0.0,0.0,0.0,0.0,0.0,0.0,0.0,0.0,0.0,0.0,0.0,0.0,0.0,1.808,1.744,1.7212,0.0,0.0,0.0,0.0,0.0,0.0,0.0,0.0,0.0,0.0,2.1306,2.1563,2.1432,2.1161,2.0747,2.0266,1.9958,2.0059,1.9602,1.895,1.8179,0.0,0.0,0.0,0.0,0.0,0.0,0.0,0.0,0.0,0.0,0.0,0.0,0.0,0.0,0.0,0.0,0.0,0.0,0.0,0.0,0.0,0.0,0.0,0.0,0.0,0.0,0.0,2.0227,0.0,0.0,2.042,0.0,0.0,0.0,0.0,0.0,0.0,0.0,0.0,0.0,0.0,0.0,0.0,0.0,0.0,0.0,0.0,0.0,0.0,0.0,0.0,0.0,0.0,2.3545,2.353,2.4835,2.5608,2.5836,2.6117,2.6012,2.5454,2.5698,2.5143,2.3797,0.0,0.0,0.0,0.0,0.0,0.0,0.0,0.0,0.0,0.0,0.0,0.0,0.0,0.0,0.0,0.0,0.0,0.0,0.0,0.0,0.0,0.0,0.0,0.0,0.0,0.0,1.8268,1.6886,1.6339,0.0,0.0,0.0,0.0,0.0,0.0,0.0,0.0,0.0,0.0,2.1427,2.1581,2.0877,2.1427,2.1407,1.9987,1.9782,1.9854,1.9982,1.996,1.9688,0.0,0.0,0.0,0.0,0.0,0.0,0.0,0.0,0.0,0.0,0.0,0.0,0.0,0.0,0.0,0.0,0.0,0.0,0.0,0.0,0.0,0.0,0.0,0.0,0.0,0.0,0.0,2.2031,2.2086,0.0,0.0,0.0,0.0,0.0,0.0,0.0,0.0,0.0,0.0,0.0,2.2944,2.266,0.0,0.0,0.0,0.0,0.0,0.0,0.0,0.0,0.0,0.0,0.0,0.0,2.3517,2.3958,2.4837,2.5619,2.6231,2.6226,2.6065,2.5866,2.5782,2.5154,2.4009,0.0,0.0,0.0,0.0,0.0,0.0,0.0,0.0,0.0,0.0,0.0,0.0,0.0,0.0,0.0,0.0,0.0,0.0,0.0,0.0,0.0,0.0,0.0,0.0,0.0,1.9559,0.0,0.0,0.0,0.0,0.0,0.0,0.0,0.0,0.0,0.0,0.0,1.9814,2.0523,2.082,2.1081,2.1393,2.1274,2.096,0.0,0.0,0.0,0.0,0.0,0.0,0.0,0.0,0.0,0.0,0.0,0.0,0.0,0.0,1.7679,1.7158,1.73,1.7524,1.7559,0.0,0.0,0.0,0.0,0.0,0.0,0.0,0.0,0.0,0.0,0.0,0.0,0.0,0.0,2.2519,0.0,2.2671,0.0,0.0,0.0,0.0,0.0,0.0,0.0,0.0,2.3611,2.3953,2.4109,2.4009,2.3868,0.0,2.2818,2.2143,0.0,0.0,0.0,0.0,0.0,0.0,0.0,0.0,2.3239,2.3948,2.4682,2.5458,2.6293,2.6165,2.6002,2.6056,2.5778,2.5429,2.497,2.4957,2.4649,0.0,0.0,0.0,0.0,0.0,0.0,0.0,0.0,0.0,0.0,0.0,0.0,0.0,0.0,0.0,0.0,0.0,0.0,0.0,0.0,0.0,0.0,0.0,2.0147,0.0,0.0,0.0,0.0,0.0,0.0,0.0,0.0,0.0,1.9587,1.9504,1.9681,2.0376,2.0451,2.0653,2.1238,0.0,0.0,0.0,0.0,0.0,0.0,0.0,1.982,1.9806,1.922,1.8783,1.8878,1.8986,1.9147,1.9449,0.0,0.0,1.8558,1.8827,1.9246,1.9292,1.9965,2.0537,2.0603,2.1289,2.2031,0.0,0.0,0.0,0.0,0.0,0.0,0.0,0.0,2.1496,2.196,0.0,2.3119,0.0,0.0,0.0,0.0,0.0,2.3145,0.0,0.0,2.491,2.5196,2.4795,2.5062,2.5146,2.4974,2.4232,2.3847,2.3696,2.1665,0.0,0.0,0.0,0.0,0.0,0.0,2.2862,2.3436,2.4323,2.5207,2.6068,2.5948,2.5893,2.5893,2.5778,2.5944,2.64,2.5339,2.495,2.5512,2.4083,0.0,0.0,0.0,0.0,0.0,0.0,0.0,0.0,0.0,0.0,0.0,0.0,0.0,0.0,0.0,0.0,0.0,0.0,0.0,0.0,2.1053,0.0,0.0,0.0,0.0,0.0,0.0,0.0,0.0,0.0,0.0,1.9468,1.936,1.9559,2.024,0.0,0.0,0.0,0.0,2.0264,1.9574,2.0172,2.0785,2.0871,2.1529,2.2062,2.2133,0.0,0.0,2.1377,2.1452,2.177,2.2594,2.2786,2.2111,1.9873,2.0671,2.1648,2.1831,2.2461,2.3082,2.3244,2.3903,2.4539,2.1268,0.0,0.0,0.0,0.0,2.4223,2.4658,2.5291,2.5088,2.4846,2.4605,2.4624,0.0,0.0,0.0,0.0,0.0,0.0,2.4428,2.5196,2.5709,2.6083,2.6236,2.611,2.6006,2.5849,2.5474,2.505,2.4545,2.3369,2.2504,2.1956,0.0,0.0,0.0,0.0,2.2651,2.3834,2.4288,2.504,2.6082,2.5948,2.5948,2.6056,2.6179,2.6191,2.6059,2.6255,2.5939,2.5029,2.4989,0.0,0.0,0.0,0.0,0.0,0.0,0.0,0.0,0.0,0.0,0.0,0.0,0.0,0.0,0.0,0.0,0.0,0.0,0.0,2.2317,2.2282,2.208,0.0,0.0,0.0,0.0,0.0,0.0,0.0,0.0,0.0,1.9969,1.9494,1.919,0.0,0.0,1.9414,1.9447,1.997,2.0313,2.0195,2.0871,0.0,2.2275,2.2085,2.23,2.3466,2.363,2.3633,2.3766,2.3865,2.3993,2.4321,2.5317,2.5741,2.4629,2.3287,2.2842,2.3378,2.4194,2.4997,2.5695,2.65,2.7106,2.2356,2.3367,2.3088,2.3508,2.4374,2.4502,2.4918,2.5544,2.5514,2.5447,2.5313,2.5589,2.5217,2.438,2.4368,0.0,0.0,0.0,2.5439,2.6156,2.6503,2.6788,2.6869,2.6873,2.6792,2.665,2.6204,2.5732,2.5329,2.4268,2.3263,2.2386,0.0,0.0,2.1438,2.1783,2.2433,2.3455,2.4018,2.4773,2.5607,2.5821,2.5948,2.6002,2.6258,2.6184,2.5771,2.6188,2.5955,2.4994,2.5048,2.465,0.0,0.0,0.0,0.0,0.0,0.0,0.0,0.0,0.0,0.0,0.0,1.974,1.9756,0.0,0.0,0.0,2.2062,2.268,2.3153,2.3267,0.0,0.0,0.0,0.0,0.0,0.0,0.0,2.157,2.168,2.1657,2.1562,2.0896,2.039,2.0334,2.0352,2.0371,2.0444,0.0,2.0843,2.1243,2.1989,2.2847,2.3672,2.3749,2.4136,2.5484,2.6154,2.6486,2.6609,2.6693,2.6774,2.6964,2.7695,2.8173,2.7529,2.6144,2.5226,2.5627,2.6118,2.6683,2.7287,2.8091,2.8727,2.2994,2.3018,2.2194,2.209,2.2465,2.264,2.2826,2.3103,2.3963,2.4476,2.4777,2.5978,2.6217,2.5654,2.5486,0.0,2.6334,2.6334,2.6445,2.6707,2.7164,2.7255,2.6983,2.7375,2.7488,2.7335,2.6461,2.6002,2.5871,2.453,2.3554,2.296,2.2277,2.1794,2.1465,2.1877,2.2222,2.2523,2.349,2.4309,2.4896,2.5458,2.5739,2.5739,2.5915,2.5806,2.5509,2.5385,2.5317,2.533,2.4587,2.4084,2.3951,0.0,0.0,0.0,0.0,0.0,0.0,0.0,0.0,0.0,0.0,0.0,0.0,0.0,0.0,0.0,2.3508,0.0,2.4076,2.4137,0.0,0.0,0.0,2.4277,2.4257,2.4119,2.4366,2.5071,0.0,0.0,2.3876,2.3334,2.298,2.3042,2.2712,2.255,2.2647,2.2201,2.2042,2.2875,2.3642,2.4502,2.5506,2.6285,2.7094,2.7853,2.8849,2.9363,2.9467,2.9586,2.9758,2.9738,2.9944,2.9809,2.9197,2.9102,2.8987,2.8375,2.8144,2.812,2.8339,2.9018,2.9591,2.1945,2.2521,2.2723,2.3477,2.4694,2.457,2.472,2.5025,2.5222,2.5091,2.4818,2.5421,2.5616,2.547,2.5469,2.5663,2.5966,2.6413,2.6564,2.6555,2.7135,2.73,2.7149,2.7246,2.7181,2.6922,2.6724,2.6234,2.5523,2.4712,2.4009,2.3363,2.2725,2.1975,2.1032,2.1037,2.1498,2.2417,2.256,2.3202,2.4287,2.4484,2.4554,2.454,2.4657,2.4753,2.4748,2.5068,2.5178,2.5028,2.4817,2.4393,2.3666,2.3386,0.0,0.0,0.0,0.0,0.0,0.0,0.0,0.0,0.0,2.1169,2.1169,0.0,2.2692,0.0,2.4765,2.5556,2.5579,2.5597,0.0,0.0,2.566,2.5683,2.5638,2.5615,2.562,2.5691,2.6045,2.6251,2.619,2.7094,2.7736,2.7701,2.5153,2.3513,2.4091,2.5153,2.5859,2.6081,2.6698,2.7612,2.8384,2.9399,2.9835,2.9552,3.0325,3.0978,3.1048,3.1225,3.1337,3.1418,3.1986,3.2125,3.1543,3.1974,3.1906,3.0844,2.9687,2.9158,2.9846,3.0231,3.0428,2.1833,2.2539,2.2953,2.3837,2.492,2.4849,2.5003,2.5345,2.5448,2.549,2.542,2.5646,2.581,2.5988,2.5835,2.5903,2.616,2.653,2.6707,2.6766,2.707,2.7196,2.7144,2.7093,2.6974,2.6659,2.6606,2.6275,2.5692,2.5043,2.4418,2.378,2.3141,2.2204,2.1098,2.1026,2.1338,2.1914,2.2358,2.3118,2.4061,2.4118,2.3977,2.3659,2.3731,2.3575,2.324,2.3543,2.3644,2.3538,2.377,2.3602,2.2941,2.3046,2.2709,0.0,0.0,0.0,0.0,0.0,0.0,0.0,0.0,0.0,0.0,0.0,2.3902,2.4717,2.5559,2.6207,2.6549,2.6603,2.6867,2.7569,2.7641,2.7741,2.8074,2.8066,2.8012,2.7954,2.8345,2.8469,2.8147,2.8834,2.9387,2.9387,2.7826,2.6691,2.6772,2.7334,2.7754,2.8148,2.8596,2.9206,3.0052,3.0928,3.1373,3.1138,3.179,3.2407,3.2511,3.2687,3.2789,3.292,3.3324,3.3512,3.2953,3.3165,3.3147,3.2178,3.1306,3.076,3.0569,3.0614,3.0678,2.2109,2.2638,2.3023,2.353,2.4059,2.4246,2.4607,2.4922,2.5218,2.5647,2.6083,2.6061,2.6274,2.6621,2.6315,2.6309,2.658,2.6755,2.69,2.703,2.7068,2.7024,2.6937,2.6937,2.6765,2.6472,2.6326,2.6233,2.6056,2.5328,2.4713,2.4216,2.3449,2.2521,2.1485,2.1476,2.1433,2.133,2.2456,2.3301,2.3864,2.3794,2.3484,2.2935,2.2836,2.2395,2.1583,2.1715,2.1821,2.1813,2.2231,2.2429,2.2322,2.272,2.2806,0.0,2.215,0.0,0.0,0.0,0.0,0.0,0.0,0.0,0.0,2.4629,2.5524,2.6236,2.6451,2.6864,2.7546,2.7592,2.8147,2.9492,2.9579,2.9826,3.0594,3.0672,3.0659,3.0749,3.0784,3.0535,2.9964,2.9869,2.9869,3.0029,3.035,3.0315,2.9904,2.9315,2.9226,2.9779,2.9873,3.0378,3.1009,3.1685,3.2157,3.2358,3.2824,3.3502,3.3542,3.3707,3.3858,3.3968,3.4031,3.3966,3.3577,3.3554,3.3412,3.2745,3.2664,3.2272,3.1086,3.0799,3.0739,2.1659,2.2237,2.2476,2.2852,2.3276,2.3959,2.4412,2.4719,2.4971,2.5307,2.566,2.5818,2.6012,2.629,2.6571,2.6813,2.7079,2.7369,2.7343,2.7028,2.7276,2.7151,2.6592,2.6578,2.651,2.6326,2.6233,2.6071,2.5948,2.5275,2.4976,2.4769,2.3659,2.2732,2.2062,0.0,0.0,0.0,2.2126,2.2611,2.271,2.2289,2.2022,2.188,2.1396,0.0,2.1109,2.133,2.1543,2.1768,2.1747,0.0,0.0,0.0,0.0,0.0,0.0,0.0,0.0,0.0,0.0,0.0,2.5559,2.538,2.5182,2.6588,2.7629,2.787,2.8943,2.9719,2.9862,2.9799,2.9852,3.0118,3.0171,3.0442,3.1217,3.1324,3.1537,3.2136,3.2293,3.2307,3.208,3.221,3.2188,3.2081,3.2349,3.2416,3.2188,3.1938,3.2028,3.2188,3.2059,3.2237,3.2465,3.2639,3.2773,3.2893,3.3087,3.3334,3.3393,3.352,3.3698,3.3842,3.3928,3.4062,3.4111,3.4248,3.4078,3.3431,3.3447,3.3169,3.1792,3.1525,3.1389,2.1523,2.2321,2.2642,2.3094,0.0,2.4224,2.4553,2.4838,2.5091,2.5465,2.5957,2.5962,2.6089,2.638,2.6317,2.6553,2.6977,2.7157,2.7273,2.7328,2.7499,2.7498,2.7336,2.7035,2.6783,2.6619,2.6266,2.6002,2.5879,2.557,2.5289,2.5019,2.445,2.3815,2.3271,2.3075,2.2463,2.1403,2.2119,2.2509,2.2526,2.2271,2.2015,2.1787,2.1485,0.0,0.0,0.0,0.0,0.0,0.0,0.0,0.0,2.2971,0.0,2.4497,2.4728,2.5259,2.6148,2.6345,2.67,2.7518,2.7782,2.7687,2.7261,2.8417,2.9225,2.9323,2.9994,3.0569,3.096,3.092,3.1016,3.1384,3.1391,3.1585,3.1921,3.1991,3.2133,3.2466,3.2621,3.269,3.2725,3.2805,3.2838,3.2852,3.2902,3.2916,3.2916,3.2916,3.2916,3.2916,3.2916,3.2898,3.2916,3.2916,3.2979,3.3028,3.3091,3.3152,3.3196,3.3364,3.3567,3.3698,3.3842,3.3972,3.4245,3.4386,3.4386,3.418,3.4226,3.4027,3.2982,3.255,3.2278,2.1463,2.2459,2.2798,2.3486,2.4342,2.4492,2.4706,2.505,0.0,0.0,0.0,2.6206,2.6268,2.6557,2.6193,2.6377,2.6951,2.7012,2.7297,2.7726,2.783,2.7949,2.8054,2.7626,2.7328,2.7173,2.6509,2.6172,2.6048,2.595,2.564,2.523,2.5246,2.4995,2.4497,2.4702,2.397,2.2314,2.2793,2.3069,2.3132,2.2915,2.2628,2.2207,2.2031,2.1735,2.1318,2.1486,2.1704,2.2028,2.2516,2.3001,2.346,2.3806,2.4484,2.5466,2.5726,2.6415,2.771,2.7956,2.842,2.9255,2.9729,2.976,2.9202,2.9916,3.0455,3.0561,3.0641,3.0981,3.16,3.1688,3.1918,3.2519,3.2523,3.2473,3.2456,3.2473,3.2456,3.2507,3.2557,3.2573,3.2606,3.2707,3.2773,3.2805,3.2838,3.2884,3.2916,3.2916,3.2916,3.2916,3.2948,3.2948,3.2948,3.2948,3.2948,3.3011,3.3011,3.3042,3.3104,3.3274,3.3462,3.3643,3.3753,3.3947,3.4197,3.4316,3.4431,3.4623,3.4751,3.4718,3.4194,3.3661,3.325,2.1474,2.2213,2.2426,2.3082,2.3887,2.4309,2.4826,2.552,2.5384,2.5465,2.5734,2.6202,2.637,2.6438,2.6915,2.7235,2.742,2.7864,2.7967,2.7769,2.8232,2.8226,2.7792,2.7838,2.7882,2.7825,2.7046,2.668,2.6624,2.616,2.5892,2.5873,2.5564,2.525,2.5005,2.514,2.5103,2.4917,2.4817,2.478,2.4751,2.3759,2.3187,2.3098,2.2135,2.162,2.165,2.1864,2.2262,2.2989,2.3289,2.406,2.5287,2.5731,2.6324,2.7234,2.7623,2.7932,2.8207,2.8494,2.911,3.0131,3.0984,3.1011,2.9907,3.0627,3.12,3.1349,3.1815,3.2258,3.2348,3.2297,3.2264,3.2387,3.244,3.2422,3.2406,3.2388,3.2422,3.2422,3.2473,3.2523,3.2523,3.259,3.269,3.2773,3.287,3.287,3.2979,3.2979,3.2979,3.2979,3.3042,3.3055,3.3086,3.3073,3.3104,3.3086,3.3086,3.3086,3.3117,3.3304,3.3433,3.3605,3.3753,3.3902,3.4105,3.4221,3.434,3.445,3.4604,3.4695,3.4642,3.4598,3.4286,2.1623,2.2476,2.2903,2.3574,2.4386,2.4692,2.4911,2.5182,2.5252,2.5498,2.5888,2.6021,2.6233,2.6414,2.6701,2.7053,2.7536,2.7776,2.7984,2.8193,2.8532,2.8691,2.861,2.8496,2.8401,2.8358,2.7694,2.7158,2.6807,2.6567,2.6396,2.6204,2.6289,2.6374,2.6446,2.6594,2.6692,2.6711,2.5878,2.5458,2.5491,2.4955,2.4687,2.4762,2.4205,2.3947,2.4006,2.4181,2.4502,2.4906,2.5133,2.5639,2.6398,2.6739,2.7306,2.8223,2.8535,2.8902,2.9395,2.9732,3.0234,3.0933,3.1408,3.1543,3.1115,3.1582,3.1945,3.2029,3.2297,3.2457,3.2457,3.244,3.2354,3.2301,3.2301,3.2284,3.2232,3.2267,3.2267,3.2319,3.2405,3.2507,3.2507,3.2623,3.2722,3.2838,3.2965,3.3091,3.3152,3.3256,3.3268,3.3208,3.3256,3.3316,3.3316,3.3298,3.3298,3.3298,3.3286,3.3256,3.3256,3.3393,3.3491,3.3633,3.378,3.3895,3.4049,3.4148,3.4221,3.4358,3.4473,3.4626,3.4752,3.4642,3.4066,2.1615,2.2706,2.3232,2.4003,2.4914,2.5045,2.5098,2.4988,2.5262,2.5624,2.6146,2.6154,2.6263,2.6477,2.6546,2.6828,2.7268,2.739,2.7789,2.8327,2.8624,2.8958,2.917,2.8988,2.8839,2.8769,2.8268,2.7706,2.727,2.7216,2.7029,2.6769,2.7085,2.7423,2.771,2.784,2.789,2.7879,2.6877,2.6285,2.627,2.6134,2.6137,2.6198,2.6077,2.6016,2.6062,2.6197,2.6348,2.6594,2.6778,2.7065,2.7391,2.768,2.8168,2.8941,2.9228,2.9666,3.0452,3.0708,3.1032,3.1479,3.1576,3.1746,3.2073,3.2267,3.2388,3.2439,3.2371,3.2354,3.2371,3.2354,3.2267,3.2179,3.2179,3.2144,3.2108,3.2144,3.2179,3.2214,3.2353,3.2507,3.2523,3.2641,3.2787,3.2916,3.3152,3.3322,3.3382,3.3538,3.3559,3.3512,3.353,3.3577,3.3577,3.3577,3.3577,3.3577,3.352,3.3491,3.3509,3.3549,3.3587,3.3726,3.3807,3.3895,3.4049,3.4099,3.4037,3.3985,3.3967,3.4083,3.3972,3.379,3.3465,2.1436,2.2236,2.2872,2.3831,2.4861,2.5052,2.5419,2.5677,2.5529,2.579,2.6378,2.6705,2.6736,2.6672,2.6863,2.6884,2.6833,2.7134,2.7416,2.7656,2.8327,2.8651,2.8716,2.9156,2.9331,2.9233,2.8839,2.8549,2.838,2.805,2.7896,2.7876,2.772,2.779,2.8088,2.8137,2.8186,2.8363,2.824,2.8018,2.7777,2.7215,2.6929,2.6914,2.6443,2.6184,2.626,2.6319,2.6657,2.7226,2.7427,2.786,2.8606,2.8944,2.9262,2.9569,2.9908,3.0333,3.0775,3.0766,3.0935,3.1423,3.15,3.1654,3.2037,3.2179,3.2267,3.2354,3.2301,3.2232,3.2214,3.2197,3.2126,3.2126,3.2091,3.2108,3.2108,3.2144,3.2179,3.2179,3.2405,3.2507,3.2541,3.2657,3.277,3.2993,3.3256,3.3452,3.3549,3.3698,3.3788,3.3797,3.3815,3.3762,3.3762,3.378,3.378,3.378,3.378,3.3753,3.3753,3.3753,3.3807,3.3842,3.3939,3.3998,3.3931,3.4012,3.3784,3.3202,3.3069,3.3015,3.2633,3.2561,3.2564,2.1445,2.2167,2.2784,2.382,2.4861,2.5031,2.52,2.5432,2.55,2.5826,2.6447,2.6988,2.7073,2.6833,2.7127,2.7182,2.7012,2.736,2.7456,2.7549,2.7921,2.8262,2.8651,2.9035,2.9289,2.9415,2.9288,2.9055,2.8693,2.8526,2.8577,2.8872,2.8591,2.8581,2.8866,2.8498,2.8348,2.8411,2.8411,2.8363,2.822,2.7975,2.7837,2.7806,2.7609,2.7486,2.7533,2.7565,2.7751,2.806,2.8185,2.8388,2.8889,2.9175,2.9444,2.971,3.0092,3.0476,3.0871,3.0773,3.0952,3.1479,3.1445,3.1579,3.2037,3.2055,3.2108,3.2232,3.2214,3.2197,3.2127,3.2091,3.2073,3.2002,3.1984,3.1984,3.1984,3.2073,3.2196,3.2301,3.2558,3.269,3.2755,3.2948,3.3104,3.3238,3.3444,3.3643,3.3726,3.3868,3.3972,3.4023,3.4023,3.4023,3.3998,3.3972,3.3972,3.3972,3.3947,3.3921,3.3921,3.3921,3.3921,3.3928,3.3998,3.382,3.3315,3.3284,3.3105,3.2464,3.2228,3.2179,3.1618,3.1599,3.1571,2.1463,2.2185,2.2969,2.3831,2.4786,2.4786,2.4946,2.5115,2.5285,2.5706,2.6362,2.694,2.7195,2.7174,2.7502,2.7582,2.7388,2.7662,2.771,2.7608,2.7839,2.816,2.8484,2.883,2.9149,2.9352,2.9477,2.9364,2.9007,2.8958,2.921,2.959,2.9426,2.9291,2.9331,2.8904,2.8596,2.8427,2.8411,2.8411,2.8411,2.8411,2.8411,2.8411,2.8411,2.8348,2.8348,2.8363,2.8396,2.8477,2.8491,2.862,2.892,2.9127,2.9424,2.981,3.0189,3.0526,3.0821,3.0757,3.0895,3.1346,3.1329,3.1504,3.1875,3.1948,3.1984,3.2108,3.2108,3.2091,3.2055,3.2037,3.1965,3.1875,3.1875,3.1875,3.1894,3.202,3.2179,3.2422,3.2641,3.287,3.3011,3.3214,3.3393,3.3462,3.3643,3.3834,3.3868,3.3998,3.408,3.4124,3.4173,3.4173,3.4148,3.4124,3.4124,3.4124,3.4055,3.4049,3.4049,3.4049,3.4049,3.4074,3.4074,3.379,3.3167,3.2853,3.2312,3.1607,3.1277,3.1171,3.0696,3.0715,3.0591,2.166,2.2264,2.3319,2.4013,2.454,2.454,2.47,2.4956,2.4946,2.5285,2.5968,2.6373,2.6905,2.744,2.7939,2.8075,2.7841,2.8157,2.8142,2.7875,2.8127,2.8276,2.8171,2.856,2.8944,2.9162,2.9477,2.9623,2.9681,2.959,2.974,3.0122,2.9997,2.9763,2.9546,2.9396,2.9042,2.8535,2.8427,2.8396,2.8411,2.8411,2.8411,2.8396,2.8411,2.8348,2.825,2.8201,2.8217,2.8235,2.8238,2.8448,2.8842,2.9055,2.9456,3.0048,3.0284,3.0485,3.0658,3.0716,3.0871,3.1151,3.1291,3.1449,3.1783,3.1875,3.1894,3.193,3.1948,3.193,3.1913,3.1875,3.1837,3.1837,3.18,3.1856,3.1912,3.2073,3.2249,3.2507,3.2755,3.3028,3.3232,3.3334,3.3481,3.3633,3.3753,3.3887,3.4023,3.4074,3.4124,3.4173,3.4197,3.4216,3.4197,3.4173,3.4173,3.4154,3.4173,3.4173,3.4173,3.4148,3.4148,3.4087,3.3926,3.358,3.3019,3.2385,3.1679,3.0932,3.016,2.9824,3.0019,2.9924,2.995,2.2185,2.3057,2.358,2.41,2.4454,2.455,2.454,2.4625,2.4871,2.52,2.5622,2.6113,2.6682,2.7325,2.7965,2.8154,2.7973,2.8313,2.8396,2.8168,2.8081,2.8213,2.8625,2.8646,2.883,2.9099,2.9415,2.9651,2.9794,2.9961,3.0264,3.0615,3.0563,3.0479,3.0424,2.9776,2.9273,2.9027,2.874,2.8541,2.8556,2.8525,2.8541,2.8541,2.8348,2.8235,2.8186,2.8201,2.8201,2.8186,2.8398,2.859,2.8842,2.9287,2.9745,3.0156,3.0359,3.051,3.0692,3.0692,3.0855,3.1151,3.1274,3.1449,3.1709,3.1819,3.1856,3.1875,3.1856,3.1856,3.1856,3.1819,3.18,3.18,3.18,3.1856,3.2001,3.2144,3.2318,3.2641,3.2965,3.3214,3.3364,3.3462,3.3577,3.3671,3.3815,3.3947,3.4023,3.4099,3.4173,3.4197,3.4216,3.4216,3.4216,3.4197,3.4197,3.4197,3.4216,3.4197,3.4173,3.4173,3.4173,3.4037,3.3858,3.3007,3.2317,3.1041,3.0488,3.0116,2.936,2.9485,2.9587,2.9719,2.9825,2.2706,2.358,2.3841,2.411,2.4464,2.455,2.455,2.454,2.47,2.4946,2.5369,2.5779,2.6351,2.701,2.7592,2.8001,2.8125,2.863,2.8737,2.8533,2.8333,2.8446,2.866,2.8679,2.8828,2.9049,2.9415,2.9651,2.9761,3.0083,3.0507,3.0911,3.0917,3.1066,3.1006,3.0437,2.9981,2.9673,2.9206,2.8914,2.885,2.8745,2.8636,2.8589,2.8429,2.8284,2.8186,2.8186,2.8235,2.8284,2.8414,2.8685,2.8997,2.9499,2.9897,3.0189,3.0384,3.0526,3.0609,3.0675,3.0871,3.1112,3.1291,3.1483,3.1726,3.1746,3.1819,3.1856,3.1819,3.18,3.18,3.18,3.18,3.18,3.18,3.1856,3.2073,3.2179,3.2456,3.282,3.3183,3.3393,3.3509,3.3577,3.3671,3.3753,3.3913,3.3972,3.4023,3.4099,3.4173,3.4179,3.4216,3.4216,3.4216,3.4216,3.4216,3.4216,3.4216,3.4216,3.4197,3.4216,3.4136,3.4024,3.3382,3.2421,3.1254,2.995,2.9421,2.9211,2.9262,2.9405,2.951,2.9626,2.9737,2.3319,2.3764,2.412,2.4206,2.4454,2.4454,2.4464,2.4454,2.4454,2.4615,2.4946,2.5369,2.5863,2.6528,2.7033,2.7568,2.8176,2.8863,2.9083,2.895,2.9037,2.8869,2.8608,2.8822,2.8878,2.8894,2.9352,2.9602,2.9665,2.9913,3.0326,3.0777,3.1218,3.1291,3.1174,3.1167,3.0966,3.0412,2.9917,2.9562,2.94,2.9119,2.8841,2.8698,2.8652,2.8477,2.8235,2.8235,2.8284,2.8396,2.8444,2.8701,2.9223,2.9613,2.9897,3.0189,3.0401,3.0468,3.0551,3.0773,3.0952,3.1072,3.1308,3.1521,3.1617,3.1746,3.18,3.1783,3.18,3.18,3.18,3.18,3.18,3.18,3.18,3.191,3.2073,3.2232,3.2521,3.2993,3.3316,3.352,3.3605,3.3661,3.3726,3.3815,3.3895,3.3947,3.4049,3.4099,3.4148,3.4173,3.4197,3.4216,3.4216,3.4216,3.4216,3.4216,3.4216,3.4216,3.4197,3.4197,3.4148,3.3975,3.305,3.2053,3.0599,2.942,2.9265,2.9112,2.9218,2.9304,2.9411,2.9512,2.9645,2.3154,2.359,2.3677,2.3851,2.4024,2.4013,2.4024,2.4013,2.4013,2.4272,2.4615,2.4956,2.5454,2.6135,2.6727,2.729,2.7765,2.8474,2.8942,2.9133,2.9101,2.9208,2.9425,2.9125,2.9038,2.9182,2.9415,2.954,2.9602,2.9775,3.0083,3.0478,3.0896,3.1232,3.1377,3.1317,3.1098,3.0952,3.0649,3.0394,3.0332,2.9986,2.9689,2.9531,2.906,2.8748,2.8636,2.8525,2.8477,2.8556,2.8653,2.8997,2.9483,2.9826,3.0044,3.0316,3.0526,3.0651,3.0692,3.0912,3.1112,3.119,3.15,3.1634,3.1617,3.178,3.1834,3.18,3.18,3.18,3.18,3.18,3.18,3.18,3.18,3.1856,3.2108,3.2438,3.2802,3.3055,3.3345,3.3538,3.3605,3.3643,3.3753,3.3815,3.3868,3.3902,3.3972,3.4049,3.408,3.4105,3.4173,3.4216,3.4216,3.4216,3.4216,3.4216,3.4216,3.4216,3.4197,3.4154,3.4105,3.35,3.2594,3.147,2.9995,2.9274,2.9095,2.9067,2.9134,2.9203,2.9312,2.9414,2.9551,2.3232,2.3493,2.359,2.3677,2.3841,2.3841,2.3841,2.3841,2.3841,2.4013,2.4368,2.4615,2.5115,2.5801,2.6385,2.6962,2.7522,2.8018,2.8578,2.916,2.9185,2.929,2.9567,2.9157,2.9107,2.9444,2.9449,2.9477,2.9602,2.9713,2.9946,3.0312,3.0732,3.1131,3.1465,3.1556,3.1549,3.1527,3.1279,3.1078,3.1041,3.0775,3.0511,3.0399,3.0101,2.9785,2.9501,2.9391,2.9171,2.892,2.9029,2.938,2.971,2.993,3.0162,3.0375,3.0526,3.0651,3.0692,3.0912,3.1151,3.1252,3.1538,3.1688,3.1671,3.1834,3.1834,3.18,3.18,3.18,3.18,3.18,3.18,3.18,3.18,3.1893,3.2179,3.2606,3.2898,3.3117,3.3375,3.352,3.3605,3.3698,3.3753,3.3788,3.3815,3.3868,3.3913,3.3998,3.4049,3.408,3.4173,3.4197,3.4216,3.4216,3.4216,3.4216,3.4216,3.4216,3.4197,3.4111,3.4025,3.2742,3.171,3.0778,2.9439,2.9177,2.8998,2.9044,2.9067,2.9138,2.9246,2.9312,2.9414,2.3503,2.3503,2.3677,2.3754,2.3754,2.3754,2.3667,2.3754,2.3754,2.3841,2.411,2.4368,2.4871,2.5443,2.603,2.6693,2.7441,2.7788,2.8271,2.8724,2.9086,2.9262,2.9049,2.906,2.9267,2.9531,2.9508,2.9498,2.9554,2.9602,2.9837,3.0251,3.0628,3.1029,3.1422,3.1951,3.2059,3.2007,3.1751,3.1634,3.1641,3.1432,3.127,3.1272,3.1341,3.1166,3.0671,3.051,3.0082,2.934,2.9457,2.971,2.987,3.006,3.029,3.0401,3.0485,3.0609,3.0733,3.0895,3.1072,3.1312,3.1462,3.1576,3.1763,3.18,3.1854,3.18,3.18,3.18,3.18,3.1837,3.1837,3.1837,3.1873,3.2001,3.2283,3.2672,3.293,3.3117,3.3386,3.3605,3.3605,3.3726,3.378,3.3788,3.3807,3.3834,3.3887,3.3947,3.4023,3.4074,3.4148,3.4197,3.4216,3.4216,3.4216,3.4216,3.4197,3.4197,3.4043,3.3901,3.3457,3.2158,3.0998,3.0013,2.9365,2.9127,2.8975,2.8998,2.9044,2.9112,2.9178,2.9206,2.9291,2.3232,2.3232,2.3232,2.3319,2.3309,2.3309,2.3309,2.3309,2.3319,2.3503,2.3764,2.411,2.4529,2.5115,2.5863,2.6528,2.7044,2.7626,2.803,2.8419,2.8803,2.9056,2.9176,2.9533,2.9605,2.9363,2.9477,2.9541,2.9443,2.954,2.9803,3.0172,3.0522,3.0866,3.1234,3.1712,3.1883,3.194,3.2164,3.2214,3.2268,3.2055,3.2048,3.2135,3.1951,3.171,3.1452,3.1108,3.0545,2.9665,2.9758,2.9978,3.0103,3.0254,3.0375,3.0443,3.0551,3.0692,3.0871,3.0992,3.119,3.1423,3.1576,3.1746,3.1783,3.1856,3.1856,3.1819,3.18,3.18,3.1783,3.1839,3.1912,3.2001,3.2073,3.2214,3.2472,3.2787,3.3042,3.3244,3.3462,3.3577,3.3615,3.368,3.3807,3.3807,3.3807,3.3807,3.386,3.3947,3.4023,3.403,3.408,3.4173,3.4216,3.4216,3.4216,3.4216,3.4197,3.416,3.3852,3.3488,3.2742,3.1679,3.0698,2.9714,2.931,2.8994,2.8975,2.8975,2.8998,2.9067,2.9089,2.9138,2.92,2.3144,2.3144,2.3144,2.3144,2.3144,2.3144,2.3144,2.3144,2.3144,2.3232,2.3503,2.3851,2.4282,2.4786,2.5527,2.6196,2.6798,2.7452,2.7857,2.8259,2.8736,2.9114,2.9441,2.9825,2.9771,2.9413,2.9577,2.96,2.9449,2.954,2.9803,3.0111,3.0341,3.0702,3.1132,3.1482,3.1712,3.1841,3.215,3.2382,3.254,3.2582,3.2776,3.2886,3.2737,3.2627,3.2384,3.1936,3.1283,3.0551,3.0261,3.0195,3.0293,3.0382,3.0443,3.0526,3.0568,3.0708,3.0871,3.1032,3.1173,3.1368,3.1576,3.1688,3.1709,3.1802,3.1819,3.1783,3.18,3.1819,3.1856,3.1948,3.2073,3.2232,3.2335,3.2454,3.2606,3.2834,3.3073,3.3304,3.3481,3.3633,3.3633,3.3734,3.378,3.3807,3.3807,3.3807,3.3834,3.3921,3.3998,3.403,3.4099,3.4173,3.4216,3.4216,3.4197,3.4197,3.4148,3.4111,3.3395,3.2878,3.1986,3.1097,3.0246,2.9604,2.9232,2.8975,2.8975,2.8975,2.8975,2.8998,2.9044,2.9067,2.9152,2.3144,2.3144,2.3144,2.3144,2.3144,2.3144,2.3144,2.3144,2.3144,2.3232,2.3503,2.3667,2.4024,2.454,2.52,2.5863,2.6528,2.7196,2.7765,2.8247,2.8816,2.925,2.9576,2.9894,2.9881,2.9737,2.9781,2.9635,2.9517,2.9589,2.9741,2.9988,3.0205,3.0582,3.0999,3.1336,3.1582,3.1784,3.1996,3.2247,3.2492,3.2756,3.3045,3.3395,3.3671,3.3615,3.329,3.2872,3.229,3.1609,3.0985,3.0747,3.0665,3.06,3.0534,3.0485,3.051,3.0609,3.0831,3.0871,3.1015,3.1235,3.1423,3.15,3.1634,3.1746,3.18,3.18,3.18,3.1856,3.1965,3.2108,3.2267,3.2405,3.2573,3.2654,3.2687,3.2866,3.3122,3.3364,3.3538,3.3633,3.3698,3.3734,3.3807,3.3807,3.3807,3.3807,3.3834,3.3921,3.3972,3.4023,3.4099,3.4216,3.4216,3.4216,3.4197,3.4173,3.4124,3.3852,3.2742,3.2041,3.1213,3.0406,2.9795,2.9368,2.908,2.8952,2.8975,2.8975,2.8975,2.8975,2.8998,2.9062,2.9108,2.3144,2.3144,2.3144,2.3144,2.3144,2.3144,2.3057,2.3057,2.3047,2.3144,2.3232,2.3406,2.3851,2.4292,2.4946,2.5611,2.6279,2.7103,2.7846,2.8431,2.8895,2.9131,2.9431,2.9872,3.0154,3.002,3.01,2.9983,2.9714,2.9575,2.9665,2.9727,3.0158,3.0507,3.0807,3.1176,3.1409,3.1597,3.1784,3.2053,3.2302,3.2563,3.2958,3.3398,3.3797,3.4136,3.4234,3.3705,3.3354,3.3102,3.2585,3.1951,3.149,3.1381,3.1172,3.0749,3.0551,3.0601,3.0708,3.0807,3.0895,3.1173,3.1274,3.1428,3.1579,3.1709,3.18,3.18,3.18,3.1873,3.2037,3.2232,3.2371,3.2507,3.2722,3.2866,3.2948,3.3091,3.3274,3.3452,3.3549,3.3615,3.3698,3.3753,3.3807,3.3807,3.3807,3.3807,3.386,3.3921,3.3972,3.3998,3.4099,3.4197,3.4216,3.4216,3.4173,3.4018,3.3907,3.3425,3.2311,3.1446,3.0729,3.0076,2.9442,2.9137,2.8923,2.8929,2.8952,2.8975,2.8975,2.8975,2.8998,2.904,2.9062,2.3047,2.2979,2.2969,2.2872,2.2794,2.2784,2.2784,2.2794,2.2784,2.2784,2.2872,2.3144,2.3493,2.3927,2.469,2.5369,2.603,2.694,2.7684,2.8259,2.8657,2.8816,2.9118,2.9704,3.0086,3.0124,3.0161,2.9998,2.972,2.9572,2.954,2.9602,3.0021,3.0341,3.0702,3.1058,3.1249,3.1424,3.167,3.1883,3.2094,3.2398,3.278,3.3293,3.3797,3.4201,3.4317,3.4249,3.4131,3.411,3.3889,3.3193,3.2326,3.2116,3.1874,3.1616,3.112,3.1073,3.1166,3.085,3.0749,3.1049,3.1173,3.1312,3.1466,3.1617,3.1746,3.18,3.18,3.1856,3.2073,3.2335,3.2489,3.259,3.2802,3.2993,3.3073,3.3183,3.3352,3.3481,3.3567,3.3633,3.3698,3.3753,3.3807,3.3807,3.3807,3.3807,3.3834,3.3913,3.3972,3.4023,3.4124,3.4197,3.4197,3.4197,3.4173,3.3901,3.3568,3.284,3.1813,3.1078,3.0374,2.971,2.9065,2.9016,2.8881,2.8905,2.8929,2.897,2.8994,2.8975,2.9017,2.9017,2.9062,2.2882,2.2706,2.2706,2.2618,2.2432,2.2441,2.2432,2.2441,2.2441,2.2432,2.253,2.2882,2.3232,2.358,2.4358,2.5041,2.5863,2.6693,2.7603,2.8099,2.8339,2.8578,2.8882,2.9406,2.9948,3.0069,3.0148,3.005,2.9873,2.9633,2.9596,2.9582,2.9927,3.0219,3.0582,3.0881,3.119,3.1351,3.1597,3.1784,3.1996,3.2247,3.2687,3.3293,3.3642,3.4,3.4201,3.4366,3.4593,3.4691,3.4835,3.4192,3.3433,3.2871,3.2767,3.2681,3.1957,3.1748,3.1653,3.1231,3.0842,3.0998,3.1089,3.1213,3.1295,3.1504,3.1671,3.1783,3.1819,3.1929,3.2108,3.237,3.2555,3.2705,3.293,3.3086,3.3135,3.3262,3.3382,3.3481,3.3549,3.3615,3.3698,3.3753,3.378,3.3807,3.3807,3.3807,3.386,3.3913,3.3972,3.4049,3.4124,3.4197,3.4216,3.4197,3.4173,3.3809,3.3401,3.2471,3.1476,3.0796,3.01,2.9296,2.8779,2.8767,2.881,2.8834,2.8881,2.897,2.8994,2.8952,2.8975,2.9017,2.9062,2.252,2.2441,2.2441,2.2432,2.2441,2.2441,2.2353,2.2441,2.2344,2.2441,2.2441,2.2706,2.2969,2.3309,2.3937,2.5031,2.6019,2.6857,2.7441,2.7869,2.8111,2.8327,2.8657,2.9131,2.9731,3.025,3.0361,3.0365,3.0242,3.011,2.9656,2.9386,2.9789,3.0158,3.0462,3.0821,3.1132,3.1292,3.1482,3.167,3.1826,3.215,3.2523,3.3134,3.3398,3.3694,3.405,3.425,3.4448,3.4707,3.4851,3.4703,3.4339,3.3889,3.3429,3.2958,3.2566,3.2335,3.2326,3.172,3.1417,3.1406,3.1357,3.1269,3.1414,3.1589,3.1857,3.1869,3.1981,3.2073,3.2179,3.2438,3.2672,3.2834,3.3011,3.3165,3.3244,3.3322,3.3411,3.3491,3.353,3.3615,3.3671,3.3753,3.378,3.3807,3.3807,3.3807,3.3834,3.3913,3.3998,3.4049,3.4124,3.4173,3.4216,3.4197,3.4117,3.374,3.3222,3.2312,3.144,3.0638,2.9868,2.9077,2.8694,2.8712,2.8737,2.8785,2.8834,2.8881,2.8905,2.8929,2.8952,2.8994,2.9062,2.2353,2.2264,2.2274,2.2176,2.2087,2.1998,2.1998,2.2008,2.2087,2.1998,2.2087,2.2353,2.2627,2.3057,2.359,2.4605,2.5863,2.6622,2.7126,2.7534,2.7777,2.8018,2.8339,2.8803,2.9341,2.9961,3.031,3.0408,3.0198,2.9888,2.9577,2.9351,2.9651,3.0021,3.028,3.0776,3.1073,3.1249,3.1424,3.1539,3.1655,3.1966,3.2468,3.2742,3.3134,3.345,3.3745,3.4101,3.43,3.4546,3.4756,3.4851,3.4783,3.4584,3.422,3.3796,3.3307,3.3014,3.2915,3.2389,3.1994,3.2062,3.2017,3.221,3.2347,3.2582,3.2561,3.2461,3.2123,3.2144,3.2319,3.2594,3.2755,3.2884,3.3127,3.3286,3.3328,3.3388,3.3495,3.3564,3.3577,3.3633,3.3661,3.3716,3.378,3.3807,3.3807,3.3807,3.3807,3.3913,3.3998,3.4074,3.4124,3.4173,3.4141,3.4048,3.3918,3.3555,3.2821,3.1954,3.1114,3.0228,2.9558,2.887,2.8712,2.8662,2.8712,2.8761,2.881,2.8834,2.8834,2.8858,2.8929,2.8975,2.9044,2.2176,2.2008,2.1998,2.1919,2.1741,2.1731,2.1741,2.1731,2.1731,2.1741,2.1731,2.2008,2.2362,2.2715,2.3406,2.4262,2.5454,2.6207,2.6704,2.7115,2.736,2.7696,2.8099,2.8419,2.8882,2.9626,3.0063,3.0212,3.0014,2.9808,2.9452,2.9228,2.9512,2.9837,3.0158,3.0642,3.0955,3.119,3.1307,3.1467,3.164,3.1925,3.2231,3.2453,3.2973,3.3309,3.3591,3.3915,3.4201,3.4448,3.4643,3.4739,3.4899,3.4899,3.4899,3.4752,3.4067,3.3789,3.3559,3.3067,3.261,3.2669,3.2912,3.3151,3.3322,3.339,3.3562,3.3294,3.303,3.2826,3.316,3.3241,3.344,3.3619,3.3813,3.3846,3.393,3.3973,3.3887,3.3837,3.3723,3.3651,3.3661,3.3744,3.3807,3.3807,3.3807,3.3807,3.3834,3.3939,3.4023,3.4074,3.4124,3.4173,3.4086,3.3826,3.3621,3.3268,3.2312,3.1283,3.0503,2.9682,2.9137,2.8743,2.8644,2.8612,2.8669,2.8669,2.8662,2.8687,2.8737,2.8785,2.8858,2.8952,2.9021,2.1741,2.1731,2.1731,2.1741,2.1731,2.1731,2.1731,2.1731,2.1731,2.1731,2.1651,2.1919,2.2097,2.2451,2.3319,2.4262,2.52,2.5957,2.6539,2.688,2.7126,2.7545,2.7881,2.8111,2.8657,2.9341,2.9677,2.9715,2.9652,2.9883,2.9592,2.9067,2.9331,2.9727,2.9884,3.0447,3.0836,3.1073,3.1234,3.1482,3.1712,3.194,3.2206,3.2508,3.2796,3.3203,3.3539,3.3864,3.4101,3.4448,3.4594,3.4739,3.4883,3.4899,3.4899,3.4851,3.4625,3.4349,3.4218,3.3661,3.3285,3.3264,3.3333,3.3242,3.3668,3.3949,3.4111,3.4129,3.4022,3.4142,3.4323,3.4762,3.507,3.5076,3.5042,3.524,3.5302,3.4388,3.4309,3.4149,3.4016,3.3817,3.3716,3.3771,3.3807,3.3807,3.3807,3.3807,3.3834,3.3921,3.4049,3.4124,3.4148,3.4216,3.3993,3.3751,3.3213,3.2897,3.1853,3.0735,3.0046,2.943,2.9088,2.8743,2.8644,2.8518,2.8518,2.8536,2.851,2.8536,2.8587,2.8687,2.8785,2.8881,2.8952,2.1731,2.1731,2.1731,2.1731,2.1731,2.1731,2.1731,2.1731,2.1731,2.1651,2.1562,2.1651,2.1839,2.2274,2.3319,2.4176,2.4935,2.5779,2.6362,2.6715,2.7056,2.7383,2.7615,2.795,2.8431,2.8895,2.9291,2.9454,2.9473,2.9539,2.9331,2.9184,2.9215,2.9526,2.9761,3.0326,3.0702,3.094,3.1176,3.1424,3.1655,3.1883,3.215,3.2413,3.2703,3.315,3.3503,3.371,3.405,3.4399,3.4594,3.4691,3.4851,3.4899,3.4899,3.4787,3.4594,3.448,3.4415,3.4153,3.3973,3.4037,3.415,3.4583,3.4763,3.4734,3.4777,3.4936,3.4655,3.4723,3.5066,3.5257,3.5477,3.5678,3.6005,3.5996,3.5908,3.5187,3.4652,3.4473,3.4274,3.4009,3.3799,3.378,3.3807,3.3807,3.3807,3.3807,3.386,3.3921,3.4049,3.4154,3.4197,3.4216,3.3918,3.3621,3.2804,3.2284,3.1485,3.0476,2.9773,2.9232,2.8965,2.8737,2.8587,2.8484,2.8432,2.8406,2.8432,2.8432,2.8476,2.8562,2.8662,2.8712,2.8834,2.1731,2.1731,2.1731,2.1731,2.1731,2.1731,2.1651,2.1651,2.1651,2.1472,2.1392,2.1392,2.166,2.2185,2.3144,2.3917,2.4584,2.5611,2.6207,2.6633,2.6974,2.729,2.7534,2.7788,2.8191,2.859,2.9118,2.9414,2.9553,2.937,2.9368,2.9242,2.922,2.9329,2.9679,3.0083,3.0447,3.0821,3.1176,3.1351,3.1524,3.1811,3.2094,3.2373,3.2648,3.3096,3.3466,3.3623,3.3965,3.43,3.4464,3.461,3.4739,3.4804,3.4756,3.4643,3.4497,3.4448,3.4448,3.4382,3.4399,3.4562,3.493,3.5268,3.5657,3.5582,3.5555,3.5774,3.551,3.5445,3.5616,3.5952,3.6249,3.6471,3.658,3.6513,3.6357,3.5836,3.5415,3.5227,3.4871,3.4138,3.3945,3.3862,3.3807,3.3807,3.3807,3.3807,3.3868,3.3947,3.4049,3.4154,3.416,3.403,3.3566,3.3157,3.2414,3.1689,3.0891,3.0234,2.9533,2.9177,2.8942,2.8737,2.8536,2.8406,2.8327,2.8327,2.8353,2.8371,2.8371,2.8432,2.851,2.8525,2.8664,2.1731,2.1731,2.1731,2.1731,2.1731,2.1731,2.1562,2.1482,2.1392,2.1293,2.1096,2.1293,2.1651,2.2176,2.2882,2.3734,2.4594,2.5464,2.6146,2.6644,2.6974,2.729,2.7534,2.7869,2.8191,2.8736,2.9118,2.9626,3.0012,2.9789,2.9301,2.8873,2.9174,2.9231,2.9442,2.9822,3.0312,3.0702,3.1058,3.1292,3.1409,3.1754,3.2079,3.2342,3.2703,3.3096,3.345,3.3587,3.3845,3.4151,3.4366,3.4513,3.4594,3.4659,3.4643,3.448,3.4399,3.4349,3.43,3.4349,3.4349,3.448,3.4913,3.5487,3.58,3.6131,3.6298,3.6435,3.6207,3.6531,3.6927,3.7399,3.7254,3.7318,3.7359,3.7493,3.7267,3.6796,3.6376,3.6083,3.534,3.4357,3.3963,3.3844,3.3807,3.3807,3.3807,3.3815,3.3921,3.3998,3.4074,3.413,3.4123,3.3807,3.312,3.247,3.1689,3.1058,3.0373,2.9845,2.9333,2.9067,2.8923,2.8687,2.8528,2.8371,2.8264,2.8264,2.8264,2.8237,2.8246,2.8255,2.816,2.8069,2.8312,2.1731,2.1731,2.1731,2.1731,2.1731,2.1571,2.1482,2.1392,2.1203,2.1006,2.0826,2.1096,2.1374,2.1998,2.2784,2.3647,2.4584,2.5464,2.6135,2.6561,2.6974,2.729,2.7534,2.7857,2.8271,2.8736,2.9221,2.9689,3.0088,3.0175,2.9762,2.9421,2.924,2.9195,2.9342,2.9699,3.0251,3.0568,3.0881,3.1058,3.1336,3.1567,3.1894,3.2231,3.2547,3.2958,3.3293,3.3503,3.3761,3.3984,3.4168,3.4333,3.4448,3.4546,3.4497,3.4382,3.43,3.425,3.4201,3.425,3.4399,3.4691,3.5041,3.5367,3.5728,3.6079,3.6335,3.6544,3.6725,3.697,3.7261,3.7468,3.7614,3.7897,3.8086,3.8204,3.7958,3.733,3.6711,3.6164,3.5128,3.4045,3.3899,3.3825,3.3807,3.3807,3.3834,3.3842,3.3921,3.3943,3.4,3.3864,3.3759,3.3398,3.2711,3.1875,3.1002,3.0408,2.9872,2.9545,2.9222,2.9089,2.8905,2.8687,2.8502,2.8371,2.8264,2.8209,2.8156,2.8049,2.8022,2.8058,2.7875,2.7604,2.7734,2.1731,2.1731,2.1731,2.1651,2.1571,2.1482,2.1302,2.1212,2.1006,2.0826,2.0654,2.0916,2.1275,2.1811,2.2696,2.3647,2.4584,2.5464,2.6063,2.6561,2.6974,2.729,2.7615,2.7938,2.8419,2.8749,2.9378,2.9934,3.0318,3.0546,3.0034,2.9489,2.9273,2.9187,2.9018,2.9637,3.0205,3.0447,3.0702,3.0895,3.1161,3.1379,3.161,3.2064,3.2342,3.2656,3.3049,3.3245,3.3507,3.3729,3.3949,3.4101,3.425,3.4349,3.4316,3.43,3.425,3.4201,3.4151,3.4201,3.4399,3.4659,3.4947,3.5321,3.5684,3.6036,3.631,3.6502,3.6667,3.6908,3.722,3.741,3.7577,3.7774,3.7984,3.8101,3.7874,3.7376,3.6754,3.6095,3.5062,3.4174,3.3862,3.3807,3.3807,3.3807,3.3807,3.386,3.3913,3.3899,3.3795,3.3568,3.3284,3.2813,3.2242,3.1385,3.0627,3.0095,2.9628,2.9474,2.92,2.9067,2.8929,2.8694,2.8536,2.8353,2.8166,2.7933,2.7835,2.7781,2.7558,2.7199,2.7122,2.6832,2.6809,2.1731,2.1731,2.1731,2.1562,2.1392,2.1401,2.1122,2.0843,2.0744,2.0564,2.0382,2.0817,2.1275,2.182,2.2706,2.3647,2.4498,2.5464,2.6146,2.6633,2.6974,2.7301,2.7615,2.8087,2.8566,2.9143,2.9689,3.0241,3.0622,3.0698,3.0173,2.9497,2.9188,2.8985,2.8498,2.9198,2.9837,3.0251,3.0507,3.0687,3.094,3.1322,3.1644,3.1781,3.2328,3.2638,3.2726,3.2949,3.3214,3.3435,3.3658,3.3813,3.4,3.4101,3.4101,3.4151,3.4101,3.4101,3.4101,3.4101,3.43,3.4594,3.4883,3.5274,3.5639,3.5949,3.631,3.6502,3.6643,3.6806,3.7027,3.7259,3.7484,3.7649,3.7898,3.7819,3.7594,3.7112,3.6388,3.5707,3.517,3.4595,3.4128,3.3807,3.3807,3.3807,3.3807,3.386,3.3913,3.3618,3.3423,3.3075,3.268,3.1982,3.1395,3.0876,3.025,2.9718,2.9442,2.9344,2.92,2.9089,2.891,2.8718,2.8507,2.8352,2.795,2.7549,2.7137,2.668,2.6358,2.6068,2.6075,2.6013,2.5881,2.1731,2.1731,2.1731,2.1463,2.1186,2.1096,2.0916,2.0744,2.0473,2.0382,2.0382,2.0817,2.1275,2.1909,2.2696,2.356,2.4498,2.5464,2.6146,2.6644,2.6985,2.7383,2.7777,2.8327,2.8803,2.9353,2.9998,3.0394,3.0698,3.0709,3.0233,2.9542,2.8913,2.8559,2.8668,2.9212,2.9775,2.9946,3.0251,3.0507,3.082,3.1442,3.1752,3.1657,3.2406,3.266,3.253,3.2726,3.2949,3.3224,3.3398,3.3591,3.3797,3.3949,3.4,3.405,3.4101,3.4101,3.4151,3.4201,3.43,3.4529,3.4883,3.5274,3.5577,3.5949,3.6251,3.6461,3.6643,3.6806,3.7062,3.7238,3.7427,3.7612,3.7703,3.7466,3.7154,3.6476,3.5805,3.5126,3.4556,3.4311,3.3908,3.3807,3.3807,3.378,3.378,3.3807,3.3887,3.3227,3.2823,3.2428,3.1985,3.1214,3.0572,3.0142,2.995,2.9588,2.9384,2.9344,2.9218,2.9067,2.8929,2.8718,2.8496,2.8278,2.7536,2.6785,2.5949,2.5416,2.5296,2.5265,2.5334,2.5089,2.4709,2.1731,2.1651,2.1651,2.1374,2.0997,2.0997,2.0826,2.0564,2.0382,2.0292,2.0374,2.0826,2.1186,2.1811,2.2608,2.356,2.4413,2.5464,2.6157,2.6644,2.7067,2.7476,2.795,2.8498,2.9028,2.9574,3.0216,3.0698,3.081,3.0703,3.0019,2.9171,2.8585,2.8568,2.8766,2.9198,2.9651,2.9884,3.0266,3.0652,3.1141,3.1661,3.2094,3.2273,3.2583,3.2798,3.2629,3.2631,3.2718,3.3049,3.3208,3.3387,3.3678,3.3848,3.3915,3.405,3.4101,3.4101,3.4151,3.425,3.4399,3.4643,3.4977,3.5321,3.5667,3.6019,3.6335,3.6561,3.6684,3.6886,3.7083,3.7259,3.741,3.7612,3.765,3.7415,3.6816,3.614,3.5538,3.4841,3.4227,3.3945,3.378,3.3807,3.3807,3.3753,3.3726,3.378,3.3715,3.2965,3.2271,3.1861,3.1311,3.0502,2.9936,2.9576,2.9403,2.9363,2.9326,2.9304,2.92,2.9067,2.8929,2.8725,2.8504,2.7998,2.6891,2.6003,2.5311,2.4834,2.4625,2.461,2.4653,2.4468,2.4169,2.1731,2.1642,2.1472,2.1293,2.0997,2.0907,2.0645,2.0292,2.0292,2.0292,2.0292,2.0817,2.1186,2.1562,2.2618,2.3474,2.4327,2.538,2.6063,2.6561,2.6985,2.7476,2.803,2.8578,2.9184,2.9806,3.0355,3.0836,3.0908,3.0359,2.9652,2.9021,2.869,2.8719,2.8944,2.9324,2.9713,3.0036,3.0405,3.0928,3.1553,3.2102,3.2581,3.2899,3.3111,3.3063,3.2871,3.2686,3.2686,3.2834,3.2955,3.3235,3.3527,3.3694,3.3899,3.4,3.4101,3.4101,3.4134,3.4284,3.4546,3.4899,3.5182,3.552,3.5817,3.6148,3.6461,3.6708,3.6869,3.7009,3.7164,3.7299,3.7411,3.7631,3.7757,3.7325,3.6656,3.6031,3.5411,3.4768,3.4089,3.3771,3.3798,3.3807,3.3807,3.3753,3.3726,3.3671,3.346,3.2557,3.1864,3.1334,3.0673,2.9795,2.935,2.915,2.9185,2.924,2.9262,2.924,2.9134,2.9044,2.8887,2.8707,2.8474,2.7723,2.6369,2.5434,2.4795,2.4421,2.4301,2.4285,2.4415,2.4424,2.4247,2.1482,2.1482,2.1392,2.1203,2.0736,2.0374,2.011,2.0019,2.0201,2.0292,2.0292,2.0817,2.1096,2.1482,2.2608,2.3474,2.4423,2.5285,2.6052,2.6561,2.7056,2.7545,2.8099,2.8724,2.9341,2.9973,3.052,3.0872,3.0712,3.0144,2.9548,2.912,2.8845,2.9013,2.9338,2.9713,2.9913,3.0225,3.0668,3.1322,3.2065,3.2765,3.3217,3.3449,3.3815,3.3653,3.3105,3.2951,3.2909,3.2858,3.2886,3.3171,3.3626,3.3713,3.385,3.405,3.4201,3.425,3.4284,3.4546,3.4851,3.5182,3.5549,3.5783,3.6088,3.636,3.6708,3.6891,3.7087,3.7223,3.7374,3.754,3.7631,3.7757,3.7773,3.7286,3.6615,3.5937,3.5296,3.4379,3.3734,3.3799,3.3825,3.3807,3.3807,3.3753,3.3744,3.3661,3.3267,3.2383,3.1601,3.1093,3.0239,2.9421,2.9162,2.8965,2.9058,2.913,2.9152,2.9152,2.9062,2.8952,2.8858,2.8433,2.781,2.6825,2.5633,2.4914,2.4392,2.4328,2.4223,2.4188,2.4152,2.4266,2.434,2.1293,2.1203,2.1024,2.0564,2.0011,1.9845,1.9662,1.9563,1.9928,2.0201,2.0382,2.0826,2.1096,2.1365,2.252,2.3484,2.4145,2.5285,2.6146,2.6644,2.7138,2.7615,2.8247,2.887,2.9496,3.0139,3.0558,3.0843,3.0498,2.9879,2.9226,2.9023,2.8977,2.9394,2.9727,3.0036,3.0219,3.0632,3.1087,3.1722,3.2522,3.3465,3.3828,3.4226,3.4673,3.4076,3.3438,3.3318,3.3119,3.2905,3.2886,3.3171,3.361,3.3815,3.3951,3.4201,3.43,3.4382,3.4529,3.4851,3.5135,3.5458,3.58,3.6156,3.6468,3.6731,3.697,3.7147,3.7299,3.7449,3.7613,3.781,3.7863,3.7915,3.7623,3.7313,3.6638,3.5924,3.5011,3.3998,3.3698,3.3798,3.3807,3.3807,3.3807,3.3753,3.3698,3.3633,3.3239,3.2508,3.1663,3.0984,3.0044,2.914,2.8978,2.884,2.8905,2.8975,2.9021,2.8998,2.897,2.8772,2.8567,2.7773,2.6877,2.5968,2.5175,2.4636,2.4185,2.419,2.4247,2.4266,2.4303,2.4376,2.4447,2.0907,2.0907,2.0464,1.9745,1.892,1.9296,1.9304,1.892,1.9563,2.0019,2.0283,2.0817,2.0997,2.1365,2.252,2.3387,2.4155,2.5285,2.6146,2.6644,2.7196,2.7753,2.8327,2.904,2.9651,3.0126,3.0416,3.0424,2.9928,2.9502,2.912,2.8908,2.9338,2.9727,3.0097,3.028,3.0522,3.0819,3.1465,3.2144,3.2978,3.3784,3.4565,3.516,3.4928,3.4393,3.3879,3.3502,3.3095,3.2967,3.2971,3.3187,3.3578,3.3933,3.4151,3.4349,3.4497,3.4643,3.4835,3.5135,3.5412,3.5711,3.5958,3.6409,3.6753,3.697,3.7164,3.7429,3.7613,3.7739,3.7898,3.8002,3.807,3.7959,3.7736,3.7102,3.63,3.5557,3.4645,3.3881,3.3753,3.3807,3.3807,3.3807,3.3807,3.378,3.3698,3.3633,3.3302,3.2651,3.1939,3.1142,3.0034,2.9224,2.8935,2.8822,2.8755,2.8791,2.8839,2.8839,2.8785,2.8518,2.824,2.7167,2.6081,2.5619,2.4949,2.4461,2.419,2.4247,2.4321,2.4411,2.4446,2.45,2.4534,2.0192,2.011,1.9853,1.9387,1.8827,1.892,1.892,1.8827,1.9188,1.9654,2.0102,2.0645,2.1096,2.1472,2.252,2.3387,2.4241,2.5285,2.6052,2.6633,2.7196,2.7846,2.8407,2.9106,2.9716,3.0139,3.0268,2.9882,2.9359,2.9187,2.9184,2.9091,2.9526,3.0021,3.0401,3.0582,3.0776,3.1058,3.1663,3.2374,3.3087,3.3847,3.455,3.5026,3.4961,3.4408,3.3909,3.3432,3.3131,3.2952,3.2902,3.3171,3.3681,3.4018,3.43,3.4497,3.4739,3.4994,3.5182,3.5458,3.5711,3.6002,3.6284,3.6713,3.7048,3.7182,3.741,3.7667,3.7881,3.8036,3.8138,3.8204,3.8219,3.8034,3.779,3.6898,3.6006,3.5111,3.4265,3.4028,3.3817,3.3807,3.3807,3.3807,3.3807,3.3753,3.3671,3.3577,3.3462,3.302,3.2451,3.1583,3.0255,2.9466,2.9089,2.873,2.8616,2.8619,2.8662,2.8644,2.8583,2.8003,2.7411,2.6318,2.5342,2.5006,2.4719,2.4411,2.4229,2.4321,2.4393,2.4464,2.4532,2.4566,2.4617,1.9563,1.9563,1.9196,1.8827,1.8365,1.8458,1.8458,1.855,1.9004,1.9379,1.9837,2.0555,2.1195,2.1571,2.2618,2.3484,2.4337,2.538,2.6063,2.6633,2.729,2.7938,2.8566,2.9147,2.9567,2.992,2.9647,2.924,2.889,2.9064,2.9206,2.9429,2.9822,3.0251,3.0642,3.0762,3.094,3.122,3.1679,3.2213,3.2958,3.3779,3.4181,3.461,3.4585,3.4151,3.3712,3.3264,3.3106,3.3068,3.3108,3.3375,3.3783,3.4118,3.4448,3.4739,3.5041,3.5321,3.5549,3.5773,3.6019,3.6259,3.6591,3.697,3.7281,3.7449,3.7703,3.7949,3.807,3.8204,3.8318,3.8382,3.8368,3.8273,3.771,3.6918,3.5784,3.4659,3.4119,3.3908,3.3807,3.3807,3.3807,3.3807,3.3807,3.378,3.3671,3.3587,3.3491,3.3286,3.278,3.2089,3.0755,2.9679,2.9134,2.8746,2.8442,2.8458,2.8484,2.8229,2.7965,2.7284,2.6517,2.5608,2.4949,2.4647,2.4375,2.4266,2.4321,2.4411,2.4464,2.4532,2.4582,2.4631,2.4682,1.9004,1.9004,1.8635,1.8179,1.7815,1.8001,1.8179,1.8272,1.892,1.9379,1.9762,2.0645,2.1105,2.1741,2.253,2.3484,2.4433,2.5391,2.6063,2.6727,2.7476,2.803,2.8609,2.9139,2.9315,2.9297,2.8987,2.8995,2.8919,2.9043,2.9323,2.9775,3.019,3.0493,3.0762,3.0881,3.1058,3.1234,3.1544,3.1781,3.2617,3.3544,3.3739,3.3905,3.3922,3.3849,3.3332,3.2959,3.2952,3.3146,3.333,3.361,3.385,3.4234,3.4643,3.4947,3.5274,3.5594,3.5817,3.6079,3.6233,3.6485,3.6811,3.7108,3.7431,3.7703,3.7966,3.8153,3.8252,3.835,3.8446,3.851,3.8528,3.8094,3.7387,3.6597,3.5302,3.4238,3.4045,3.3807,3.3807,3.3807,3.3807,3.3807,3.378,3.378,3.3698,3.3615,3.3473,3.3226,3.2836,3.2232,3.1302,3.0318,2.9473,2.8898,2.8532,2.8273,2.8228,2.7831,2.7295,2.6531,2.5851,2.5257,2.4682,2.443,2.4395,2.4358,2.4429,2.45,2.4551,2.4617,2.465,2.4682,2.4695,1.8357,1.8272,1.8172,1.8087,1.7994,1.8079,1.8187,1.8473,1.9004,1.9471,1.9894,2.0628,2.1186,2.1633,2.2608,2.356,2.4509,2.5464,2.6146,2.6727,2.7395,2.7995,2.8452,2.8785,2.8816,2.8789,2.8697,2.8651,2.8928,2.9109,2.9338,2.9884,3.0312,3.0687,3.0999,3.1117,3.1219,3.1394,3.1467,3.1616,3.1765,3.2527,3.3095,3.3155,3.3066,3.3065,3.2834,3.2437,3.2573,3.2912,3.3398,3.3694,3.3984,3.4382,3.4787,3.5182,3.5487,3.58,3.6062,3.6268,3.6437,3.665,3.697,3.7223,3.7523,3.7826,3.8083,3.8285,3.8382,3.8415,3.851,3.8609,3.8535,3.7449,3.657,3.5512,3.433,3.4018,3.3853,3.3807,3.3807,3.3807,3.3807,3.3807,3.378,3.3726,3.3689,3.3577,3.3452,3.3165,3.2884,3.2346,3.1738,3.0953,3.0092,2.9248,2.8781,2.8418,2.7914,2.7307,2.6608,2.5713,2.5071,2.4712,2.4539,2.4358,2.4339,2.4446,2.4498,2.4549,2.4634,2.4666,2.4717,2.4729,2.4742]},{"header":{"parameterUnit":"m.s-1","parameterCategory":1,"la1":31.0,"la2":29.5877,"lo1":-88.7671,"lo2":-86.6584,"dy":0.0162,"dx":0.0185,"nx":115,"ny":88,"refTime":"2023-09-14T06:00:00:Z","depth":0,"parameterNumber":3,"parameterNumberName":"V-component_of_WINDS"},"data":[0.0,0.0,0.0,0.0,0.0,0.0,0.0,0.0,0.0,0.0,0.0,0.0,0.0,0.0,0.0,0.0,0.0,0.0,0.0,0.0,0.0,0.0,0.0,0.0,0.0,0.0,0.0,0.0,0.0,0.0,0.0,0.0,0.0,0.0,0.0,0.0,0.0,0.0,0.0,0.0,0.0,0.0,0.0,0.0,0.0,0.0,0.0,0.0,0.0,0.0,0.0,0.0,0.0,0.0,0.0,0.0,0.0,0.0,0.0,0.0,0.0,0.0,0.0,0.0,0.0,0.0,0.0,0.0,0.0,0.0,0.0,0.0,0.0,0.0,0.0,0.0,0.0,0.0,0.0,0.0,0.0,0.0,0.0,0.0,0.0,0.0,0.0,0.0,0.0,0.0,0.0,0.0,0.0,0.0,0.0,0.0,0.0,0.0,0.0,0.0,0.0,0.0,0.0,0.0,0.0,0.0,0.0,0.0,0.0,0.0,0.0,0.0,0.0,0.0,0.0,0.0,0.0,0.0,0.0,0.0,0.0,0.0,0.0,0.0,0.0,0.0,0.0,0.0,0.0,0.0,0.0,0.0,0.0,0.0,0.0,0.0,0.0,0.0,0.0,0.0,0.0,0.0,0.0,0.0,0.0,0.0,0.0,0.0,0.0,0.0,0.0,0.0,0.0,0.0,0.0,0.0,0.0,0.0,0.0,0.0,0.0,0.0,0.0,0.0,0.0,0.0,0.0,0.0,0.0,0.0,0.0,0.0,0.0,0.0,0.0,0.0,0.0,0.0,0.0,0.0,0.0,0.0,0.0,0.0,0.0,0.0,0.0,0.0,0.0,0.0,0.0,0.0,0.0,0.0,0.0,0.0,0.0,0.0,0.0,0.0,0.0,0.0,0.0,0.0,0.0,0.0,0.0,0.0,0.0,0.0,0.0,0.0,0.0,0.0,0.0,0.0,0.0,0.0,0.0,0.0,0.0,0.0,0.0,0.0,0.0,0.0,0.0,0.0,0.0,0.0,0.0,0.0,0.0,0.0,0.0,0.0,0.0,0.0,0.0,0.0,0.0,0.0,0.0,0.0,0.0,0.0,0.0,0.0,0.0,0.0,0.0,0.0,0.0,0.0,0.0,0.0,0.0,0.0,0.0,0.0,0.0,0.0,0.0,0.0,0.0,0.0,0.0,0.0,0.0,0.0,0.0,0.0,0.0,0.0,0.0,0.0,0.0,0.0,0.0,0.0,0.0,0.0,0.0,0.0,0.0,0.0,0.0,0.0,0.0,0.0,0.0,0.0,0.0,0.0,0.0,0.0,0.0,0.0,0.0,0.0,0.0,0.0,0.0,0.0,0.0,0.0,0.0,0.0,0.0,0.0,0.0,0.0,0.0,0.0,0.0,0.0,0.0,0.0,0.0,0.0,0.0,0.0,0.0,0.0,0.0,0.0,0.0,0.0,0.0,0.0,0.0,0.0,0.0,0.0,0.0,0.0,0.0,0.0,0.0,0.0,0.0,0.0,0.0,0.0,0.0,0.0,0.0,0.0,0.0,0.0,0.0,0.0,0.0,0.0,0.0,0.0,0.0,0.0,0.0,0.0,0.0,0.0,0.0,0.0,0.0,0.0,0.0,0.0,0.0,0.0,0.0,0.0,0.0,0.0,0.0,0.0,0.0,0.0,0.0,0.0,0.0,0.0,0.0,0.0,0.0,0.0,0.0,0.0,0.0,0.0,0.0,0.0,0.0,0.0,0.0,0.0,0.0,0.0,0.0,0.0,0.0,0.0,0.0,0.0,0.0,0.0,0.0,0.0,0.0,0.0,0.0,0.0,0.0,0.0,0.0,0.0,0.0,0.0,0.0,0.0,0.0,0.0,0.0,0.0,0.0,0.0,0.0,0.0,0.0,0.0,0.0,0.0,0.0,0.0,0.0,0.0,0.0,0.0,0.0,0.0,0.0,0.0,0.0,0.0,0.0,0.0,0.0,0.0,0.0,0.0,0.0,0.0,0.0,0.0,0.0,0.0,0.0,0.0,0.0,0.0,0.0,0.0,0.0,0.0,0.0,0.0,0.0,0.0,0.0,0.0,0.0,0.0,0.0,0.0,0.0,0.0,0.0,0.0,0.0,0.0,0.0,0.0,0.0,0.0,0.0,0.0,0.0,0.0,0.0,0.0,0.0,0.0,0.0,0.0,0.0,0.0,0.0,0.0,0.0,0.0,0.0,0.0,0.0,0.0,0.0,0.0,0.0,0.0,0.0,0.0,0.0,0.0,0.0,0.0,0.0,0.0,0.0,0.0,0.0,0.0,0.0,0.0,0.0,0.0,0.0,0.0,0.0,0.0,0.0,0.0,0.0,0.0,0.0,0.0,0.0,0.0,0.0,0.0,0.0,0.0,0.0,0.0,0.0,0.0,0.0,0.0,0.0,0.0,0.0,0.0,0.0,0.0,0.0,0.0,0.0,0.0,0.0,0.0,0.0,0.0,0.0,0.0,0.0,0.0,0.0,0.0,0.0,0.0,0.0,0.0,0.0,0.0,0.0,0.0,0.0,0.0,0.0,0.0,0.0,0.0,0.0,0.0,0.0,0.0,0.0,0.0,0.0,0.0,0.0,0.0,0.0,0.0,0.0,0.0,0.0,0.0,0.0,0.0,0.0,0.0,0.0,0.0,0.0,0.0,0.0,0.0,0.0,0.0,0.0,0.0,0.0,0.0,0.0,0.0,0.0,0.0,0.0,0.0,0.0,0.0,0.0,0.0,0.0,0.0,0.0,0.0,0.0,0.0,0.0,0.0,0.0,0.0,0.0,0.0,0.0,0.0,0.0,0.0,0.0,0.0,0.0,0.0,0.0,0.0,0.0,0.0,0.0,0.0,0.0,0.0,0.0,0.0,0.0,0.0,0.0,0.0,0.0,0.0,0.0,0.0,0.0,0.0,0.0,0.0,0.0,0.0,0.0,0.0,0.0,0.0,0.0,0.0,0.0,0.0,0.0,0.0,0.0,0.0,0.0,0.0,0.0,0.0,0.0,0.0,0.0,0.0,0.0,0.0,0.0,0.0,0.0,0.0,0.0,0.0,0.0,0.0,0.0,0.0,0.0,0.0,0.0,0.0,0.0,0.0,0.0,0.0,0.0,0.0,0.0,0.0,0.0,0.0,0.0,0.0,0.0,0.0,0.0,0.0,0.0,0.0,0.0,0.0,0.0,0.0,0.0,0.0,0.0,0.0,0.0,0.0,0.0,0.0,0.0,0.0,0.0,0.0,0.0,0.0,0.0,0.0,0.0,0.0,0.0,0.0,0.0,0.0,0.0,0.0,0.0,0.0,0.0,0.0,0.0,0.0,0.0,0.0,0.0,0.0,0.0,0.0,0.0,0.0,0.0,0.0,0.0,0.0,0.0,0.0,0.0,0.0,0.0,0.0,0.0,0.0,0.0,0.0,0.0,0.0,0.0,0.0,0.0,0.0,0.0,0.0,0.0,0.0,0.0,0.0,0.0,0.0,0.0,0.0,0.0,0.0,0.0,0.0,0.0,0.0,0.0,0.0,0.0,0.0,0.0,0.0,0.0,0.0,0.0,0.0,0.0,0.0,0.0,0.0,0.0,0.0,0.0,0.0,0.0,0.0,0.0,0.0,0.0,0.0,0.0,0.0,0.0,0.0,0.0,0.0,0.0,0.0,0.0,0.0,0.0,0.0,0.0,0.0,0.0,0.0,0.0,0.0,0.0,0.0,0.0,0.0,0.0,0.0,0.0,0.0,0.0,0.0,0.0,0.0,0.0,0.0,0.0,0.0,0.0,0.0,0.0,0.0,0.0,0.0,0.0,0.0,0.0,0.0,0.0,0.0,0.0,0.0,0.0,0.0,0.0,0.0,0.0,0.0,0.0,0.0,0.0,0.0,0.0,0.0,0.0,0.0,0.0,0.0,0.0,0.0,0.0,0.0,0.0,0.0,0.0,0.0,0.0,0.0,0.0,0.0,0.0,0.0,0.0,0.0,0.0,0.0,0.0,0.0,0.0,0.0,0.0,0.0,0.0,0.0,0.0,0.0,0.0,0.0,0.0,0.0,0.0,0.0,0.0,0.0,0.0,0.0,0.0,0.0,0.0,0.0,0.0,0.0,0.0,0.0,0.0,0.0,0.0,0.0,0.0,0.0,0.0,0.0,0.0,0.0,0.0,0.0,0.0,0.0,0.0,0.0,0.0,0.0,0.0,0.0,0.0,0.0,0.0,0.0,0.0,0.0,0.0,0.0,0.0,0.0,0.0,0.0,0.0,0.0,-0.099,0.0,0.0,0.0,0.0,0.0,0.0,0.0,0.0,0.0,0.0,0.0,0.0,0.0,0.0,0.0,0.0,0.0,0.0,0.0,0.0,0.0,0.0,0.0,0.0,0.0,0.0,0.0,0.0,0.0,0.0,0.0,0.0,0.0,0.0,0.0,0.0,0.0,0.0,0.0,0.0,0.0,0.0,0.0,0.0,0.0,0.0,0.0,0.0,0.0,0.0,0.0,0.0,0.0,0.0,0.0,0.0,0.0,0.0,0.0,0.0,0.0,0.0,0.0,0.0,0.0,0.0,0.0,0.0,0.0,0.0,0.0,0.0,0.0,0.0,0.0,0.0,0.0,0.0,0.0,0.0,0.0,0.0,0.0,0.0,0.0,0.0,0.0,0.0,0.0,0.0,0.0,0.0,0.0,0.0,0.0,0.0,0.0,0.0,0.0,0.0,0.0,0.0,0.0,0.0,0.0,0.0,0.0,0.0,0.0,0.0,-0.0584,-0.0897,-0.1032,-0.1076,-0.1076,0.0,0.0,0.0,0.0,0.0,0.0,0.0,0.0,0.0,0.0,0.0,0.0,0.0,0.0,0.0,0.0,0.0,0.0,0.0,0.0,0.0,0.0,0.0,0.0,0.0,0.0,0.0,0.0,0.0,0.0,0.0,0.0,0.0,0.0,0.0,0.0,0.0,0.0,0.0,0.0,0.0,0.0,0.0,0.0,0.0,0.0,0.0,0.0,0.0,0.0,0.0,0.0,0.0,0.0,0.0,0.0,0.0,0.0,0.0,0.0,0.0,0.0,0.0,0.0,0.0,0.0,0.0,0.0,0.0,0.0,0.0,0.0,0.0,0.0,0.0,0.0,0.0,0.0,0.0,0.0,0.0,0.0,0.0,0.0,0.0,0.0,0.0,0.0,0.0,0.0,0.0,0.0,0.0,0.0,0.0,0.0,0.0,0.0,0.0,0.0,0.0,0.0,0.0,0.0,0.0,0.0,0.0,0.0,0.0,0.0,0.0,0.0,-0.1165,-0.1165,-0.1074,0.0,0.0,0.0,0.0,0.0,0.0,0.0,0.0,0.0,0.0,0.0,0.0,0.0,0.0,0.0,0.0,0.0,0.0,0.0,0.0,0.0,0.0,0.0,0.0,0.0,0.0,0.0,0.0,0.0,0.0,0.0,0.0,0.0,0.0,0.0,0.0,0.0,0.0,0.0,0.0,0.0,0.0,0.0,0.0,0.0,0.0,0.0,0.0,0.0,0.0,0.0,0.0,0.0,0.0,0.0,0.0,0.0,0.0,0.0,0.0,0.0,0.0,0.0,0.0,0.0,0.0,0.0,0.0,0.0,0.0,0.0,0.0,0.0,0.0,0.0,0.0,0.0,0.0,0.0,0.0,0.0,0.0,0.0,0.0,0.0,0.0,0.0,0.0,0.0,0.0,0.0,0.0,0.0,0.0,0.0,0.0,0.0,0.0,0.0,0.0,0.0,0.0,0.0,0.0,0.0,0.0,0.0,0.0,0.0,0.0,-0.1299,-0.1299,-0.1344,0.0,-0.112,0.0,0.0,0.0,0.0,0.0,0.0,0.0,0.0,0.0,0.0,0.0,0.0,0.0,0.0,0.0,0.0,0.0,0.0,0.0,0.0,0.0,0.0,0.0,0.0,0.0,0.0,0.0,0.0,0.0,0.0,0.0,0.0,0.0,0.0,0.0,0.0,0.0,0.0,0.0,0.0,0.0,0.0,0.0,0.0,0.0,0.0,0.0,0.0,0.0,0.0,0.0,0.0,0.0,0.0,0.0,0.0,0.0,0.0,0.0,0.0,0.0,0.0,0.0,0.0,0.0,0.0,0.0,0.0,0.0,0.0,0.0,0.0,0.0,0.0,0.0,0.0,0.0,0.0,0.0,0.0,0.0,0.0,0.0,0.0,0.0,0.0,0.0,0.0,0.0,0.0,0.0,0.0,0.0,0.0,0.0,0.0,0.0,0.0,0.0,0.0,0.0,0.0,0.0,0.0,0.0,0.0,0.0,0.0,0.0,0.0,-0.1344,-0.1344,-0.1389,-0.1299,0.0,0.0,0.0,0.0,0.0,0.0,0.0,0.0,0.0,0.0,0.0,0.0,0.0,0.0,0.0,0.0,0.0,0.0,0.0,0.0,0.0,0.0,0.0,0.0,0.0,0.0,0.0,0.0,0.0,0.0,0.0,0.0,0.0,0.0,0.0,0.0,0.0,0.0,0.0,0.0,0.0,0.0,0.0,0.0,0.0,0.0,0.0,0.0,0.0,0.0,0.0,0.0,0.0,0.0,0.0,0.0,0.0,0.0,0.0,0.0,0.0,0.0,0.0,0.0,0.0,0.0,0.0,0.0,0.0,0.0,0.0,0.0,0.0,0.0,0.0,0.0,0.0,0.0,0.0,0.0,0.0,0.0,0.0,0.0,0.0,0.0,0.0,0.0,0.0,0.0,0.0,0.0,0.0,0.0,0.0,0.0,0.0,0.0,0.0,0.0,0.0,0.0,0.0,0.0,0.0,0.0,0.0,0.0,0.0,0.0,-0.1435,-0.1479,-0.1524,-0.1524,-0.1433,-0.121,0.0,0.0,0.0,0.0,0.0,0.0,0.0,0.0,0.0,0.0,0.0,0.0,0.0,0.0,0.0,0.0,0.0,0.0,0.0,0.0,0.0,0.0,0.0,0.0,0.0,0.0,0.0,0.0,0.0,0.0,0.0,0.0,0.0,0.0,0.0,0.0,0.0,0.0,0.0,0.0,0.0,0.0,0.0,0.0,0.0,0.0,0.0,0.0,0.0,0.0,0.0,0.0,0.0,0.0,0.0,0.0,0.0,0.0,0.0,0.0,0.0,0.0,0.0,0.0,0.0,0.0,0.0,0.0,0.0,0.0,0.0,0.0,0.0,0.0,0.0,0.0,0.0,0.0,0.0,0.0,0.0,0.0,0.0,0.0,0.0,0.0,0.0,0.0,0.0,0.0,0.0,0.0,0.0,0.0,0.0,0.0,0.0,0.0,0.0,0.0,0.0,0.0,0.0,0.0,0.0,0.0,0.0,0.0,-0.1749,-0.1794,-0.1794,-0.1794,-0.1794,-0.1658,0.0,0.0,0.0,0.0,0.0,0.0,0.0,0.0,0.0,0.0,0.0,0.0,0.0,0.0,0.0,0.0,0.0,0.0,0.0,0.0,0.0,0.0,0.0,0.0,0.0,0.0,0.0,0.0,0.0,0.0,0.0,0.0,0.0,0.0,0.0,0.0,0.0,0.0,0.0,0.0,0.0,0.0,0.0,0.0,0.0,0.0,0.0,0.0,0.0,0.0,0.0,0.0,0.0,0.0,0.0,0.0,0.0,0.0,0.0,0.0,0.0,0.0,0.0,0.0,0.0,0.0,0.0,0.0,0.0,0.0,0.0,0.0,0.0,0.0,0.0,0.0,0.0,0.0,0.0,0.0,0.0,0.0,0.0,0.0,0.0,0.0,0.0,0.0,0.0,0.0,0.0,0.0,0.0,0.0,0.0,0.0,0.0,0.0,0.0,0.0,0.0,0.0,0.0,0.0,0.0,0.0,0.0,0.0,0.0,-0.2103,-0.2194,-0.2192,-0.2148,-0.2148,-0.2014,0.0,0.0,0.0,0.0,0.0,0.0,0.0,0.0,0.0,0.0,0.0,0.0,0.0,0.0,0.0,0.0,0.0,0.0,0.0,0.0,0.0,0.0,0.0,0.0,0.0,0.0,0.0,0.0,0.0,0.0,0.0,0.0,0.0,0.0,0.0,0.0,0.0,0.0,0.0,0.0,0.0,0.0,0.0,0.0,0.0,0.0,0.0,0.0,0.0,0.0,0.0,0.0,0.0,0.0,0.0,0.0,0.0,0.0,0.0,0.0,0.0,0.0,0.0,0.0,0.0,0.0,0.0,0.0,0.0,0.0,0.0,0.0,0.0,0.0,0.0,0.0,0.0,0.0,0.0,0.0,0.0,0.0,0.0,0.0,0.0,0.0,0.0,0.0,0.0,0.0,0.0,0.0,0.0,0.0,0.0,0.0,0.0,0.0,0.0,0.0,0.0,0.0,0.0,0.0,0.0,0.0,0.0,0.0,0.0,-0.2682,0.0,-0.2812,-0.2721,-0.2682,-0.2549,0.0,0.0,0.0,0.0,0.0,0.0,0.0,0.0,0.0,0.0,0.0,0.0,0.0,0.0,0.0,0.0,0.0,0.0,0.0,0.0,0.0,0.0,0.0,0.0,0.0,0.0,0.0,0.0,0.0,0.0,0.0,0.0,0.0,0.0,0.0,0.0,0.0,0.0,0.0,0.0,0.0,0.0,0.0,0.0,0.0,0.0,0.0,0.0,0.0,0.0,0.0,0.0,0.0,0.0,0.0,0.0,0.0,0.0,0.0,0.0,0.0,0.0,0.0,0.0,0.0,0.0,0.0,0.0,0.0,0.0,0.0,0.0,0.0,0.0,0.0,0.0,0.0,0.0,0.0,0.0,0.0,0.0,0.0,0.0,0.0,0.0,0.0,0.0,0.0,0.0,0.0,0.0,0.0,0.0,0.0,0.0,0.0,0.0,0.0,0.0,0.0,0.0,0.0,0.0,0.0,0.0,0.0,0.0,-0.3129,-0.3401,-0.3578,-0.3629,-0.3612,-0.3493,-0.3265,0.0,0.0,0.0,0.0,0.0,0.0,0.0,0.0,0.0,0.0,0.0,0.0,0.0,0.0,0.0,0.0,0.0,0.0,0.0,0.0,0.0,0.0,0.0,0.0,0.0,0.0,0.0,0.0,0.0,0.0,0.0,0.0,0.0,0.0,0.0,0.0,0.0,0.0,0.0,0.0,0.0,0.0,0.0,0.0,0.0,0.0,0.0,0.0,0.0,0.0,0.0,0.0,0.0,0.0,0.0,0.0,0.0,0.0,0.0,0.0,0.0,0.0,0.0,0.0,0.0,0.0,0.0,0.0,0.0,0.0,0.0,0.0,0.0,0.0,0.0,0.0,0.0,0.0,0.0,0.0,0.0,0.0,0.0,0.0,0.0,0.0,0.0,0.0,0.0,0.0,0.0,0.0,0.0,0.0,0.0,0.0,0.0,0.0,0.0,0.0,0.0,0.0,0.0,0.0,0.0,0.0,0.0,0.0,0.0,-0.4637,-0.4803,-0.4871,-0.4828,-0.452,-0.418,0.0,0.0,0.0,0.0,0.0,0.0,0.0,0.0,0.0,0.0,0.0,0.0,0.0,0.0,0.0,0.0,0.0,0.0,0.0,0.0,0.0,0.0,0.0,0.0,0.0,0.0,0.0,0.0,0.0,0.0,0.0,0.0,0.0,0.0,0.0,0.0,0.0,0.0,0.0,0.0,0.0,0.0,0.0,0.0,0.0,0.0,0.0,0.0,0.0,0.0,0.0,0.0,0.0,0.0,0.0,0.0,0.0,0.0,0.0,0.0,0.0,0.0,0.0,0.0,0.0,0.0,0.0,0.0,0.0,0.0,0.0,0.0,0.0,0.0,0.0,0.0,0.0,0.0,0.0,0.0,0.0,0.0,0.0,0.0,0.0,0.0,0.0,0.0,0.0,0.0,0.0,0.0,0.0,0.0,0.0,0.0,0.0,0.0,0.0,0.0,0.0,0.0,0.0,0.0,0.0,0.0,0.0,0.0,0.0,-0.6373,-0.6186,-0.6072,-0.6029,-0.5658,-0.5166,-0.4625,0.0,0.0,0.0,0.0,0.0,0.0,0.0,0.0,0.0,0.0,0.0,0.0,0.0,0.0,0.0,0.0,0.0,0.0,0.0,0.0,0.0,0.0,0.0,0.0,0.0,0.0,0.0,0.0,0.0,0.0,0.0,0.0,0.0,0.0,0.0,0.0,0.0,0.0,0.0,0.0,0.0,0.0,0.0,0.0,0.0,0.0,0.0,0.0,0.0,0.0,0.0,0.0,0.0,0.0,0.0,0.0,0.0,0.0,0.0,0.0,0.0,0.0,0.0,0.0,0.0,0.0,0.0,0.0,0.0,0.0,0.0,0.0,0.0,0.0,0.0,0.0,0.0,0.0,0.0,0.0,0.0,0.0,0.0,0.0,0.0,0.0,0.0,0.0,0.0,0.0,0.0,0.0,0.0,0.0,0.0,0.0,0.0,0.0,0.0,0.0,0.0,0.0,0.0,0.0,0.0,0.0,0.0,0.0,-0.8491,-0.7732,-0.7255,-0.7146,-0.679,-0.6235,0.0,0.0,0.0,0.0,0.0,0.0,0.0,0.0,0.0,0.0,0.0,0.0,0.0,0.0,0.0,0.0,0.0,0.0,0.0,0.0,0.0,0.0,0.0,0.0,0.0,0.0,0.0,0.0,0.0,0.0,0.0,0.0,0.0,0.0,0.0,0.0,0.0,0.0,0.0,0.0,0.0,0.0,0.0,0.0,0.0,0.0,0.0,0.0,0.0,0.0,0.0,0.0,0.0,0.0,0.0,0.0,0.0,0.0,0.0,0.0,0.0,0.0,0.0,0.0,0.0,0.0,0.0,0.0,0.0,0.0,0.0,0.0,0.0,0.0,0.0,0.0,0.0,0.0,0.0,0.0,0.0,0.0,0.0,0.0,0.0,0.0,0.0,0.0,0.0,0.0,0.0,0.0,0.0,0.0,0.0,0.0,0.0,0.0,0.0,0.0,0.0,0.0,0.0,0.0,0.0,0.0,0.0,0.0,0.0,-0.9667,-0.9813,-0.9347,-0.8249,-0.7639,-0.7007,0.0,0.0,0.0,0.0,0.0,0.0,0.0,0.0,0.0,0.0,0.0,0.0,0.0,0.0,0.0,0.0,0.0,0.0,0.0,0.0,0.0,0.0,0.0,0.0,0.0,0.0,0.0,0.0,0.0,0.0,0.0,0.0,0.0,0.0,0.0,0.0,0.0,0.0,0.0,0.0,0.0,0.0,0.0,0.0,0.0,0.0,0.0,0.0,0.0,0.0,0.0,0.0,0.0,0.0,0.0,0.0,0.0,0.0,0.0,0.0,0.0,0.0,0.0,0.0,0.0,0.0,0.0,0.0,0.0,0.0,0.0,0.0,0.0,0.0,0.0,0.0,0.0,0.0,0.0,0.0,0.0,0.0,0.0,0.0,0.0,0.0,0.0,0.0,0.0,0.0,0.0,0.0,0.0,0.0,0.0,0.0,0.0,0.0,0.0,0.0,0.0,0.0,0.0,0.0,0.0,0.0,0.0,0.0,-0.9828,-1.0794,-1.1024,-1.0654,-0.9766,-0.8956,-0.8074,0.0,0.0,0.0,0.0,0.0,0.0,0.0,0.0,0.0,0.0,0.0,0.0,0.0,0.0,0.0,0.0,0.0,0.0,0.0,0.0,0.0,0.0,0.0,0.0,0.0,0.0,0.0,0.0,0.0,0.0,0.0,0.0,0.0,0.0,0.0,0.0,0.0,0.0,0.0,0.0,0.0,0.0,0.0,0.0,0.0,0.0,0.0,0.0,0.0,0.0,0.0,0.0,0.0,0.0,0.0,0.0,0.0,0.0,0.0,0.0,0.0,0.0,0.0,0.0,0.0,0.0,0.0,0.0,0.0,0.0,0.0,0.0,0.0,0.0,0.0,0.0,0.0,0.0,0.0,0.0,0.0,0.0,0.0,0.0,0.0,0.0,0.0,0.0,0.0,0.0,0.0,0.0,0.0,0.0,0.0,0.0,0.0,0.0,0.0,0.0,0.0,0.0,0.0,0.0,0.0,0.0,0.0,0.0,-1.0853,-1.1822,-1.1766,-1.1684,-1.1461,-1.0453,-0.9219,0.0,0.0,0.0,0.0,0.0,0.0,0.0,0.0,0.0,0.0,0.0,0.0,0.0,0.0,0.0,0.0,0.0,0.0,0.0,0.0,0.0,0.0,0.0,0.0,0.0,0.0,0.0,0.0,0.0,0.0,0.0,0.0,0.0,0.0,0.0,0.0,0.0,0.0,0.0,0.0,0.0,0.0,0.0,0.0,0.0,0.0,0.0,0.0,0.0,0.0,0.0,0.0,0.0,0.0,0.0,0.0,0.0,0.0,0.0,0.0,0.0,0.0,0.0,0.0,0.0,0.0,0.0,0.0,0.0,0.0,0.0,0.0,0.0,0.0,0.0,0.0,0.0,0.0,0.0,0.0,0.0,0.0,0.0,0.0,0.0,0.0,0.0,0.0,0.0,0.0,0.0,0.0,0.0,0.0,0.0,0.0,0.0,0.0,0.0,0.0,0.0,0.0,0.0,0.0,0.0,0.0,0.0,0.0,-1.2043,-1.2761,-1.3072,-1.3111,-1.2811,-1.1249,-0.9907,0.0,0.0,0.0,0.0,0.0,0.0,0.0,0.0,0.0,0.0,0.0,0.0,0.0,0.0,0.0,0.0,0.0,0.0,0.0,0.0,0.0,0.0,0.0,0.0,0.0,0.0,0.0,0.0,0.0,0.0,0.0,0.0,0.0,0.0,0.0,0.0,0.0,0.0,0.0,0.0,0.0,0.0,0.0,0.0,0.0,0.0,0.0,0.0,0.2713,0.0,0.0,0.0,0.0,0.0,0.0,0.0,0.0,0.0,0.0,0.0,0.0,0.0,0.0,0.0,0.0,0.0,0.0,0.0,0.0,0.0,0.0,0.0,0.0,0.0,0.0,0.0,0.0,0.0,0.0,0.0,0.0,0.0,0.0,0.0,0.0,0.0,0.0,0.0,0.0,0.0,0.0,0.0,0.0,0.0,0.0,0.0,0.0,0.0,0.0,0.0,0.0,0.0,0.0,0.0,0.0,0.0,0.0,0.0,-1.2908,-1.3539,-1.4007,-1.4044,-1.3723,-1.2483,-1.1034,0.0,0.0,0.0,0.0,0.0,0.0,0.0,0.0,0.0,0.0,0.0,0.0,0.0,0.0,0.0,0.0,0.0,0.0,0.0,0.0,0.0,0.0,0.0,0.0,0.0,0.0,0.0,0.0,0.0,0.0,0.0,0.0,0.0,0.0,0.0,0.0,0.0,0.0,0.0,0.0,0.0,0.0,0.0,0.0,0.0,0.0,0.0,0.0,0.0,0.0,0.0,0.0,0.0,0.0,0.0,0.0,0.0,0.0,0.0,0.0,0.0,0.0,0.0,0.0,0.0,0.0,0.0,0.0,0.0,0.0,0.0,0.0,0.0,0.0,0.0,0.0,0.0,0.0,0.0,0.0,0.0,0.0,0.0,0.0,0.0,0.0,0.0,0.0,0.0,0.0,0.0,0.0,0.0,0.0,0.0,0.0,0.0,0.0,0.0,0.0,0.0,0.0,0.0,0.0,0.0,0.0,0.0,-1.2707,-1.3613,-1.4237,-1.4739,-1.4853,-1.4495,-1.369,-1.2292,-1.03,0.0,0.0,0.0,0.0,0.0,0.0,0.0,0.0,0.0,0.0,0.0,0.0,0.0,0.0,0.0,0.0,0.0,0.0,0.0,0.0,0.0,0.0,0.0,0.0,0.0,0.0,0.0,0.0,0.0,0.0,0.0,0.0,0.0,0.0,0.0,0.0,0.0,0.0,-0.2834,-0.2843,0.0,0.0,0.0,0.0,0.0,0.0,0.0,0.0,0.1052,0.0,0.0,0.0,0.0,0.0,0.0,0.0,0.0,0.0,0.0,0.0,0.0,0.0,0.0,0.0,0.0,0.0,0.0,0.0,0.0,0.0,0.0,0.0,0.0,0.0,0.0,0.0,0.0,0.0,0.0,0.0,0.0,0.0,0.0,0.0,0.0,0.0,0.0,0.0,0.0,0.0,0.0,0.0,0.0,0.0,0.0,0.0,0.0,0.0,0.0,0.0,0.0,0.0,0.0,0.0,0.0,-1.191,-1.3398,-1.4433,-1.485,-1.5528,-1.5602,-1.4907,-1.4093,-1.2959,-1.1383,0.0,0.0,0.0,0.0,0.0,0.0,0.0,0.0,0.0,0.0,0.0,0.0,0.0,0.0,0.0,0.0,0.0,0.0,0.0,0.0,0.0,0.0,0.0,0.0,0.0,0.0,0.0,0.0,0.0,0.0,0.0,0.0,0.0,0.0,0.0,0.0,0.0,0.0,0.0,-0.3618,-0.3431,0.0,0.0,0.0,0.0,0.0,0.0,0.0,0.0,0.0546,0.0,0.0,0.0,0.0,0.0,0.0,0.0,0.0,0.0,0.0,0.0,0.0,0.0,0.0,0.0,0.0,0.0,0.0,0.0,0.0,0.0,0.0,0.0,0.0,0.0,0.0,0.0,0.0,0.0,0.0,0.0,0.0,0.0,0.0,0.0,0.0,0.0,0.0,0.0,0.0,0.0,0.0,0.0,0.0,0.0,0.0,0.0,0.0,0.0,0.0,0.0,0.0,0.0,0.0,0.0,-1.2596,-1.3993,-1.5038,-1.5659,-1.6269,-1.6227,-1.556,-1.4733,-1.3652,0.0,0.0,0.0,0.0,0.0,0.0,0.0,0.0,0.0,0.0,0.0,0.0,0.0,0.0,0.0,0.0,0.0,0.0,0.0,0.0,0.0,0.0,0.0,0.0,0.0,0.0,0.0,0.0,0.0,0.0,0.0,0.0,0.0,0.0,0.0,0.0,0.0,0.0,0.0,0.0,-0.4194,-0.4052,-0.3689,0.0,0.0,0.0,0.0,0.0,0.0,-0.0703,-0.0234,0.0,0.0,0.0,0.0,0.0,0.0,0.0,0.0,0.0,0.0,0.0,0.0,0.0,0.0,0.0,0.0,0.0,0.0,0.0,0.0,0.0,0.0,0.0,0.0,0.0,0.0,0.0,0.0,0.0,0.0,0.0,0.0,0.0,0.0,0.0,0.0,0.0,0.0,0.0,0.0,0.0,0.0,0.0,0.0,0.0,0.0,0.0,0.0,0.0,0.0,0.0,0.0,0.0,0.0,0.0,-1.3248,-1.4481,-1.5574,-1.6449,-1.6983,-1.6961,-1.6321,-1.5416,-1.4335,0.0,0.0,0.0,0.0,0.0,0.0,0.0,0.0,0.0,0.0,0.0,0.0,0.0,0.0,0.0,0.0,0.0,0.0,0.0,0.0,0.0,0.0,0.0,0.0,0.0,0.0,0.0,0.0,0.0,0.0,0.0,0.0,0.0,0.0,0.0,0.0,0.0,0.0,0.0,0.0,0.0,-0.4694,-0.4284,-0.3672,0.0,0.0,0.0,0.0,-0.2064,-0.1533,0.0,0.0,0.0,0.0,0.0,0.0,0.0,0.0,0.0,0.0,0.0,0.0,0.0,0.0,0.0,0.0,0.0,0.0,0.0,0.0,0.0,0.0,0.0,0.0,0.0,0.0,0.0,0.0,0.0,0.0,0.0,0.0,0.0,0.0,0.0,0.0,0.0,0.0,0.0,0.0,0.0,0.0,0.0,0.0,0.0,0.0,0.0,0.0,0.0,0.0,0.0,0.0,0.0,0.0,0.0,0.0,-1.3515,-1.4914,-1.6107,-1.7078,-1.7671,-1.7671,-1.7108,-1.621,-1.5118,0.0,0.0,0.0,0.0,0.0,0.0,0.0,0.0,0.0,0.0,0.0,0.0,0.0,0.0,0.0,0.0,0.0,0.0,0.0,0.0,0.0,0.0,0.0,0.0,0.0,0.0,0.0,0.0,0.0,0.0,0.0,0.0,0.0,0.0,0.0,0.0,0.0,0.0,0.0,0.0,0.0,-0.5314,-0.4806,-0.4412,-0.3968,0.0,0.0,-0.2606,-0.2337,-0.2121,0.0,0.0,0.0,0.0,0.0,0.0,0.0,0.0,0.0,0.0,0.0,0.0,0.0,0.0,0.0,0.0,0.0,0.0,0.0,0.0,0.0,0.0,0.0,0.0,0.0,0.0,0.0,0.0,0.0,0.0,0.0,0.0,0.0,0.0,0.0,0.0,0.0,0.0,0.0,0.0,0.0,0.0,0.0,0.0,0.0,0.0,0.0,0.0,0.0,0.0,0.0,0.0,0.0,0.0,0.0,-1.2686,-1.4555,-1.611,-1.7382,-1.8437,-1.8834,-1.8814,-1.819,-1.6962,-1.5742,0.0,0.0,0.0,0.0,0.0,0.0,0.0,0.0,0.0,0.0,0.0,0.0,0.0,0.0,0.0,0.0,0.0,0.0,0.0,0.0,0.0,0.0,0.0,0.0,0.0,0.0,0.0,0.0,0.0,0.0,0.0,0.0,0.0,0.0,0.0,0.0,0.0,0.0,0.0,0.0,0.0,0.0,-0.5223,-0.482,0.0,0.0,0.0,-0.3101,-0.2865,0.0,0.0,0.0,0.0,0.0,0.0,0.0,0.0,0.0,0.0,0.0,0.0,0.0,0.0,0.0,0.0,0.0,0.0,0.0,0.0,0.0,0.0,0.0,0.0,0.0,0.0,0.0,0.0,0.0,0.0,0.0,0.0,0.0,0.0,0.0,0.0,0.0,0.0,0.0,0.0,0.0,0.0,0.0,0.0,0.0,0.0,0.0,0.0,0.0,0.0,0.0,0.0,0.0,0.0,0.0,0.0,0.0,-1.5391,-1.714,-1.851,-1.9579,-2.0,-1.994,-1.9352,-1.8009,0.0,0.0,0.0,0.0,0.0,0.0,0.0,0.0,0.0,0.0,0.0,0.0,0.0,0.0,0.0,0.0,0.0,0.0,0.0,0.0,0.0,0.0,0.0,0.0,0.0,0.0,0.0,-0.6914,0.0,0.0,0.0,0.0,0.0,0.0,0.0,0.0,0.0,0.0,0.0,0.0,0.0,0.0,-0.5506,-0.5505,-0.5162,-0.4803,0.0,0.0,-0.3615,-0.3391,-0.3129,-0.2783,0.0,0.0,0.0,0.0,0.0,0.0,0.0,0.0,0.0,0.0,0.0,0.0,0.0,0.0,0.0,0.0,0.0,0.0,0.0,0.0,0.0,0.0,0.0,0.0,0.0,0.0,0.0,0.0,0.0,0.0,0.0,0.0,0.0,0.0,0.0,0.0,0.0,0.0,0.0,0.0,0.0,0.0,0.0,0.0,0.0,0.0,0.0,0.0,0.0,0.0,0.0,0.0,0.0,0.0,0.0,-1.5698,-1.7629,-1.9198,-2.0207,-2.0964,-2.1142,-2.0573,-1.9487,-1.8092,0.0,0.0,0.0,0.0,0.0,0.0,0.0,0.0,0.0,0.0,0.0,0.0,0.0,0.0,0.0,0.0,0.0,0.0,0.0,0.0,0.0,0.0,0.0,0.0,0.0,0.0,0.0,0.0,0.0,0.0,0.0,0.0,0.0,0.0,0.0,0.0,0.0,0.0,0.0,0.0,0.0,-0.6133,-0.5574,-0.5679,-0.555,0.0,0.0,-0.428,-0.3924,-0.3663,-0.339,-0.2902,0.0,0.0,0.0,0.0,0.0,0.0,0.0,0.0,0.0,0.0,0.0,0.0,0.0,0.0,0.0,0.0,0.0,0.0,0.0,0.0,0.0,0.0,0.0,0.0,0.0,0.0,0.0,0.0,0.0,0.0,0.0,0.0,0.0,0.0,0.0,0.0,0.0,0.0,0.0,0.0,0.0,0.0,0.0,0.0,0.0,0.0,0.0,0.0,0.0,0.0,0.0,0.0,0.0,-1.485,-1.6636,-1.8927,-2.0606,-2.17,-2.2252,-2.239,-2.2129,-2.057,-1.9187,0.0,0.0,0.0,0.0,0.0,0.0,0.0,0.0,0.0,0.0,0.0,0.0,0.0,0.0,0.0,0.0,0.0,0.0,0.0,0.0,0.0,0.0,0.0,0.0,0.0,0.0,0.0,0.0,-0.6826,-0.6407,-0.5752,0.0,0.0,0.0,0.0,0.0,0.0,0.0,0.0,0.0,0.0,-0.6318,-0.6424,-0.6195,0.0,0.0,-0.4972,-0.4539,-0.4188,-0.3885,-0.3572,-0.32,-0.2747,0.0,0.0,0.0,0.0,0.0,0.0,0.0,0.0,0.0,0.0,0.0,0.0,0.0,0.0,0.0,0.0,0.0,0.0,0.0,0.0,0.0,0.0,0.0,0.0,0.0,0.0,0.0,0.0,0.0,0.0,0.0,0.0,0.0,0.0,0.0,0.0,0.0,0.0,0.0,0.0,0.0,0.0,0.0,0.0,0.0,0.0,0.0,0.0,0.0,0.0,0.0,0.0,-1.5673,-1.7347,-1.9812,-2.1631,-2.2814,-2.3324,-2.352,-2.3197,-2.1833,-2.0406,0.0,0.0,0.0,0.0,0.0,0.0,0.0,0.0,0.0,0.0,0.0,0.0,0.0,0.0,0.0,0.0,0.0,0.0,0.0,0.0,0.0,0.0,0.0,0.0,0.0,0.0,0.0,0.0,-0.6402,-0.592,-0.5427,0.0,0.0,0.0,0.0,0.0,0.0,0.0,0.0,0.0,0.0,-0.6667,-0.6954,-0.6655,-0.6268,-0.5802,-0.5336,-0.4884,-0.4539,-0.4256,-0.3942,-0.3616,0.0,0.0,0.0,0.0,0.0,0.0,0.0,0.0,0.0,0.0,0.0,0.0,0.0,0.0,0.0,0.0,0.0,0.0,0.0,0.0,0.0,0.0,0.0,0.0,0.0,0.0,0.0,-0.3385,0.0,0.0,-0.2281,0.0,0.0,0.0,0.0,0.0,0.0,0.0,0.0,0.0,0.0,0.0,0.0,0.0,0.0,0.0,0.0,0.0,0.0,0.0,0.0,0.0,0.0,-1.6258,-1.7812,-2.0291,-2.2163,-2.3263,-2.4142,-2.4256,-2.3737,-2.324,-2.1953,-1.9617,0.0,0.0,0.0,0.0,0.0,0.0,0.0,0.0,0.0,0.0,0.0,0.0,0.0,0.0,0.0,0.0,0.0,0.0,0.0,0.0,0.0,0.0,0.0,0.0,0.0,0.0,-0.6514,-0.5732,-0.527,0.0,0.0,0.0,0.0,0.0,0.0,0.0,0.0,0.0,0.0,-0.7117,-0.7273,-0.7036,-0.7117,-0.6801,-0.5968,-0.5626,-0.5366,-0.5029,-0.4792,-0.45,0.0,0.0,0.0,0.0,0.0,0.0,0.0,0.0,0.0,0.0,0.0,0.0,0.0,0.0,0.0,0.0,0.0,0.0,0.0,0.0,0.0,0.0,0.0,0.0,0.0,0.0,0.0,-0.6213,-0.5866,0.0,0.0,0.0,0.0,0.0,0.0,0.0,0.0,0.0,0.0,0.0,-1.119,-1.1796,0.0,0.0,0.0,0.0,0.0,0.0,0.0,0.0,0.0,0.0,0.0,0.0,-1.6775,-1.8634,-2.0749,-2.2566,-2.3932,-2.4456,-2.4627,-2.4439,-2.3728,-2.206,-1.9356,0.0,0.0,0.0,0.0,0.0,0.0,0.0,0.0,0.0,0.0,0.0,0.0,0.0,0.0,0.0,0.0,0.0,0.0,0.0,0.0,0.0,0.0,0.0,0.0,0.0,-0.7022,0.0,0.0,0.0,0.0,0.0,0.0,0.0,0.0,0.0,0.0,0.0,-0.6582,-0.7167,-0.7322,-0.7465,-0.7576,-0.7325,-0.6912,0.0,0.0,0.0,0.0,0.0,0.0,0.0,0.0,0.0,0.0,0.0,0.0,0.0,0.0,-0.2014,-0.1012,-0.0907,-0.0727,0.0038,0.0,0.0,0.0,0.0,0.0,0.0,0.0,0.0,0.0,0.0,0.0,0.0,0.0,0.0,-0.8644,0.0,-0.7586,0.0,0.0,0.0,0.0,0.0,0.0,0.0,0.0,-1.1516,-1.2736,-1.371,-1.4498,-1.4987,0.0,-1.5031,-1.4243,0.0,0.0,0.0,0.0,0.0,0.0,0.0,0.0,-1.7354,-1.9307,-2.1174,-2.2923,-2.4412,-2.4721,-2.4892,-2.4835,-2.3934,-2.2399,-2.0311,-1.8807,-1.71,0.0,0.0,0.0,0.0,0.0,0.0,0.0,0.0,0.0,0.0,0.0,0.0,0.0,0.0,0.0,0.0,0.0,0.0,0.0,0.0,0.0,0.0,0.0,-0.7234,0.0,0.0,0.0,0.0,0.0,0.0,0.0,0.0,0.0,-0.627,-0.6526,-0.697,-0.7517,-0.7596,-0.767,-0.7835,0.0,0.0,0.0,0.0,0.0,0.0,0.0,-0.5636,-0.5539,-0.5015,-0.4509,-0.4185,-0.3863,-0.3549,-0.3298,0.0,0.0,-0.1869,-0.173,-0.1642,-0.0969,-0.0784,-0.0627,-0.0315,-0.0093,0.0144,0.0,0.0,0.0,0.0,0.0,0.0,0.0,0.0,-1.1071,-1.0889,0.0,-1.0113,0.0,0.0,0.0,0.0,0.0,-0.9706,0.0,0.0,-1.4237,-1.5365,-1.6256,-1.7224,-1.7854,-1.8061,-1.7686,-1.7485,-1.7295,-1.4613,0.0,0.0,0.0,0.0,0.0,0.0,-1.7943,-2.0016,-2.1614,-2.3199,-2.4738,-2.4948,-2.5005,-2.5005,-2.3934,-2.3054,-2.2349,-1.9975,-1.8127,-1.7047,-1.5049,0.0,0.0,0.0,0.0,0.0,0.0,0.0,0.0,0.0,0.0,0.0,0.0,0.0,0.0,0.0,0.0,0.0,0.0,0.0,0.0,-0.7715,0.0,0.0,0.0,0.0,0.0,0.0,0.0,0.0,0.0,0.0,-0.6751,-0.6999,-0.7361,-0.7769,0.0,0.0,0.0,0.0,-0.7426,-0.698,-0.7045,-0.7005,-0.6681,-0.6737,-0.6798,-0.6767,0.0,0.0,-0.5083,-0.4756,-0.4578,-0.4546,-0.4481,-0.3949,-0.2572,-0.2492,-0.2371,-0.191,-0.162,-0.1412,-0.132,-0.1044,-0.075,-2.0007,0.0,0.0,0.0,0.0,-1.6339,-1.6321,-1.6424,-1.5983,-1.5375,-1.4566,-1.379,0.0,0.0,0.0,0.0,0.0,0.0,-1.3821,-1.5516,-1.6856,-1.7842,-1.8714,-1.932,-1.9686,-1.9924,-1.9992,-1.9837,-1.9437,-1.834,-1.6804,-1.4949,0.0,0.0,0.0,0.0,-1.8672,-2.081,-2.2062,-2.335,-2.4751,-2.4948,-2.4948,-2.4835,-2.4306,-2.3686,-2.2954,-2.1547,-1.9904,-1.8018,-1.6776,0.0,0.0,0.0,0.0,0.0,0.0,0.0,0.0,0.0,0.0,0.0,0.0,0.0,0.0,0.0,0.0,0.0,0.0,0.0,-0.8679,-0.8442,-0.8091,0.0,0.0,0.0,0.0,0.0,0.0,0.0,0.0,0.0,-0.7766,-0.7532,-0.7559,0.0,0.0,-0.7893,-0.7759,-0.7816,-0.7797,-0.75,-0.77,0.0,-0.7779,-0.7551,-0.7462,-0.7795,-0.7281,-0.6721,-0.6312,-0.6006,-0.5816,-0.5615,-0.5729,-0.553,-0.462,-0.3793,-0.321,-0.2715,-0.2436,-0.2242,-0.1853,-0.1505,-0.1124,-2.5492,-2.3063,-2.0972,-1.9901,-1.965,-1.949,-1.9468,-1.9424,-1.9139,-1.8573,-1.7889,-1.7179,-1.6143,-1.494,-1.4354,0.0,0.0,0.0,-1.652,-1.7977,-1.9079,-1.9913,-2.0617,-2.1185,-2.1599,-2.1774,-2.1793,-2.1687,-2.1348,-2.0726,-1.9434,-1.7569,0.0,0.0,-1.7129,-1.8037,-1.9415,-2.1119,-2.2299,-2.3406,-2.4514,-2.4827,-2.4948,-2.4892,-2.4593,-2.4099,-2.3306,-2.2268,-2.0831,-1.892,-1.762,-1.6084,0.0,0.0,0.0,0.0,0.0,0.0,0.0,0.0,0.0,0.0,0.0,-0.738,-0.7337,0.0,0.0,0.0,-0.858,-0.8877,-0.9062,-0.8931,0.0,0.0,0.0,0.0,0.0,0.0,0.0,-0.8172,-0.8485,-0.8805,-0.8986,-0.8655,-0.8446,-0.8631,-0.8639,-0.8594,-0.8468,0.0,-0.8421,-0.8368,-0.8606,-0.877,-0.8909,-0.8703,-0.8606,-0.8837,-0.8561,-0.8161,-0.7819,-0.7528,-0.7237,-0.6973,-0.7034,-0.6894,-0.604,-0.5319,-0.4505,-0.3602,-0.3323,-0.304,-0.2507,-0.2026,-0.1568,-3.0239,-2.8808,-2.4327,-2.2187,-2.1694,-2.1484,-2.1286,-2.0985,-2.1108,-2.0904,-2.0515,-2.0205,-1.9666,-1.8983,-1.7846,0.0,-1.8269,-1.844,-1.9126,-2.0217,-2.1033,-2.1583,-2.2046,-2.2767,-2.3271,-2.345,-2.3206,-2.3106,-2.2989,-2.2086,-2.1302,-2.0764,-1.9027,-1.8207,-1.8414,-1.9102,-2.0009,-2.1095,-2.2291,-2.3271,-2.4042,-2.4584,-2.4856,-2.4856,-2.47,-2.4276,-2.3477,-2.236,-2.1149,-1.9701,-1.8028,-1.6475,-1.5039,0.0,0.0,0.0,0.0,0.0,0.0,0.0,0.0,0.0,0.0,0.0,0.0,0.0,0.0,0.0,-0.9438,0.0,-0.9544,-0.9387,0.0,0.0,0.0,-0.9077,-0.913,-0.9379,-0.9659,-1.0002,0.0,0.0,-1.0381,-1.0207,-0.9992,-0.9899,-0.9875,-0.9805,-0.973,-0.9481,-0.9356,-0.9592,-0.9732,-0.9899,-1.0176,-1.0222,-1.013,-0.9932,-0.9863,-0.9682,-0.9361,-0.9045,-0.8674,-0.8387,-0.8304,-0.8057,-0.7144,-0.6786,-0.6227,-0.4748,-0.4206,-0.3827,-0.3166,-0.2666,-0.2134,-3.1486,-3.0714,-2.9215,-2.7979,-2.6831,-2.6119,-2.5598,-2.5245,-2.4463,-2.381,-2.3245,-2.2789,-2.1975,-2.0903,-2.0533,-2.0322,-2.0378,-2.0916,-2.1415,-2.189,-2.2568,-2.3009,-2.3187,-2.3374,-2.3628,-2.3923,-2.3852,-2.3725,-2.349,-2.2843,-2.2194,-2.1597,-2.0733,-1.9786,-1.8937,-1.9193,-1.996,-2.118,-2.1596,-2.2309,-2.3351,-2.3541,-2.3608,-2.3595,-2.3501,-2.3285,-2.2977,-2.2276,-2.1314,-2.0177,-1.8701,-1.716,-1.559,-1.4542,0.0,0.0,0.0,0.0,0.0,0.0,0.0,0.0,0.0,-0.8607,-0.8607,0.0,-0.9111,0.0,-1.0132,-1.052,-1.0465,-1.0472,0.0,0.0,-1.0368,-1.0311,-1.0423,-1.0479,-1.0416,-1.0185,-1.0922,-1.1482,-1.1524,-1.1992,-1.2277,-1.2261,-1.1068,-1.0285,-1.0475,-1.0872,-1.111,-1.1138,-1.1333,-1.1579,-1.1757,-1.1803,-1.1602,-1.1196,-1.0963,-1.0818,-1.0615,-1.0146,-0.973,-0.9531,-0.9475,-0.9136,-0.8378,-0.8195,-0.766,-0.6415,-0.5301,-0.4293,-0.3731,-0.3111,-0.2462,-3.3142,-3.2642,-3.2328,-3.1633,-3.0637,-2.9094,-2.8261,-2.7903,-2.717,-2.6511,-2.598,-2.5203,-2.4386,-2.3502,-2.3059,-2.2716,-2.2541,-2.2859,-2.3012,-2.3063,-2.3428,-2.3641,-2.37,-2.376,-2.3865,-2.4216,-2.4274,-2.4288,-2.4169,-2.3661,-2.3071,-2.2468,-2.1864,-2.0979,-1.976,-1.9779,-2.016,-2.0887,-2.1496,-2.2227,-2.3134,-2.3189,-2.3053,-2.2848,-2.2717,-2.2371,-2.1672,-2.1198,-2.0463,-1.9317,-1.8239,-1.6991,-1.562,-1.4824,-1.378,0.0,0.0,0.0,0.0,0.0,0.0,0.0,0.0,0.0,0.0,0.0,-1.0023,-1.0301,-1.0718,-1.099,-1.1133,-1.1156,-1.1335,-1.1631,-1.1662,-1.1775,-1.1989,-1.2058,-1.2035,-1.1722,-1.2251,-1.2601,-1.2458,-1.2838,-1.3084,-1.3084,-1.2316,-1.1744,-1.185,-1.2027,-1.214,-1.2312,-1.236,-1.2472,-1.2679,-1.2811,-1.2755,-1.2344,-1.2124,-1.2036,-1.1753,-1.1255,-1.0892,-1.0617,-1.0507,-1.0166,-0.9294,-0.8964,-0.8495,-0.7355,-0.6298,-0.5286,-0.4364,-0.3556,-0.2954,-3.4871,-3.4529,-3.4133,-3.3761,-3.3266,-3.1173,-2.9984,-2.957,-2.9138,-2.8735,-2.834,-2.7343,-2.662,-2.6161,-2.5412,-2.4966,-2.4678,-2.4516,-2.4328,-2.4125,-2.4053,-2.4014,-2.3936,-2.3936,-2.4099,-2.4363,-2.4549,-2.4677,-2.4835,-2.4353,-2.3865,-2.3283,-2.2644,-2.1749,-2.0657,-2.0469,-2.0429,-2.0508,-2.1591,-2.2403,-2.2945,-2.2877,-2.2579,-2.2051,-2.1957,-2.1345,-2.0127,-1.9811,-1.9136,-1.8062,-1.7291,-1.6446,-1.5486,-1.4896,-1.4181,0.0,-1.2089,0.0,0.0,0.0,0.0,0.0,0.0,0.0,0.0,-1.0901,-1.1098,-1.1272,-1.1364,-1.1542,-1.1835,-1.1926,-1.2166,-1.2747,-1.2938,-1.3202,-1.3541,-1.3656,-1.3731,-1.3771,-1.3787,-1.3675,-1.3419,-1.3298,-1.3298,-1.337,-1.3513,-1.3497,-1.3314,-1.3052,-1.3012,-1.3259,-1.3144,-1.3209,-1.3323,-1.3531,-1.3567,-1.3238,-1.3179,-1.3112,-1.2792,-1.2352,-1.199,-1.1613,-1.1304,-1.0873,-0.9946,-0.9463,-0.8875,-0.8013,-0.7241,-0.6346,-0.4993,-0.4123,-0.3502,-3.6226,-3.5759,-3.4775,-3.4201,-3.3866,-3.2977,-3.1958,-3.0799,-2.9759,-2.9112,-2.8749,-2.8423,-2.8139,-2.7826,-2.7395,-2.7048,-2.6726,-2.643,-2.5948,-2.5314,-2.5104,-2.4662,-2.4261,-2.4247,-2.4292,-2.4549,-2.4677,-2.4848,-2.4948,-2.4408,-2.4014,-2.392,-2.2848,-2.1952,-2.1212,0.0,0.0,0.0,-2.1089,-2.1457,-2.1551,-2.1059,-2.0716,-2.0582,-2.0127,0.0,-1.9258,-1.8955,-1.8563,-1.8024,-1.6991,0.0,0.0,0.0,0.0,0.0,0.0,0.0,0.0,0.0,0.0,0.0,-1.3164,-1.2654,-1.1944,-1.2117,-1.2229,-1.2118,-1.2735,-1.3154,-1.3217,-1.3502,-1.3762,-1.3884,-1.3909,-1.4114,-1.4391,-1.444,-1.4539,-1.473,-1.4717,-1.4638,-1.462,-1.4425,-1.4331,-1.4283,-1.4403,-1.4348,-1.4331,-1.422,-1.426,-1.4331,-1.419,-1.4269,-1.4285,-1.4277,-1.4165,-1.4132,-1.3875,-1.3637,-1.3492,-1.3119,-1.2599,-1.215,-1.1848,-1.1397,-1.0673,-1.0226,-0.9691,-0.888,-0.8184,-0.7126,-0.5392,-0.4711,-0.4132,-3.728,-3.6785,-3.6059,-3.5562,0.0,-3.4277,-3.3486,-3.2664,-3.1402,-3.0618,-3.0125,-2.9604,-2.923,-2.8915,-2.8469,-2.7981,-2.7572,-2.7395,-2.6919,-2.6275,-2.6096,-2.5755,-2.5269,-2.4991,-2.4975,-2.515,-2.4926,-2.4892,-2.4991,-2.4693,-2.4422,-2.4055,-2.3406,-2.2798,-2.218,-2.1706,-2.1131,-2.0489,-2.0898,-2.1082,-2.1006,-2.0678,-2.0351,-1.9964,-1.9687,0.0,0.0,0.0,0.0,0.0,0.0,0.0,0.0,-1.5714,0.0,-1.5233,-1.4932,-1.4804,-1.4945,-1.4754,-1.48,-1.5097,-1.4772,-1.4107,-1.3076,-1.3327,-1.3395,-1.3132,-1.359,-1.3931,-1.4109,-1.4336,-1.4546,-1.4635,-1.4805,-1.4897,-1.5055,-1.5088,-1.5155,-1.5226,-1.5125,-1.507,-1.5086,-1.4864,-1.4792,-1.4713,-1.4649,-1.4569,-1.4569,-1.4569,-1.4569,-1.4569,-1.4569,-1.4561,-1.4569,-1.4569,-1.4425,-1.4361,-1.4217,-1.4072,-1.392,-1.3564,-1.3053,-1.2599,-1.215,-1.1781,-1.0962,-1.0513,-1.0104,-0.9399,-0.8772,-0.7856,-0.6486,-0.5593,-0.4824,-3.8325,-3.775,-3.7386,-3.6865,-3.6259,-3.5305,-3.4797,-3.4478,0.0,0.0,0.0,-3.0683,-3.0218,-2.9886,-2.9347,-2.8785,-2.8276,-2.8217,-2.7778,-2.7127,-2.6992,-2.6756,-2.639,-2.5875,-2.5708,-2.5786,-2.5266,-2.5054,-2.5154,-2.5059,-2.4761,-2.4258,-2.3958,-2.3513,-2.2844,-2.2536,-2.1773,-2.0718,-2.0977,-2.1139,-2.1011,-2.0814,-2.0374,-1.982,-1.9577,-1.9145,-1.8613,-1.827,-1.8131,-1.8078,-1.7434,-1.702,-1.6888,-1.6362,-1.6053,-1.6224,-1.592,-1.6029,-1.6568,-1.6304,-1.6243,-1.6552,-1.6058,-1.5245,-1.4085,-1.4269,-1.4363,-1.4089,-1.4288,-1.4529,-1.4819,-1.4861,-1.4969,-1.5251,-1.5426,-1.5576,-1.5568,-1.5576,-1.5568,-1.5505,-1.5355,-1.5275,-1.5204,-1.5078,-1.4935,-1.4864,-1.4792,-1.4641,-1.4569,-1.4569,-1.4569,-1.4569,-1.4497,-1.4497,-1.4497,-1.4497,-1.4497,-1.4353,-1.4353,-1.4281,-1.4137,-1.3783,-1.3266,-1.2746,-1.2452,-1.1855,-1.1111,-1.0738,-1.0363,-0.9846,-0.9311,-0.8576,-0.7737,-0.6772,-0.5788,-3.9345,-3.8865,-3.7883,-3.7119,-3.6607,-3.621,-3.5786,-3.5126,-3.3231,-3.2302,-3.2064,-3.1504,-3.1287,-3.123,-3.069,-3.038,-3.0187,-2.975,-2.9087,-2.8382,-2.7865,-2.7257,-2.6722,-2.6533,-2.6459,-2.6405,-2.6004,-2.5765,-2.571,-2.5263,-2.4894,-2.466,-2.4048,-2.3239,-2.2317,-2.2047,-2.1822,-2.147,-2.1764,-2.1923,-2.1897,-2.0836,-2.0245,-2.0079,-1.9073,-1.8383,-1.8166,-1.7784,-1.7788,-1.8286,-1.771,-1.7722,-1.8626,-1.7767,-1.7589,-1.8197,-1.7853,-1.7624,-1.7626,-1.7121,-1.6807,-1.6788,-1.6735,-1.6143,-1.4911,-1.4773,-1.4798,-1.4618,-1.5005,-1.53,-1.5429,-1.5492,-1.5649,-1.5709,-1.5735,-1.5726,-1.5805,-1.5797,-1.5726,-1.5726,-1.5576,-1.5426,-1.5426,-1.5284,-1.507,-1.4935,-1.4721,-1.4721,-1.4425,-1.4425,-1.4425,-1.4425,-1.4281,-1.4201,-1.4129,-1.4209,-1.4137,-1.4129,-1.4129,-1.4129,-1.4057,-1.371,-1.3339,-1.29,-1.2452,-1.1922,-1.1329,-1.1037,-1.0663,-1.0368,-0.9841,-0.9216,-0.8557,-0.7988,-0.7131,-4.0242,-3.9727,-3.9076,-3.8469,-3.7912,-3.7129,-3.6416,-3.5632,-3.4597,-3.3684,-3.2839,-3.2133,-3.1682,-3.148,-3.1263,-3.0984,-3.0582,-3.0312,-2.9879,-2.9195,-2.8782,-2.8318,-2.7871,-2.7399,-2.7188,-2.7147,-2.6627,-2.6226,-2.5887,-2.5544,-2.5158,-2.465,-2.3984,-2.3334,-2.2687,-2.2513,-2.2397,-2.2314,-2.1908,-2.1648,-2.1579,-2.1033,-2.0715,-2.0594,-2.0042,-1.9741,-1.9701,-1.9235,-1.9143,-1.9546,-1.9285,-1.9233,-1.9356,-1.8985,-1.8855,-1.9037,-1.8708,-1.8501,-1.8636,-1.8131,-1.7632,-1.7235,-1.7142,-1.6684,-1.5769,-1.5489,-1.5323,-1.5191,-1.5492,-1.5655,-1.5655,-1.5735,-1.5867,-1.5929,-1.5929,-1.6008,-1.607,-1.6,-1.6,-1.5938,-1.5718,-1.5505,-1.5505,-1.5213,-1.4999,-1.4792,-1.4505,-1.4217,-1.4072,-1.3775,-1.3695,-1.384,-1.3775,-1.363,-1.363,-1.3622,-1.3622,-1.3622,-1.3702,-1.3775,-1.3775,-1.3492,-1.3193,-1.2826,-1.2378,-1.2003,-1.1558,-1.126,-1.1037,-1.0669,-1.0293,-0.9765,-0.9231,-0.8477,-0.7319,-4.0866,-4.0337,-4.0037,-3.9556,-3.892,-3.8019,-3.7209,-3.6529,-3.6078,-3.5268,-3.4074,-3.3027,-3.2288,-3.1835,-3.1777,-3.1411,-3.0821,-3.0687,-3.0326,-2.9851,-2.9512,-2.9212,-2.8917,-2.8239,-2.7971,-2.7903,-2.7298,-2.6755,-2.6335,-2.6053,-2.5427,-2.453,-2.3857,-2.3318,-2.2944,-2.2848,-2.2787,-2.2677,-2.1959,-2.1572,-2.1559,-2.1448,-2.126,-2.1215,-2.1023,-2.0974,-2.0917,-2.0559,-2.0493,-2.0684,-2.0734,-2.0488,-2.0084,-2.0018,-1.9907,-1.9613,-1.9254,-1.9082,-1.9121,-1.8818,-1.8279,-1.7539,-1.7323,-1.6968,-1.6342,-1.6,-1.5797,-1.5647,-1.5788,-1.5867,-1.5788,-1.5867,-1.6,-1.6132,-1.6132,-1.6202,-1.6272,-1.6202,-1.6132,-1.6061,-1.578,-1.5505,-1.5426,-1.5221,-1.4856,-1.4569,-1.4072,-1.3717,-1.3572,-1.3127,-1.2966,-1.3032,-1.3039,-1.2973,-1.2973,-1.2973,-1.2973,-1.2973,-1.3119,-1.3193,-1.32,-1.3046,-1.2893,-1.2526,-1.2305,-1.2003,-1.1558,-1.1409,-1.1224,-1.0879,-1.0547,-1.0096,-0.9421,-0.8425,-0.7419,-4.096,-4.0531,-4.0221,-3.9661,-3.9023,-3.8761,-3.8404,-3.8068,-3.7318,-3.6662,-3.5975,-3.4802,-3.3762,-3.2938,-3.2732,-3.2182,-3.1279,-3.094,-3.0717,-3.0447,-2.9851,-2.954,-2.9477,-2.8903,-2.8698,-2.8602,-2.7971,-2.7569,-2.7406,-2.6735,-2.5786,-2.4554,-2.3571,-2.2909,-2.2543,-2.2482,-2.242,-2.2259,-2.2163,-2.2286,-2.2493,-2.2038,-2.1709,-2.1697,-2.1128,-2.0827,-2.0888,-2.0656,-2.0827,-2.1272,-2.1236,-2.1185,-2.1167,-2.0837,-2.049,-2.0322,-1.989,-1.9417,-1.8859,-1.8761,-1.8405,-1.7598,-1.7461,-1.7097,-1.6412,-1.6132,-1.6,-1.5867,-1.5929,-1.5982,-1.5886,-1.6053,-1.6193,-1.6193,-1.6263,-1.6272,-1.6272,-1.6202,-1.6132,-1.6132,-1.5718,-1.5505,-1.5434,-1.5141,-1.4848,-1.4346,-1.3775,-1.3346,-1.3046,-1.2599,-1.2298,-1.2218,-1.2224,-1.2372,-1.2372,-1.2378,-1.2378,-1.2378,-1.2378,-1.2452,-1.2452,-1.2452,-1.2305,-1.215,-1.1935,-1.1706,-1.1601,-1.1545,-1.1304,-1.0948,-1.0665,-1.0252,-0.9204,-0.8345,-0.7593,-4.0977,-4.0614,-4.0271,-3.9644,-3.9023,-3.8914,-3.8805,-3.8606,-3.8163,-3.7754,-3.7249,-3.6472,-3.5282,-3.3885,-3.3649,-3.2975,-3.2049,-3.1753,-3.1307,-3.0597,-3.0205,-2.9913,-2.954,-2.9162,-2.8908,-2.878,-2.8407,-2.8058,-2.7588,-2.6601,-2.5618,-2.4659,-2.3779,-2.3145,-2.2756,-2.2466,-2.2247,-2.2197,-2.2197,-2.2259,-2.2347,-2.2153,-2.2043,-2.2019,-2.1765,-2.1668,-2.1608,-2.1536,-2.1584,-2.1726,-2.1725,-2.1685,-2.1376,-2.0715,-2.0331,-2.0324,-1.9823,-1.9229,-1.8549,-1.8674,-1.8414,-1.7539,-1.752,-1.7235,-1.6412,-1.6333,-1.6272,-1.607,-1.6061,-1.6053,-1.6105,-1.6263,-1.6342,-1.6394,-1.6473,-1.6473,-1.6473,-1.6342,-1.614,-1.5929,-1.5443,-1.507,-1.4927,-1.4497,-1.4137,-1.3768,-1.3258,-1.2746,-1.2526,-1.2077,-1.1781,-1.1632,-1.1632,-1.1632,-1.1706,-1.1781,-1.1781,-1.1781,-1.1855,-1.1929,-1.1929,-1.1929,-1.1929,-1.1848,-1.1706,-1.1563,-1.1471,-1.1379,-1.1238,-1.0941,-1.0472,-0.9915,-0.8917,-0.8319,-0.7798,-4.1012,-4.0648,-4.0188,-3.9661,-3.9094,-3.9094,-3.8969,-3.886,-3.875,-3.8472,-3.8001,-3.7594,-3.6585,-3.5254,-3.4575,-3.3759,-3.2931,-3.2676,-3.2018,-3.1068,-3.0783,-3.033,-2.9755,-2.9338,-2.9022,-2.8844,-2.8716,-2.8356,-2.7769,-2.6651,-2.5729,-2.505,-2.4149,-2.3509,-2.3019,-2.2582,-2.2342,-2.2209,-2.2197,-2.2197,-2.2197,-2.2197,-2.2197,-2.2197,-2.2197,-2.2247,-2.2247,-2.2259,-2.2185,-2.2049,-2.2159,-2.1961,-2.14,-2.0681,-2.0222,-2.0107,-1.9605,-1.9075,-1.8519,-1.8664,-1.8472,-1.7735,-1.7725,-1.7373,-1.6682,-1.6542,-1.6473,-1.6272,-1.6272,-1.6263,-1.6333,-1.6412,-1.6551,-1.6682,-1.6682,-1.6682,-1.6603,-1.6403,-1.6132,-1.5726,-1.5221,-1.4721,-1.4353,-1.3928,-1.3492,-1.3266,-1.2746,-1.2231,-1.2077,-1.1706,-1.1403,-1.1335,-1.1186,-1.1186,-1.126,-1.1335,-1.1335,-1.1335,-1.1477,-1.1558,-1.1558,-1.1558,-1.1558,-1.1484,-1.1484,-1.147,-1.142,-1.1312,-1.1205,-1.0729,-1.0238,-0.9604,-0.8874,-0.8374,-0.7769,-4.0953,-4.0583,-3.9986,-3.9573,-3.9272,-3.9272,-3.9148,-3.8985,-3.8969,-3.875,-3.8319,-3.8017,-3.7546,-3.6914,-3.56,-3.4516,-3.3774,-3.3408,-3.2805,-3.1926,-3.1652,-3.0993,-3.0078,-2.9574,-2.9198,-2.9035,-2.8716,-2.8481,-2.8166,-2.7233,-2.6427,-2.5841,-2.4838,-2.3888,-2.3188,-2.2967,-2.269,-2.2294,-2.2209,-2.2185,-2.2197,-2.2197,-2.2197,-2.2185,-2.2197,-2.2247,-2.2371,-2.2432,-2.2445,-2.2359,-2.2261,-2.1928,-2.1439,-2.0917,-2.0245,-1.9607,-1.9386,-1.9142,-1.8787,-1.8731,-1.8549,-1.8076,-1.7794,-1.7432,-1.6899,-1.6682,-1.6603,-1.6533,-1.6542,-1.6533,-1.6524,-1.6682,-1.6839,-1.6839,-1.6908,-1.676,-1.6612,-1.6342,-1.5991,-1.5505,-1.4927,-1.4361,-1.3935,-1.3637,-1.3273,-1.2826,-1.2452,-1.2083,-1.1632,-1.1484,-1.1335,-1.1186,-1.1111,-1.1117,-1.1111,-1.1186,-1.1186,-1.118,-1.1186,-1.1186,-1.1186,-1.126,-1.126,-1.1323,-1.1434,-1.1481,-1.1369,-1.123,-1.1063,-1.0651,-0.9945,-0.9332,-0.8892,-0.8229,-0.7676,-4.0648,-4.0138,-3.9833,-3.952,-3.9325,-3.9288,-3.9272,-3.9218,-3.904,-3.8805,-3.8528,-3.8173,-3.7754,-3.7266,-3.6445,-3.5554,-3.4699,-3.4346,-3.3692,-3.2835,-3.2161,-3.1471,-3.0697,-2.9924,-2.9338,-2.9099,-2.878,-2.8509,-2.8274,-2.7696,-2.713,-2.6496,-2.5532,-2.4681,-2.4093,-2.3369,-2.2871,-2.2678,-2.2253,-2.1999,-2.2011,-2.1987,-2.1999,-2.1999,-2.2247,-2.2359,-2.242,-2.2432,-2.2432,-2.242,-2.2087,-2.1839,-2.1537,-2.0794,-2.0063,-1.9584,-1.9341,-1.9065,-1.8808,-1.8808,-1.8539,-1.8076,-1.7784,-1.7432,-1.7038,-1.683,-1.676,-1.6682,-1.676,-1.676,-1.676,-1.683,-1.6908,-1.6908,-1.6908,-1.676,-1.6482,-1.6202,-1.585,-1.5221,-1.4505,-1.3928,-1.3564,-1.3266,-1.2973,-1.2673,-1.2224,-1.1855,-1.1632,-1.1409,-1.1186,-1.1111,-1.1117,-1.1117,-1.1117,-1.1111,-1.1111,-1.1111,-1.1117,-1.1111,-1.1186,-1.1186,-1.1186,-1.1224,-1.1329,-1.1285,-1.1128,-1.0992,-1.0797,-1.0443,-0.9753,-0.9367,-0.8905,-0.8382,-0.7922,-4.0337,-3.9833,-3.9677,-3.9537,-3.9342,-3.9288,-3.9288,-3.9272,-3.9148,-3.8969,-3.8694,-3.8399,-3.7985,-3.7519,-3.7118,-3.6491,-3.5677,-3.5198,-3.4553,-3.3704,-3.3028,-3.2152,-3.1277,-3.0486,-2.9722,-2.9176,-2.878,-2.8509,-2.8365,-2.8052,-2.759,-2.6989,-2.6173,-2.5382,-2.4774,-2.3887,-2.3424,-2.3183,-2.2512,-2.2186,-2.2238,-2.1957,-2.1874,-2.1937,-2.2111,-2.2297,-2.242,-2.242,-2.2359,-2.2297,-2.2099,-2.1714,-2.1262,-2.056,-1.9977,-1.9605,-1.9264,-1.9075,-1.8942,-1.8798,-1.8549,-1.8144,-1.7794,-1.7451,-1.7047,-1.6968,-1.683,-1.676,-1.683,-1.6908,-1.6908,-1.6908,-1.6908,-1.6908,-1.6908,-1.676,-1.6342,-1.6132,-1.5568,-1.4784,-1.4,-1.3492,-1.32,-1.2973,-1.2673,-1.2452,-1.2009,-1.1781,-1.1632,-1.1409,-1.1186,-1.1105,-1.1117,-1.1117,-1.1117,-1.1117,-1.1117,-1.1117,-1.1117,-1.1117,-1.1111,-1.1117,-1.1174,-1.1137,-1.1089,-1.1006,-1.0915,-1.0679,-1.0418,-1.013,-0.9862,-0.9554,-0.9092,-0.8705,-0.8247,-3.9986,-3.9746,-3.9554,-3.9501,-3.9325,-3.9325,-3.9342,-3.9325,-3.9325,-3.9202,-3.8969,-3.8694,-3.8343,-3.7886,-3.7551,-3.7087,-3.6554,-3.5963,-3.5281,-3.4502,-3.4148,-3.321,-3.1772,-3.118,-3.0298,-2.9275,-2.8844,-2.8587,-2.8522,-2.8262,-2.7789,-2.7229,-2.6663,-2.5909,-2.4908,-2.457,-2.4194,-2.3761,-2.306,-2.2786,-2.2867,-2.2143,-2.1832,-2.1922,-2.1886,-2.2049,-2.2359,-2.2359,-2.2297,-2.2185,-2.2123,-2.1628,-2.0749,-2.0257,-1.9977,-1.9605,-1.9274,-1.9131,-1.8998,-1.8674,-1.8414,-1.8212,-1.7803,-1.7382,-1.7166,-1.6968,-1.6908,-1.6899,-1.6908,-1.6908,-1.6908,-1.6908,-1.6908,-1.6908,-1.6908,-1.67,-1.6342,-1.5982,-1.5338,-1.4346,-1.363,-1.3119,-1.29,-1.2753,-1.2526,-1.2224,-1.2003,-1.1855,-1.1558,-1.1409,-1.126,-1.1186,-1.1111,-1.1117,-1.1117,-1.1117,-1.1117,-1.1117,-1.1117,-1.1117,-1.1111,-1.1111,-1.126,-1.1286,-1.1219,-1.1115,-1.0836,-1.0708,-1.0507,-1.0238,-0.9989,-0.9734,-0.9344,-0.8952,-0.8571,-4.0104,-3.9849,-3.9798,-3.9694,-3.959,-3.9573,-3.959,-3.9573,-3.9573,-3.9415,-3.9202,-3.8985,-3.8639,-3.8205,-3.7817,-3.7389,-3.7013,-3.6445,-3.59,-3.5341,-3.4681,-3.3898,-3.2824,-3.1645,-3.0334,-2.9182,-2.878,-2.8651,-2.8587,-2.8379,-2.8052,-2.7564,-2.7095,-2.6557,-2.5865,-2.5135,-2.4626,-2.4401,-2.3518,-2.3112,-2.3065,-2.229,-2.1969,-2.2051,-2.1799,-2.1663,-2.1874,-2.1987,-2.2049,-2.2011,-2.1788,-2.1262,-2.0549,-2.0118,-1.9791,-1.9407,-1.9075,-1.8875,-1.8808,-1.8482,-1.8144,-1.8008,-1.7461,-1.7176,-1.7166,-1.6987,-1.6927,-1.6908,-1.6908,-1.6908,-1.6908,-1.6908,-1.6908,-1.6908,-1.6908,-1.676,-1.6272,-1.5559,-1.4776,-1.4201,-1.3557,-1.3127,-1.29,-1.2746,-1.2452,-1.2224,-1.2077,-1.1922,-1.1781,-1.1558,-1.1403,-1.1329,-1.1186,-1.1117,-1.1117,-1.1117,-1.1117,-1.1117,-1.1117,-1.1117,-1.1111,-1.118,-1.1329,-1.129,-1.1223,-1.1067,-1.0843,-1.0655,-1.0518,-1.0364,-1.0174,-0.9913,-0.9524,-0.9204,-0.8823,-4.0037,-3.9884,-3.9849,-3.9798,-3.9677,-3.9677,-3.9677,-3.9677,-3.9677,-3.9573,-3.9379,-3.9202,-3.886,-3.8432,-3.8033,-3.7626,-3.7194,-3.6846,-3.6414,-3.5849,-3.5247,-3.4599,-3.3715,-3.1959,-3.0538,-2.9444,-2.894,-2.8716,-2.8587,-2.8444,-2.817,-2.7776,-2.731,-2.6824,-2.6402,-2.5554,-2.5095,-2.4966,-2.411,-2.3632,-2.3391,-2.2669,-2.2269,-2.229,-2.187,-2.164,-2.1631,-2.1649,-2.1684,-2.1596,-2.1285,-2.0764,-2.0324,-1.9998,-1.9681,-1.9351,-1.9075,-1.8875,-1.8808,-1.8482,-1.8076,-1.7862,-1.7392,-1.7116,-1.7107,-1.6927,-1.6927,-1.6908,-1.6908,-1.6908,-1.6908,-1.6908,-1.6908,-1.6908,-1.6908,-1.6691,-1.6132,-1.5204,-1.4561,-1.4057,-1.3484,-1.3119,-1.29,-1.2599,-1.2452,-1.2298,-1.2224,-1.2077,-1.2009,-1.1706,-1.1558,-1.1403,-1.1186,-1.1111,-1.1117,-1.1117,-1.1117,-1.1117,-1.1117,-1.1117,-1.1111,-1.1248,-1.1385,-1.1274,-1.1151,-1.0975,-1.0715,-1.0692,-1.0555,-1.0428,-1.0364,-1.0104,-0.9786,-0.9524,-0.9204,-3.9901,-3.9901,-3.9798,-3.9729,-3.9729,-3.9729,-3.9781,-3.9729,-3.9729,-3.9677,-3.9537,-3.9379,-3.904,-3.8623,-3.823,-3.777,-3.7254,-3.7044,-3.6677,-3.6274,-3.5758,-3.5183,-3.4163,-3.2416,-3.1112,-3.0183,-2.938,-2.8862,-2.8665,-2.8587,-2.8314,-2.7842,-2.7456,-2.6973,-2.6483,-2.5873,-2.5615,-2.546,-2.4807,-2.4384,-2.4279,-2.3258,-2.2719,-2.2617,-2.2252,-2.1823,-2.1576,-2.1363,-2.126,-2.1122,-2.0722,-2.0324,-2.0053,-1.9802,-1.9483,-1.9274,-1.9142,-1.8942,-1.8741,-1.8472,-1.8212,-1.7716,-1.7529,-1.7323,-1.6978,-1.6908,-1.6848,-1.6908,-1.6908,-1.6908,-1.6908,-1.6839,-1.6839,-1.6839,-1.6769,-1.6482,-1.5833,-1.5062,-1.4489,-1.4057,-1.3404,-1.29,-1.29,-1.2526,-1.2378,-1.2298,-1.2305,-1.2231,-1.2083,-1.1855,-1.1632,-1.1484,-1.126,-1.1111,-1.1117,-1.1117,-1.1117,-1.1117,-1.1111,-1.1111,-1.1143,-1.1261,-1.1357,-1.123,-1.1053,-1.085,-1.0688,-1.0601,-1.0618,-1.0555,-1.0428,-1.0238,-1.0047,-0.9843,-0.9588,-4.0037,-4.0037,-4.0037,-3.9986,-3.9969,-3.9969,-3.9969,-3.9969,-3.9986,-3.9901,-3.9746,-3.9537,-3.9255,-3.886,-3.8343,-3.7886,-3.7567,-3.7165,-3.6862,-3.6538,-3.6211,-3.5404,-3.4465,-3.3381,-3.2026,-3.0807,-3.0127,-2.9541,-2.8807,-2.8651,-2.8406,-2.8013,-2.7603,-2.7188,-2.6794,-2.6258,-2.605,-2.598,-2.5356,-2.4943,-2.4649,-2.3828,-2.3177,-2.2922,-2.2268,-2.1896,-2.1616,-2.1081,-2.0797,-2.0868,-2.0357,-2.0031,-2.0019,-1.9647,-1.9351,-1.9208,-1.8998,-1.8808,-1.8549,-1.8347,-1.8008,-1.7598,-1.7323,-1.6968,-1.6899,-1.676,-1.676,-1.683,-1.6908,-1.6908,-1.6899,-1.6751,-1.6612,-1.6482,-1.6342,-1.6061,-1.5488,-1.4856,-1.4281,-1.3855,-1.3266,-1.2973,-1.282,-1.2592,-1.2305,-1.2305,-1.2305,-1.2305,-1.2157,-1.1855,-1.1632,-1.1552,-1.1403,-1.1186,-1.1117,-1.1117,-1.1117,-1.1117,-1.1111,-1.1099,-1.1163,-1.1205,-1.1274,-1.1296,-1.1022,-1.0815,-1.0668,-1.0624,-1.0618,-1.0618,-1.0555,-1.0364,-1.0301,-1.0104,-0.9983,-4.0087,-4.0087,-4.0087,-4.0087,-4.0087,-4.0087,-4.0087,-4.0087,-4.0087,-4.0037,-3.9901,-3.9694,-3.9432,-3.9094,-3.8567,-3.8116,-3.7743,-3.727,-3.6968,-3.6662,-3.6289,-3.5634,-3.4778,-3.4009,-3.2775,-3.1404,-3.0628,-2.973,-2.894,-2.8651,-2.8406,-2.8079,-2.7802,-2.7403,-2.6943,-2.6533,-2.6258,-2.6131,-2.5688,-2.53,-2.4969,-2.433,-2.3704,-2.3349,-2.2711,-2.232,-2.1843,-2.1038,-2.0608,-2.051,-2.0029,-1.9703,-1.9767,-1.9449,-1.9208,-1.9075,-1.9008,-1.8818,-1.8549,-1.8279,-1.7998,-1.7657,-1.7323,-1.7116,-1.7038,-1.6821,-1.683,-1.6899,-1.6908,-1.683,-1.676,-1.6542,-1.6342,-1.607,-1.5771,-1.548,-1.5204,-1.4705,-1.4209,-1.371,-1.3273,-1.2826,-1.2826,-1.2445,-1.2378,-1.2305,-1.2305,-1.2305,-1.2231,-1.1929,-1.1706,-1.1552,-1.1409,-1.1186,-1.1117,-1.1117,-1.1111,-1.1111,-1.126,-1.1248,-1.1174,-1.124,-1.1248,-1.1242,-1.1009,-1.0775,-1.0712,-1.0618,-1.0618,-1.0618,-1.0618,-1.0555,-1.0428,-1.0364,-1.018,-4.0087,-4.0087,-4.0087,-4.0087,-4.0087,-4.0087,-4.0087,-4.0087,-4.0087,-4.0037,-3.9901,-3.9781,-3.959,-3.9272,-3.8805,-3.8343,-3.7886,-3.7433,-3.7013,-3.6646,-3.6226,-3.58,-3.5404,-3.4389,-3.3333,-3.217,-3.0974,-3.0026,-2.9261,-2.8825,-2.8471,-2.821,-2.7921,-2.7536,-2.7066,-2.6645,-2.6383,-2.6201,-2.591,-2.5535,-2.5158,-2.4684,-2.423,-2.3711,-2.325,-2.2673,-2.2034,-2.1246,-2.067,-2.0429,-1.9739,-1.9494,-1.9442,-1.9214,-1.9173,-1.9142,-1.9065,-1.8942,-1.8617,-1.8549,-1.8269,-1.7852,-1.7598,-1.7461,-1.7176,-1.6968,-1.6908,-1.6908,-1.6908,-1.676,-1.6551,-1.6272,-1.6,-1.5718,-1.5275,-1.5054,-1.4982,-1.4633,-1.4145,-1.3564,-1.3127,-1.2826,-1.2599,-1.2445,-1.2305,-1.2305,-1.2305,-1.2305,-1.2231,-1.1929,-1.1781,-1.1632,-1.1409,-1.1117,-1.1117,-1.1117,-1.1111,-1.1186,-1.1335,-1.1409,-1.1274,-1.1268,-1.1207,-1.1142,-1.0992,-1.0907,-1.0728,-1.0681,-1.0618,-1.0618,-1.0618,-1.0618,-1.0555,-1.0434,-1.0308,-4.0087,-4.0087,-4.0087,-4.0087,-4.0087,-4.0087,-4.0138,-4.0138,-4.0121,-4.0087,-4.0037,-3.9935,-3.9694,-3.9448,-3.8969,-3.8511,-3.8059,-3.7476,-3.6952,-3.6554,-3.6163,-3.5973,-3.5703,-3.4976,-3.4083,-3.305,-3.1857,-3.0779,-2.9975,-2.9063,-2.8522,-2.8457,-2.8,-2.759,-2.7255,-2.6863,-2.6589,-2.6396,-2.6201,-2.584,-2.5465,-2.5099,-2.4611,-2.4043,-2.3446,-2.2809,-2.2126,-2.1576,-2.1146,-2.0886,-2.0461,-1.9965,-1.9486,-1.9514,-1.9479,-1.9308,-1.9183,-1.9029,-1.8818,-1.8694,-1.8472,-1.7998,-1.7784,-1.751,-1.7235,-1.7038,-1.6908,-1.6908,-1.6908,-1.6769,-1.6412,-1.607,-1.5788,-1.5505,-1.4999,-1.4633,-1.4497,-1.4217,-1.3783,-1.3346,-1.3046,-1.282,-1.2599,-1.2452,-1.2305,-1.2305,-1.2305,-1.2305,-1.2157,-1.1929,-1.1781,-1.1706,-1.1409,-1.1111,-1.1117,-1.1117,-1.1186,-1.1218,-1.1428,-1.1509,-1.1442,-1.1368,-1.1337,-1.1245,-1.1155,-1.0967,-1.0814,-1.0744,-1.0681,-1.0618,-1.0618,-1.0618,-1.0555,-1.0498,-1.0434,-4.0121,-4.0205,-4.0188,-4.0221,-4.0288,-4.0271,-4.0271,-4.0288,-4.0271,-4.0271,-4.0221,-4.0087,-3.9884,-3.9625,-3.9131,-3.8694,-3.823,-3.7594,-3.7074,-3.6662,-3.6352,-3.6226,-3.5958,-3.54,-3.461,-3.3456,-3.2202,-3.1199,-3.0243,-2.9316,-2.8651,-2.8587,-2.8118,-2.7802,-2.7403,-2.6998,-2.6807,-2.6602,-2.6339,-2.605,-2.5758,-2.5312,-2.4814,-2.4189,-2.3446,-2.2852,-2.2499,-2.203,-2.1744,-2.1522,-2.1176,-2.0741,-2.0102,-2.0069,-2.0014,-1.9948,-1.9635,-1.9417,-1.9192,-1.8998,-1.8751,-1.8289,-1.7998,-1.7716,-1.7442,-1.7166,-1.6968,-1.6908,-1.6908,-1.676,-1.6342,-1.5771,-1.5497,-1.5284,-1.4776,-1.4346,-1.4209,-1.4,-1.3645,-1.3273,-1.3053,-1.2826,-1.2599,-1.2452,-1.2305,-1.2305,-1.2305,-1.2305,-1.2231,-1.2009,-1.1781,-1.1632,-1.1335,-1.1111,-1.1111,-1.1111,-1.1186,-1.1261,-1.1395,-1.1468,-1.15,-1.1465,-1.1508,-1.133,-1.1157,-1.1066,-1.087,-1.0807,-1.0744,-1.0688,-1.0624,-1.0618,-1.0561,-1.0561,-1.0434,-4.0238,-4.0337,-4.0337,-4.0387,-4.0468,-4.0485,-4.0468,-4.0485,-4.0485,-4.0468,-4.0436,-4.0238,-4.0037,-3.9833,-3.9362,-3.8931,-3.8343,-3.777,-3.7134,-3.6785,-3.66,-3.6414,-3.6148,-3.5672,-3.491,-3.3689,-3.2614,-3.1528,-3.0532,-2.9504,-2.8957,-2.8692,-2.8276,-2.7934,-2.7536,-2.7201,-2.6875,-2.6658,-2.6396,-2.6201,-2.591,-2.5535,-2.4969,-2.4189,-2.3666,-2.315,-2.2852,-2.2424,-2.2145,-2.2101,-2.1873,-2.1574,-2.1094,-2.074,-2.0575,-2.082,-2.0359,-2.0031,-1.9779,-1.9421,-1.9085,-1.8718,-1.8221,-1.793,-1.7706,-1.7373,-1.7107,-1.6899,-1.683,-1.6621,-1.6272,-1.57,-1.5267,-1.4991,-1.4489,-1.4129,-1.4065,-1.3863,-1.3572,-1.3273,-1.3046,-1.282,-1.2599,-1.2452,-1.2378,-1.2305,-1.2305,-1.2305,-1.2157,-1.2009,-1.1781,-1.1558,-1.1335,-1.1111,-1.1117,-1.1111,-1.1186,-1.123,-1.1338,-1.134,-1.1456,-1.1438,-1.1404,-1.1319,-1.1192,-1.1115,-1.1059,-1.0996,-1.087,-1.0688,-1.0624,-1.0681,-1.0618,-1.0561,-1.0434,-4.0419,-4.0485,-4.0485,-4.0468,-4.0485,-4.0485,-4.0534,-4.0485,-4.0517,-4.0485,-4.0485,-4.0337,-4.0188,-3.9969,-3.9642,-3.8914,-3.8214,-3.7653,-3.7254,-3.6984,-3.68,-3.6585,-3.6352,-3.5973,-3.5275,-3.4494,-3.3425,-3.2279,-3.118,-3.0242,-2.9398,-2.9004,-2.8392,-2.8,-2.7669,-2.7268,-2.6943,-2.6726,-2.6533,-2.6339,-2.6119,-2.5688,-2.5182,-2.4406,-2.4043,-2.3593,-2.3075,-2.2777,-2.2478,-2.2111,-2.1883,-2.179,-2.1561,-2.1176,-2.099,-2.0895,-2.0747,-2.06,-2.0396,-2.0111,-1.9823,-1.9435,-1.8841,-1.8144,-1.7773,-1.742,-1.7297,-1.6945,-1.6648,-1.6342,-1.6132,-1.5559,-1.5062,-1.4705,-1.4353,-1.3992,-1.3855,-1.3717,-1.3499,-1.3193,-1.3039,-1.282,-1.2673,-1.2452,-1.2378,-1.2305,-1.2305,-1.2305,-1.2231,-1.2009,-1.1706,-1.1558,-1.1335,-1.1186,-1.1117,-1.1111,-1.1168,-1.1126,-1.1197,-1.1205,-1.1211,-1.1303,-1.1242,-1.1234,-1.1303,-1.131,-1.1247,-1.1122,-1.0996,-1.087,-1.0807,-1.0744,-1.0681,-1.0624,-1.0434,-4.0534,-4.0583,-4.06,-4.0631,-4.068,-4.0728,-4.0728,-4.0745,-4.068,-4.0728,-4.068,-4.0534,-4.0404,-4.0138,-3.9849,-3.9185,-3.8343,-3.7844,-3.7508,-3.721,-3.7029,-3.6846,-3.66,-3.6211,-3.5752,-3.508,-3.4259,-3.3039,-3.1683,-3.0681,-2.9836,-2.9096,-2.8509,-2.8118,-2.7868,-2.7348,-2.7011,-2.6807,-2.6602,-2.6465,-2.6327,-2.5886,-2.5253,-2.4897,-2.4406,-2.397,-2.3519,-2.3001,-2.2703,-2.2327,-2.2035,-2.1883,-2.1735,-2.1611,-2.1383,-2.1324,-2.1219,-2.1134,-2.1071,-2.0734,-2.0481,-2.0229,-1.9524,-1.8973,-1.8582,-1.8247,-1.7679,-1.7079,-1.6544,-1.6202,-1.5938,-1.5459,-1.4927,-1.4641,-1.4232,-1.3958,-1.3805,-1.3659,-1.3448,-1.3221,-1.2973,-1.2826,-1.2753,-1.2606,-1.2378,-1.2305,-1.2305,-1.2305,-1.2305,-1.2009,-1.1706,-1.1484,-1.1335,-1.1186,-1.1093,-1.1063,-1.1021,-1.1065,-1.0982,-1.0925,-1.1018,-1.1002,-1.1125,-1.1227,-1.131,-1.1435,-1.131,-1.1185,-1.1059,-1.0996,-1.0996,-1.0933,-1.0744,-1.0618,-1.0428,-4.0631,-4.0745,-4.0728,-4.0793,-4.0888,-4.0871,-4.0888,-4.0871,-4.0871,-4.0888,-4.0871,-4.0745,-4.0551,-4.0355,-3.9935,-3.9398,-3.8639,-3.8132,-3.7786,-3.7492,-3.7314,-3.7089,-3.6785,-3.6538,-3.6148,-3.5464,-3.5044,-3.3849,-3.2046,-3.1138,-3.0233,-2.9356,-2.8624,-2.8314,-2.8,-2.7469,-2.7146,-2.6875,-2.6739,-2.6521,-2.6314,-2.5968,-2.5523,-2.5241,-2.4622,-2.42,-2.374,-2.3309,-2.2852,-2.2478,-2.2176,-2.2025,-2.1807,-2.1807,-2.1807,-2.1821,-2.1808,-2.1734,-2.1586,-2.1269,-2.1076,-2.0913,-2.0268,-1.9723,-1.9238,-1.8604,-1.8128,-1.7424,-1.683,-1.6366,-1.5995,-1.5412,-1.4976,-1.4618,-1.4266,-1.3933,-1.3881,-1.3726,-1.352,-1.3329,-1.3029,-1.2833,-1.2753,-1.2532,-1.2305,-1.2305,-1.2305,-1.2305,-1.2231,-1.1935,-1.1632,-1.1484,-1.1335,-1.1186,-1.1075,-1.0991,-1.0924,-1.081,-1.0655,-1.0467,-1.0578,-1.073,-1.0967,-1.1178,-1.1428,-1.156,-1.1365,-1.1365,-1.1435,-1.1373,-1.1247,-1.1122,-1.0933,-1.0681,-1.0491,-4.0888,-4.0871,-4.0871,-4.0888,-4.0871,-4.0871,-4.0871,-4.0871,-4.0871,-4.0871,-4.0935,-4.0793,-4.0697,-4.0502,-3.9986,-3.9398,-3.8805,-3.8303,-3.7902,-3.7685,-3.7508,-3.7225,-3.6999,-3.68,-3.6352,-3.5752,-3.5524,-3.4183,-3.2645,-3.1767,-3.0777,-2.9708,-2.8949,-2.8457,-2.8235,-2.7656,-2.7281,-2.7011,-2.6794,-2.6533,-2.6258,-2.598,-2.5618,-2.517,-2.4826,-2.4345,-2.3813,-2.3383,-2.3001,-2.2478,-2.2252,-2.2025,-2.1797,-2.1807,-2.1807,-2.1883,-2.2059,-2.2307,-2.2115,-2.186,-2.1615,-2.1396,-2.0627,-1.9875,-1.9341,-1.8722,-1.8137,-1.7766,-1.7335,-1.6745,-1.6188,-1.5751,-1.5249,-1.4889,-1.4515,-1.4238,-1.4084,-1.3633,-1.3515,-1.328,-1.2973,-1.2728,-1.2606,-1.2459,-1.2305,-1.2305,-1.2305,-1.2305,-1.2231,-1.1929,-1.1558,-1.1335,-1.126,-1.1117,-1.1045,-1.0966,-1.0791,-1.0689,-1.0426,-1.0135,-1.0346,-1.0566,-1.0876,-1.1178,-1.1428,-1.174,-1.174,-1.1747,-1.1809,-1.1747,-1.1622,-1.1373,-1.1122,-1.087,-1.0681,-4.0871,-4.0871,-4.0871,-4.0871,-4.0871,-4.0871,-4.0871,-4.0871,-4.0871,-4.0935,-4.0982,-4.0935,-4.0858,-4.06,-3.9986,-3.9451,-3.8952,-3.8399,-3.8001,-3.7801,-3.7583,-3.7345,-3.715,-3.6923,-3.6554,-3.6163,-3.5691,-3.4946,-3.346,-3.2378,-3.1454,-3.0221,-2.9342,-2.8638,-2.8365,-2.7789,-2.7403,-2.7134,-2.6863,-2.6602,-2.6327,-2.605,-2.5688,-2.5324,-2.4981,-2.4418,-2.3897,-2.3604,-2.3075,-2.2553,-2.2252,-2.2101,-2.1883,-2.1807,-2.1807,-2.1949,-2.2252,-2.2392,-2.2349,-2.2179,-2.2168,-2.1999,-2.1236,-2.0371,-1.9668,-1.8957,-1.8297,-1.7993,-1.7468,-1.6935,-1.6259,-1.5697,-1.5242,-1.4869,-1.4638,-1.4452,-1.4145,-1.3683,-1.3388,-1.3147,-1.29,-1.2716,-1.2553,-1.2378,-1.2305,-1.2305,-1.2305,-1.2305,-1.2157,-1.1929,-1.1558,-1.118,-1.1111,-1.1117,-1.1021,-1.0924,-1.0659,-1.049,-1.023,-1.0049,-1.0179,-1.0424,-1.0758,-1.1247,-1.1622,-1.1872,-1.1996,-1.2058,-1.1996,-1.1996,-1.1941,-1.1685,-1.1435,-1.131,-1.0996,-4.0871,-4.0871,-4.0871,-4.0871,-4.0871,-4.0871,-4.0935,-4.0935,-4.0935,-4.1029,-4.1093,-4.1093,-4.0953,-4.0648,-4.0087,-3.9609,-3.9152,-3.8511,-3.8132,-3.786,-3.7642,-3.7389,-3.721,-3.7044,-3.6739,-3.6429,-3.5958,-3.5209,-3.4297,-3.3343,-3.219,-3.0814,-2.9995,-2.9201,-2.8536,-2.8052,-2.7656,-2.7268,-2.6863,-2.6658,-2.6452,-2.6107,-2.5758,-2.5407,-2.5052,-2.449,-2.3982,-2.3762,-2.3235,-2.2703,-2.2381,-2.2155,-2.2025,-2.1959,-2.2035,-2.2176,-2.2402,-2.2478,-2.2478,-2.2435,-2.2553,-2.2338,-2.1721,-2.0671,-2.0071,-1.9319,-1.8706,-1.8326,-1.7898,-1.7192,-1.6419,-1.5913,-1.5574,-1.52,-1.4779,-1.4475,-1.423,-1.3846,-1.3417,-1.3083,-1.2864,-1.2594,-1.2439,-1.2325,-1.2305,-1.2305,-1.2305,-1.2305,-1.2077,-1.1855,-1.1558,-1.118,-1.1099,-1.1057,-1.0906,-1.0773,-1.0532,-1.0297,-1.0037,-0.997,-1.0097,-1.0404,-1.0821,-1.1247,-1.1747,-1.2058,-1.2243,-1.2243,-1.2182,-1.2189,-1.2189,-1.1996,-1.1809,-1.167,-1.1219,-4.0871,-4.0871,-4.0871,-4.0871,-4.0871,-4.0871,-4.0982,-4.1047,-4.1093,-4.1123,-4.118,-4.1123,-4.0935,-4.0631,-4.0238,-3.9696,-3.9169,-3.8655,-3.8221,-3.7876,-3.7642,-3.7389,-3.721,-3.6984,-3.6739,-3.6289,-3.5958,-3.5464,-3.483,-3.4118,-3.2829,-3.1372,-3.0609,-2.9875,-2.9059,-2.83,-2.7776,-2.7403,-2.6998,-2.6726,-2.6589,-2.6176,-2.5746,-2.5382,-2.4981,-2.449,-2.397,-2.3847,-2.3479,-2.2927,-2.2531,-2.2306,-2.2252,-2.2187,-2.2176,-2.2392,-2.2553,-2.2628,-2.2703,-2.2628,-2.2628,-2.2392,-2.1711,-2.0799,-2.0255,-1.9618,-1.9097,-1.8665,-1.825,-1.7817,-1.7121,-1.6553,-1.6006,-1.5553,-1.5094,-1.4864,-1.4586,-1.4125,-1.3691,-1.3133,-1.2775,-1.2505,-1.2446,-1.2318,-1.2305,-1.2305,-1.2305,-1.2224,-1.1929,-1.1706,-1.1484,-1.1254,-1.1087,-1.0985,-1.0761,-1.055,-1.0297,-1.0091,-0.9796,-0.9841,-0.9957,-1.0364,-1.0814,-1.1373,-1.1817,-1.2189,-1.2436,-1.2436,-1.2436,-1.2498,-1.2428,-1.2212,-1.1736,-1.1341,-1.0939,-4.0871,-4.0871,-4.0871,-4.0871,-4.0871,-4.1,-4.1047,-4.1093,-4.1169,-4.1226,-4.1318,-4.118,-4.1059,-4.0728,-4.0271,-3.9747,-3.9152,-3.8655,-3.8205,-3.7934,-3.7642,-3.7389,-3.721,-3.6968,-3.6677,-3.6289,-3.5925,-3.5539,-3.5073,-3.4559,-3.3492,-3.2248,-3.1219,-3.0101,-2.9215,-2.843,-2.7842,-2.7523,-2.7201,-2.6998,-2.6645,-2.6371,-2.5943,-2.5523,-2.5087,-2.4611,-2.4189,-2.3897,-2.353,-2.3139,-2.283,-2.2617,-2.2478,-2.2327,-2.2402,-2.2542,-2.2703,-2.2777,-2.2852,-2.2777,-2.2553,-2.2101,-2.1578,-2.1041,-2.042,-1.9794,-1.932,-1.8922,-1.8612,-1.8031,-1.7375,-1.6878,-1.6355,-1.5891,-1.5484,-1.5242,-1.4856,-1.4423,-1.3909,-1.3252,-1.2786,-1.2392,-1.2338,-1.2311,-1.2305,-1.2305,-1.2231,-1.215,-1.1929,-1.1687,-1.1459,-1.1249,-1.1132,-1.0852,-1.0628,-1.0357,-1.0073,-0.988,-0.9634,-0.9814,-0.9919,-1.0301,-1.0807,-1.1373,-1.1879,-1.2189,-1.2436,-1.256,-1.2536,-1.2488,-1.2403,-1.2273,-1.176,-1.1083,-1.0646,-4.0871,-4.0871,-4.0871,-4.0935,-4.1,-4.1047,-4.114,-4.1186,-4.1226,-4.1318,-4.1426,-4.1272,-4.1088,-4.0806,-4.032,-3.9747,-3.9152,-3.8655,-3.8278,-3.7934,-3.7642,-3.7389,-3.715,-3.6907,-3.6538,-3.6304,-3.5797,-3.5359,-3.503,-3.4831,-3.3798,-3.2608,-3.1668,-3.0623,-2.94,-2.8495,-2.7921,-2.7656,-2.7403,-2.7214,-2.685,-2.6564,-2.6289,-2.5734,-2.5382,-2.4945,-2.4455,-2.4154,-2.379,-2.3508,-2.3224,-2.3001,-2.2777,-2.2628,-2.2713,-2.2703,-2.2777,-2.2852,-2.2927,-2.2852,-2.2553,-2.2187,-2.1731,-2.1118,-2.0498,-1.9872,-1.9408,-1.9002,-1.8683,-1.8201,-1.7554,-1.7147,-1.673,-1.6229,-1.5733,-1.5394,-1.5015,-1.4629,-1.4017,-1.3495,-1.3022,-1.2608,-1.2325,-1.2305,-1.2305,-1.2305,-1.2305,-1.2157,-1.2009,-1.1755,-1.1636,-1.1395,-1.1137,-1.082,-1.0554,-1.0349,-1.0025,-0.9706,-0.9627,-0.9719,-0.9983,-1.0364,-1.0744,-1.1303,-1.1747,-1.2182,-1.232,-1.2364,-1.2393,-1.2369,-1.2198,-1.1897,-1.1583,-1.0909,-1.0493,-4.0871,-4.0871,-4.0871,-4.0982,-4.1093,-4.1111,-4.1233,-4.1353,-4.138,-4.1471,-4.156,-4.13,-4.1088,-4.0823,-4.0337,-3.9747,-3.9206,-3.8655,-3.8221,-3.786,-3.7642,-3.7405,-3.715,-3.6769,-3.6399,-3.5988,-3.5539,-3.5096,-3.4765,-3.4698,-3.3806,-3.2759,-3.1853,-3.1082,-2.9769,-2.8944,-2.8314,-2.7842,-2.759,-2.739,-2.7134,-2.6752,-2.6553,-2.6082,-2.5715,-2.5385,-2.4886,-2.4492,-2.4131,-2.3959,-2.3677,-2.3457,-2.315,-2.3001,-2.3001,-2.2927,-2.3001,-2.3001,-2.3001,-2.3001,-2.2703,-2.2252,-2.1797,-2.1195,-2.0576,-2.0029,-1.9408,-1.9002,-1.8772,-1.8451,-1.7959,-1.7473,-1.6984,-1.6566,-1.5989,-1.5569,-1.5189,-1.4712,-1.4151,-1.3528,-1.3237,-1.2934,-1.2506,-1.2305,-1.2305,-1.2305,-1.2305,-1.2157,-1.2009,-1.1905,-1.1754,-1.1389,-1.1093,-1.0779,-1.0504,-1.0331,-1.0048,-0.9728,-0.9566,-0.9676,-0.9983,-1.0301,-1.0737,-1.124,-1.1663,-1.2035,-1.2081,-1.2122,-1.1941,-1.167,-1.1529,-1.1267,-1.1001,-1.0642,-1.013,-4.0871,-4.0871,-4.0871,-4.1012,-4.1134,-4.118,-4.1272,-4.138,-4.1515,-4.156,-4.156,-4.13,-4.1088,-4.0776,-4.032,-3.9799,-3.9206,-3.8655,-3.8221,-3.7876,-3.7658,-3.7345,-3.7029,-3.6585,-3.6211,-3.5767,-3.5279,-3.4964,-3.4698,-3.4558,-3.3725,-3.2666,-3.1415,-3.0492,-2.9687,-2.8958,-2.8379,-2.817,-2.7842,-2.759,-2.7387,-2.7212,-2.7,-2.6446,-2.6242,-2.5863,-2.5301,-2.4886,-2.4492,-2.425,-2.4043,-2.374,-2.3446,-2.3224,-2.315,-2.3075,-2.3001,-2.3001,-2.2927,-2.2852,-2.2703,-2.2317,-2.1797,-2.1195,-2.0644,-2.0029,-1.9478,-1.9082,-1.8772,-1.8451,-1.7976,-1.7563,-1.7155,-1.6746,-1.6296,-1.5807,-1.539,-1.483,-1.4194,-1.3571,-1.3092,-1.2743,-1.2425,-1.2305,-1.2305,-1.2378,-1.2378,-1.2305,-1.2083,-1.2012,-1.1866,-1.1404,-1.1013,-1.0672,-1.0378,-1.0305,-1.0021,-0.9685,-0.9618,-0.9676,-0.9989,-1.0364,-1.0744,-1.124,-1.1586,-1.1858,-1.1759,-1.1577,-1.1148,-1.0854,-1.0737,-1.0659,-1.0494,-1.0009,-0.9423,-4.0871,-4.0935,-4.0935,-4.1059,-4.1209,-4.1209,-4.1318,-4.1471,-4.156,-4.1604,-4.1542,-4.1318,-4.1134,-4.0806,-4.037,-3.9799,-3.9259,-3.8655,-3.8237,-3.7876,-3.7599,-3.7301,-3.6923,-3.6476,-3.6006,-3.5559,-3.5067,-3.4698,-3.452,-3.4249,-3.334,-3.1974,-3.0654,-2.9973,-2.9401,-2.8944,-2.8509,-2.8235,-2.7855,-2.7721,-2.7673,-2.7644,-2.7532,-2.7201,-2.6859,-2.6441,-2.5839,-2.5266,-2.4767,-2.4455,-2.4238,-2.3925,-2.3582,-2.3372,-2.3309,-2.3075,-2.3001,-2.3001,-2.2927,-2.2777,-2.2553,-2.2176,-2.1645,-2.1118,-2.0489,-1.9863,-1.932,-1.8931,-1.8692,-1.829,-1.7887,-1.7473,-1.7147,-1.6746,-1.637,-1.5978,-1.5438,-1.4877,-1.4178,-1.3549,-1.2968,-1.2607,-1.2378,-1.2305,-1.2305,-1.2452,-1.2526,-1.2378,-1.2271,-1.2161,-1.2066,-1.1597,-1.1165,-1.0876,-1.0601,-1.0329,-1.0053,-0.9682,-0.967,-0.9734,-0.9983,-1.0364,-1.0744,-1.117,-1.1516,-1.1669,-1.1277,-1.0971,-1.0549,-1.0223,-1.0012,-0.9943,-0.9836,-0.9454,-0.8917,-4.0871,-4.0918,-4.1029,-4.1123,-4.1209,-4.1255,-4.1408,-4.1604,-4.1604,-4.1604,-4.1604,-4.13,-4.1134,-4.0982,-4.0387,-3.985,-3.9312,-3.8711,-3.8278,-3.7934,-3.7658,-3.7301,-3.6862,-3.6414,-3.5879,-3.5365,-3.492,-3.4549,-3.4327,-3.3717,-3.2645,-3.1395,-3.0233,-2.961,-2.9198,-2.8817,-2.8444,-2.8131,-2.8107,-2.797,-2.7915,-2.8029,-2.8074,-2.7851,-2.7538,-2.7013,-2.6382,-2.5767,-2.5195,-2.4743,-2.4385,-2.4036,-2.3694,-2.3593,-2.3298,-2.315,-2.3001,-2.3001,-2.2916,-2.2692,-2.2327,-2.1807,-2.1349,-2.0819,-2.0264,-1.9627,-1.9082,-1.8603,-1.8282,-1.7951,-1.7627,-1.7294,-1.7049,-1.6656,-1.6417,-1.594,-1.5465,-1.4833,-1.4127,-1.3521,-1.3,-1.2627,-1.2385,-1.2305,-1.2305,-1.2452,-1.2526,-1.2673,-1.251,-1.2416,-1.2311,-1.195,-1.1544,-1.1214,-1.09,-1.0538,-1.0263,-0.9926,-0.9862,-0.9926,-1.0174,-1.0428,-1.08,-1.1163,-1.1432,-1.1413,-1.0855,-1.0405,-0.9955,-0.9681,-0.945,-0.9383,-0.9372,-0.9071,-0.8646,-4.1047,-4.1047,-4.1093,-4.1169,-4.1363,-4.1542,-4.1692,-4.1736,-4.1648,-4.1604,-4.1604,-4.13,-4.118,-4.1047,-4.037,-3.985,-3.9276,-3.875,-3.8262,-3.7934,-3.7583,-3.7225,-3.6785,-3.6274,-3.5752,-3.5249,-3.4802,-3.4438,-3.4109,-3.3332,-3.2105,-3.0956,-2.9869,-2.9267,-2.883,-2.8444,-2.8262,-2.8186,-2.8225,-2.8203,-2.8368,-2.8607,-2.8622,-2.8442,-2.8249,-2.7618,-2.6808,-2.6093,-2.5481,-2.4873,-2.4446,-2.399,-2.3655,-2.3497,-2.3265,-2.3075,-2.2852,-2.2777,-2.2692,-2.2327,-2.1883,-2.1349,-2.0731,-2.0245,-1.9696,-1.9231,-1.8603,-1.8193,-1.7789,-1.7456,-1.7131,-1.6812,-1.6558,-1.6319,-1.6034,-1.5731,-1.526,-1.4702,-1.3993,-1.3283,-1.2781,-1.2553,-1.2311,-1.2305,-1.2305,-1.2452,-1.2532,-1.2753,-1.2853,-1.2756,-1.2608,-1.2248,-1.1911,-1.1589,-1.1121,-1.0758,-1.0504,-1.0244,-1.018,-1.018,-1.0434,-1.0681,-1.0933,-1.1057,-1.1095,-1.077,-1.0226,-0.9814,-0.9486,-0.9217,-0.8996,-0.8923,-0.885,-0.8593,-0.8381,-4.1123,-4.1169,-4.1261,-4.1471,-4.1719,-4.1841,-4.1927,-4.1952,-4.178,-4.1648,-4.156,-4.1318,-4.118,-4.1041,-4.0419,-3.9867,-3.9401,-3.875,-3.8221,-3.7876,-3.7524,-3.715,-3.6646,-3.6133,-3.5623,-3.5133,-3.4691,-3.4254,-3.3723,-3.2464,-3.1204,-3.0186,-2.9358,-2.8885,-2.8457,-2.8131,-2.7934,-2.7946,-2.8114,-2.8313,-2.8647,-2.8963,-2.902,-2.8975,-2.8837,-2.7965,-2.7078,-2.6384,-2.5528,-2.4908,-2.4446,-2.399,-2.3644,-2.335,-2.3117,-2.2852,-2.2703,-2.2542,-2.2317,-2.1883,-2.1425,-2.0886,-2.0255,-1.9529,-1.8984,-1.8514,-1.8031,-1.7619,-1.7294,-1.6968,-1.6648,-1.6245,-1.6072,-1.5899,-1.5584,-1.536,-1.4896,-1.4423,-1.3703,-1.2966,-1.2599,-1.2385,-1.2305,-1.2305,-1.2305,-1.2452,-1.2599,-1.2826,-1.2926,-1.2969,-1.2873,-1.2676,-1.2291,-1.1921,-1.1488,-1.1143,-1.0807,-1.0618,-1.0491,-1.0555,-1.0688,-1.0829,-1.1037,-1.087,-1.0587,-1.0229,-0.979,-0.9395,-0.9042,-0.8804,-0.8646,-0.8533,-0.8427,-0.8275,-0.8062,-4.1255,-4.1255,-4.1498,-4.1866,-4.2246,-4.2097,-4.2115,-4.2246,-4.1952,-4.1736,-4.1587,-4.13,-4.1209,-4.1041,-4.0419,-3.9901,-3.9418,-3.875,-3.8221,-3.7876,-3.7433,-3.6997,-3.6585,-3.6022,-3.5494,-3.5118,-3.453,-3.379,-3.2948,-3.1775,-3.0552,-2.9289,-2.883,-2.8457,-2.8066,-2.7868,-2.7603,-2.7507,-2.7838,-2.819,-2.8541,-2.8982,-2.9391,-2.9503,-2.9049,-2.8225,-2.7434,-2.653,-2.5625,-2.4956,-2.4397,-2.4002,-2.3621,-2.3213,-2.2927,-2.2628,-2.2402,-2.2176,-2.1873,-2.1425,-2.0964,-2.0411,-1.9932,-1.9054,-1.8425,-1.8031,-1.7627,-1.7057,-1.6648,-1.6312,-1.5989,-1.5741,-1.5575,-1.5433,-1.5151,-1.4896,-1.4482,-1.3917,-1.3299,-1.2668,-1.2452,-1.2305,-1.2305,-1.2305,-1.2305,-1.2378,-1.2599,-1.2826,-1.3034,-1.3192,-1.3229,-1.3059,-1.2671,-1.233,-1.2059,-1.1718,-1.1254,-1.1052,-1.0926,-1.0926,-1.1122,-1.1162,-1.1124,-1.0702,-1.0208,-0.9834,-0.9452,-0.9085,-0.8745,-0.8586,-0.8374,-0.8109,-0.8002,-0.7901,-0.7794,-4.1631,-4.1692,-4.1858,-4.2055,-4.2287,-4.2246,-4.2246,-4.2287,-4.2103,-4.1909,-4.1675,-4.1408,-4.118,-4.1029,-4.0419,-3.9901,-3.9365,-3.875,-3.8262,-3.786,-3.7433,-3.6952,-3.6523,-3.5943,-3.5415,-3.4824,-3.4061,-3.3042,-3.204,-3.1027,-3.0221,-2.9218,-2.8638,-2.8118,-2.7736,-2.7536,-2.7348,-2.7117,-2.7403,-2.7895,-2.8384,-2.8908,-2.9378,-2.939,-2.8948,-2.8238,-2.7459,-2.6712,-2.5769,-2.4944,-2.4457,-2.399,-2.3475,-2.3054,-2.2703,-2.2402,-2.2025,-2.1655,-2.1349,-2.0886,-2.0411,-1.9854,-1.9292,-1.8505,-1.787,-1.7635,-1.7147,-1.6574,-1.6079,-1.5658,-1.5409,-1.5242,-1.5151,-1.4982,-1.4696,-1.4349,-1.4002,-1.339,-1.2811,-1.2553,-1.2392,-1.2305,-1.2305,-1.2305,-1.2305,-1.2452,-1.2673,-1.2973,-1.3266,-1.3425,-1.3775,-1.3569,-1.2999,-1.266,-1.2498,-1.2195,-1.1707,-1.149,-1.1435,-1.1428,-1.1476,-1.1243,-1.0936,-1.0301,-0.9791,-0.9412,-0.9119,-0.8825,-0.858,-0.8374,-0.8162,-0.7949,-0.7735,-0.7628,-0.7526,-4.1952,-4.1952,-4.2121,-4.2287,-4.249,-4.245,-4.245,-4.2409,-4.2187,-4.2037,-4.1823,-4.1453,-4.1152,-4.1,-4.0387,-3.9867,-3.9329,-3.8711,-3.8278,-3.786,-3.7389,-3.6907,-3.6399,-3.5834,-3.5081,-3.4419,-3.3071,-3.191,-3.1117,-3.0228,-2.9462,-2.8794,-2.83,-2.7842,-2.7469,-2.7335,-2.7134,-2.6901,-2.7176,-2.7513,-2.8024,-2.8596,-2.8937,-2.8913,-2.8637,-2.8027,-2.7299,-2.6578,-2.5865,-2.4919,-2.4276,-2.3806,-2.3327,-2.2905,-2.2478,-2.2025,-2.1578,-2.1118,-2.0731,-2.0342,-1.9863,-1.9381,-1.8745,-1.8031,-1.7286,-1.6968,-1.6394,-1.5816,-1.5575,-1.5242,-1.4901,-1.4734,-1.4824,-1.4692,-1.4193,-1.3803,-1.3379,-1.2872,-1.2587,-1.2425,-1.2305,-1.2305,-1.2305,-1.2305,-1.2305,-1.2378,-1.2673,-1.2893,-1.3193,-1.3702,-1.3999,-1.412,-1.3613,-1.3292,-1.3124,-1.2649,-1.2073,-1.1934,-1.1872,-1.1621,-1.1441,-1.1093,-1.0646,-1.0023,-0.9452,-0.9032,-0.8751,-0.8533,-0.8315,-0.8109,-0.7949,-0.7735,-0.7574,-0.7413,-0.7311,-4.2187,-4.2187,-4.2351,-4.257,-4.2745,-4.2667,-4.257,-4.253,-4.2246,-4.2037,-4.1902,-4.1408,-4.1198,-4.0888,-4.0436,-3.9867,-3.9292,-3.8727,-3.8278,-3.7817,-3.7301,-3.6862,-3.629,-3.5664,-3.4629,-3.3407,-3.2193,-3.1366,-3.0608,-2.9813,-2.9068,-2.8379,-2.7908,-2.7577,-2.7335,-2.7201,-2.6998,-2.6794,-2.6822,-2.6905,-2.749,-2.8147,-2.831,-2.8324,-2.8213,-2.7779,-2.6992,-2.6334,-2.5745,-2.4978,-2.4105,-2.3644,-2.3265,-2.2767,-2.2176,-2.1731,-2.1195,-2.0654,-2.0264,-1.9794,-1.9469,-1.8993,-1.8353,-1.77,-1.696,-1.6296,-1.5726,-1.5318,-1.5068,-1.4817,-1.4566,-1.4398,-1.4405,-1.4338,-1.3886,-1.332,-1.2936,-1.2546,-1.2392,-1.2305,-1.2305,-1.2305,-1.2305,-1.2305,-1.2378,-1.2378,-1.2599,-1.282,-1.3185,-1.3848,-1.4363,-1.452,-1.4348,-1.4057,-1.3743,-1.317,-1.2554,-1.2367,-1.2274,-1.1813,-1.1376,-1.0922,-1.0313,-0.9632,-0.9106,-0.8771,-0.8459,-0.8268,-0.8055,-0.7901,-0.7741,-0.7526,-0.7419,-0.7311,-0.7198,-4.2472,-4.253,-4.2552,-4.2609,-4.2649,-4.2591,-4.2588,-4.2486,-4.2187,-4.1995,-4.1709,-4.1373,-4.1134,-4.0901,-4.037,-3.9799,-3.9222,-3.8655,-3.8221,-3.7817,-3.7191,-3.6815,-3.6091,-3.4919,-3.3591,-3.2397,-3.1454,-3.0859,-3.0087,-2.9364,-2.883,-2.8235,-2.7776,-2.739,-2.7066,-2.693,-2.6782,-2.6577,-2.6521,-2.6647,-2.6773,-2.7293,-2.777,-2.7821,-2.7745,-2.7257,-2.6707,-2.6267,-2.5563,-2.4801,-2.4043,-2.3593,-2.3139,-2.2542,-2.1949,-2.1349,-2.0799,-2.0255,-1.9784,-1.9487,-1.917,-1.8674,-1.8031,-1.7456,-1.6706,-1.5959,-1.5387,-1.4985,-1.4734,-1.465,-1.4398,-1.4243,-1.4216,-1.4001,-1.3673,-1.3101,-1.258,-1.2466,-1.2405,-1.2305,-1.2305,-1.2305,-1.2305,-1.2305,-1.2378,-1.2526,-1.268,-1.2973,-1.3346,-1.3992,-1.4641,-1.4741,-1.48,-1.4681,-1.4353,-1.3716,-1.3192,-1.2951,-1.2501,-1.1944,-1.1295,-1.0651,-1.0002,-0.9362,-0.8871,-0.8506,-0.8262,-0.8002,-0.7842,-0.7681,-0.7473,-0.7365,-0.7263,-0.7149,-0.7036]}]]